[[{"header":{"parameterUnit":"m.s-1","parameterCategory":1,"la1":30.6,"la2":28.766,"lo1":-90.7593,"lo2":-88.6598,"dy":0.0162,"dx":0.0183,"nx":116,"ny":114,"refTime":"2023-08-30T06:00:00:Z","depth":0,"parameterNumber":2,"parameterNumberName":"U-component_of_WINDS"},"data":[0.0,0.0,0.0,0.0,0.0,0.0,0.0,0.0,0.0,0.0,0.0,0.0,0.0,0.0,0.0,0.0,0.0,0.0,0.0,0.0,0.0,0.0,0.0,0.0,0.0,0.0,0.0,0.0,0.0,0.0,0.0,0.0,0.0,0.0,0.0,0.0,0.0,0.0,0.0,0.0,0.0,0.0,0.0,0.0,0.0,0.0,0.0,0.0,0.0,0.0,0.0,0.0,0.0,0.0,0.0,0.0,0.0,0.0,0.0,0.0,0.0,0.0,0.0,0.0,0.0,0.0,0.0,0.0,0.0,0.0,0.0,0.0,0.0,0.0,0.0,0.0,0.0,0.0,0.0,0.0,0.0,0.0,0.0,0.0,0.0,0.0,0.0,0.0,0.0,0.0,0.0,0.0,0.0,0.0,0.0,0.0,0.0,0.0,0.0,0.0,0.0,0.0,0.0,0.0,0.0,0.0,0.0,0.0,0.0,0.0,0.0,0.0,0.0,0.0,0.0,0.0,0.0,0.0,0.0,0.0,0.0,0.0,0.0,0.0,0.0,0.0,0.0,0.0,0.0,0.0,0.0,0.0,0.0,0.0,0.0,0.0,0.0,0.0,0.0,0.0,0.0,0.0,0.0,0.0,0.0,0.0,0.0,0.0,0.0,0.0,0.0,0.0,0.0,0.0,0.0,0.0,0.0,0.0,0.0,0.0,0.0,0.0,0.0,0.0,0.0,0.0,0.0,0.0,0.0,0.0,0.0,0.0,0.0,0.0,0.0,0.0,0.0,0.0,0.0,0.0,0.0,0.0,0.0,0.0,0.0,0.0,0.0,0.0,0.0,0.0,0.0,0.0,0.0,0.0,0.0,0.0,0.0,0.0,0.0,0.0,0.0,0.0,0.0,0.0,0.0,0.0,0.0,0.0,0.0,0.0,0.0,0.0,0.0,0.0,0.0,0.0,0.0,0.0,0.0,0.0,0.0,0.0,0.0,0.0,0.0,0.0,0.0,0.0,0.0,0.0,0.0,0.0,0.0,0.0,0.0,0.0,0.0,0.0,0.0,0.0,0.0,0.0,0.0,0.0,0.0,0.0,0.0,0.0,0.0,0.0,0.0,0.0,0.0,0.0,0.0,0.0,0.0,0.0,0.0,0.0,0.0,0.0,0.0,0.0,0.0,0.0,0.0,0.0,0.0,0.0,0.0,0.0,0.0,0.0,0.0,0.0,0.0,0.0,0.0,0.0,0.0,0.0,0.0,0.0,0.0,0.0,0.0,0.0,0.0,0.0,0.0,0.0,0.0,0.0,0.0,0.0,0.0,0.0,0.0,0.0,0.0,0.0,0.0,0.0,0.0,0.0,0.0,0.0,0.0,0.0,0.0,0.0,0.0,0.0,0.0,0.0,0.0,0.0,0.0,0.0,0.0,0.0,0.0,0.0,0.0,0.0,0.0,0.0,0.0,0.0,0.0,0.0,0.0,0.0,0.0,0.0,0.0,0.0,0.0,0.0,0.0,0.0,0.0,0.0,0.0,0.0,0.0,0.0,0.0,0.0,0.0,0.0,0.0,0.0,0.0,0.0,0.0,0.0,0.0,0.0,0.0,0.0,0.0,0.0,0.0,0.0,0.0,0.0,0.0,0.0,0.0,0.0,0.0,0.0,0.0,0.0,0.0,0.0,0.0,0.0,0.0,0.0,0.0,0.0,0.0,0.0,0.0,0.0,0.0,0.0,0.0,0.0,0.0,0.0,0.0,0.0,0.0,0.0,0.0,0.0,0.0,0.0,0.0,0.0,0.0,0.0,0.0,0.0,0.0,0.0,0.0,0.0,0.0,0.0,0.0,0.0,0.0,0.0,0.0,0.0,0.0,0.0,0.0,0.0,0.0,0.0,0.0,0.0,0.0,0.0,0.0,0.0,0.0,0.0,0.0,0.0,0.0,0.0,0.0,0.0,0.0,0.0,0.0,0.0,0.0,0.0,0.0,0.0,0.0,0.0,0.0,0.0,0.0,0.0,0.0,0.0,0.0,0.0,0.0,0.0,0.0,0.0,0.0,0.0,0.0,0.0,0.0,0.0,0.0,0.0,0.0,0.0,0.0,0.0,0.0,0.0,0.0,0.0,0.0,0.0,0.0,0.0,0.0,0.0,0.0,0.0,0.0,0.0,0.0,0.0,0.0,0.0,0.0,0.0,0.0,0.0,0.0,0.0,0.0,0.0,0.0,0.0,0.0,0.0,0.0,0.0,0.0,0.0,0.0,0.0,0.0,0.0,0.0,0.0,0.0,0.0,0.0,0.0,0.0,0.0,0.0,0.0,0.0,0.0,0.0,0.0,0.0,0.0,0.0,0.0,0.0,0.0,0.0,0.0,0.0,0.0,0.0,0.0,0.0,0.0,0.0,0.0,0.0,0.0,0.0,0.0,0.0,0.0,0.0,0.0,0.0,0.0,0.0,0.0,0.0,0.0,0.0,0.0,0.0,0.0,0.0,0.0,0.0,0.0,0.0,0.0,0.0,0.0,0.0,0.0,0.0,0.0,0.0,0.0,0.0,0.0,0.0,0.0,0.0,0.0,0.0,0.0,0.0,0.0,0.0,0.0,0.0,0.0,0.0,0.0,0.0,0.0,0.0,0.0,0.0,0.0,0.0,0.0,0.0,0.0,0.0,0.0,0.0,0.0,0.0,0.0,0.0,0.0,0.0,0.0,0.0,0.0,0.0,0.0,0.0,0.0,0.0,0.0,0.0,0.0,0.0,0.0,0.0,0.0,0.0,0.0,0.0,0.0,0.0,0.0,0.0,0.0,0.0,0.0,0.0,0.0,0.0,0.0,0.0,0.0,0.0,0.0,0.0,0.0,0.0,0.0,0.0,0.0,0.0,0.0,0.0,0.0,0.0,0.0,0.0,0.0,0.0,0.0,0.0,0.0,0.0,0.0,0.0,0.0,0.0,0.0,0.0,0.0,0.0,0.0,0.0,0.0,0.0,0.0,0.0,0.0,0.0,0.0,0.0,0.0,0.0,0.0,0.0,0.0,0.0,0.0,0.0,0.0,0.0,0.0,0.0,0.0,0.0,0.0,0.0,0.0,0.0,0.0,0.0,0.0,0.0,0.0,0.0,0.0,0.0,0.0,0.0,0.0,0.0,0.0,0.0,0.0,0.0,0.0,0.0,0.0,0.0,0.0,0.0,0.0,0.0,0.0,0.0,0.0,0.0,0.0,0.0,0.0,0.0,0.0,0.0,0.0,0.0,0.0,0.0,0.0,0.0,0.0,0.0,0.0,0.0,0.0,0.0,0.0,0.0,0.0,0.0,0.0,0.0,0.0,0.0,0.0,0.0,0.0,0.0,0.0,0.0,0.0,0.0,0.0,0.0,0.0,0.0,0.0,0.0,0.0,0.0,0.0,0.0,0.0,0.0,0.0,0.0,0.0,0.0,0.0,0.0,0.0,0.0,0.0,0.0,0.0,0.0,0.0,0.0,0.0,0.0,0.0,0.0,0.0,0.0,0.0,0.0,0.0,0.0,0.0,0.0,0.0,0.0,0.0,0.0,0.0,0.0,0.0,0.0,0.0,0.0,0.0,0.0,0.0,0.0,0.0,0.0,0.0,0.0,0.0,0.0,0.0,0.0,0.0,0.0,0.0,0.0,0.0,0.0,0.0,0.0,0.0,0.0,0.0,0.0,0.0,0.0,0.0,0.0,0.0,0.0,0.0,0.0,0.0,0.0,0.0,0.0,0.0,0.0,0.0,0.0,0.0,0.0,0.0,0.0,0.0,0.0,0.0,0.0,0.0,0.0,0.0,0.0,0.0,0.0,0.0,0.0,0.0,0.0,0.0,0.0,0.0,0.0,0.0,0.0,0.0,0.0,0.0,0.0,0.0,0.0,0.0,0.0,0.0,0.0,0.0,0.0,0.0,0.0,0.0,0.0,0.0,0.0,0.0,0.0,0.0,0.0,0.0,0.0,0.0,0.0,0.0,0.0,0.0,0.0,0.0,0.0,0.0,0.0,0.0,0.0,0.0,0.0,0.0,0.0,0.0,0.0,0.0,0.0,0.0,0.0,0.0,0.0,0.0,0.0,0.0,0.0,0.0,0.0,0.0,0.0,0.0,0.0,0.0,0.0,0.0,0.0,0.0,0.0,0.0,0.0,0.0,0.0,0.0,0.0,0.0,0.0,0.0,0.0,0.0,0.0,0.0,0.0,0.0,0.0,0.0,0.0,0.0,0.0,0.0,0.0,0.0,0.0,0.0,0.0,0.0,0.0,0.0,0.0,0.0,0.0,0.0,0.0,0.0,0.0,0.0,0.0,0.0,0.0,0.0,0.0,0.0,0.0,0.0,0.0,0.0,0.0,0.0,0.0,0.0,0.0,0.0,0.0,0.0,0.0,0.0,0.0,0.0,0.0,0.0,0.0,0.0,0.0,0.0,0.0,0.0,0.0,0.0,0.0,0.0,0.0,0.0,0.0,0.0,0.0,0.0,0.0,0.0,0.0,0.0,0.0,0.0,0.0,0.0,0.0,0.0,0.0,0.0,0.0,0.0,0.0,0.0,0.0,0.0,0.0,0.0,0.0,0.0,0.0,0.0,0.0,0.0,0.0,0.0,0.0,0.0,0.0,0.0,0.0,0.0,0.0,0.0,0.0,0.0,0.0,0.0,0.0,0.0,0.0,0.0,0.0,0.0,0.0,0.0,0.0,0.0,0.0,0.0,0.0,0.0,0.0,0.0,0.0,0.0,0.0,0.0,0.0,0.0,0.0,0.0,0.0,0.0,0.0,0.0,0.0,0.0,0.0,0.0,0.0,0.0,0.0,0.0,0.0,0.0,0.0,0.0,0.0,0.0,0.0,0.0,0.0,0.0,0.0,0.0,0.0,0.0,0.0,0.0,0.0,0.0,0.0,0.0,0.0,0.0,0.0,0.0,0.0,0.0,0.0,0.0,0.0,0.0,0.0,0.0,0.0,0.0,0.0,0.0,0.0,0.0,0.0,0.0,0.0,0.0,0.0,0.0,0.0,0.0,0.0,0.0,0.0,0.0,0.0,0.0,0.0,0.0,0.0,0.0,0.0,0.0,0.0,0.0,0.0,0.0,0.0,0.0,0.0,0.0,0.0,0.0,0.0,0.0,0.0,0.0,0.0,0.0,0.0,0.0,0.0,0.0,0.0,0.0,0.0,0.0,0.0,0.0,0.0,0.0,0.0,0.0,0.0,0.0,0.0,0.0,0.0,0.0,0.0,0.0,0.0,0.0,0.0,0.0,0.0,0.0,0.0,0.0,0.0,0.0,0.0,0.0,0.0,0.0,0.0,0.0,0.0,0.0,0.0,0.0,0.0,0.0,0.0,0.0,0.0,0.0,0.0,0.0,0.0,0.0,0.0,0.0,0.0,0.0,0.0,0.0,0.0,0.0,0.0,0.0,0.0,0.0,0.0,0.0,0.0,0.0,0.0,0.0,0.0,0.0,0.0,0.0,0.0,0.0,0.0,0.0,0.0,0.0,0.0,0.0,0.0,0.0,0.0,0.0,0.0,0.0,0.0,0.0,0.0,0.0,0.0,0.0,0.0,0.0,0.0,0.0,0.0,0.0,0.0,0.0,0.0,0.0,0.0,0.0,0.0,0.0,0.0,0.0,0.0,0.0,0.0,0.0,0.0,0.0,0.0,0.0,0.0,0.0,0.0,0.0,0.0,0.0,0.0,0.0,0.0,0.0,0.0,0.0,0.0,0.0,0.0,0.0,0.0,0.0,0.0,0.0,0.0,0.0,0.0,0.0,0.0,0.0,0.0,0.0,0.0,0.0,0.0,0.0,0.0,0.0,0.0,0.0,0.0,0.0,0.0,0.0,0.0,0.0,0.0,0.0,0.0,0.0,0.0,0.0,0.0,0.0,0.0,0.0,0.0,0.0,0.0,0.0,0.0,0.0,0.0,0.0,0.0,0.0,0.0,0.0,0.0,0.0,0.0,0.0,0.0,0.0,0.0,0.0,0.0,0.0,0.0,0.0,0.0,0.0,0.0,0.0,0.0,0.0,0.0,0.0,0.0,0.0,0.0,0.0,0.0,0.0,0.0,0.0,0.0,0.0,0.0,0.0,0.0,0.0,0.0,0.0,-2.4534,-2.4083,0.0,0.0,0.0,0.0,0.0,0.0,0.0,0.0,0.0,0.0,0.0,0.0,0.0,0.0,0.0,0.0,0.0,0.0,0.0,0.0,0.0,0.0,0.0,0.0,0.0,0.0,0.0,0.0,0.0,0.0,0.0,0.0,0.0,0.0,0.0,0.0,0.0,-2.6499,-2.6396,-2.6396,-2.6499,-2.6499,-2.6499,-2.6499,0.0,0.0,0.0,0.0,0.0,0.0,0.0,0.0,0.0,0.0,0.0,0.0,0.0,0.0,0.0,0.0,0.0,0.0,0.0,0.0,0.0,0.0,0.0,0.0,0.0,0.0,0.0,0.0,0.0,0.0,0.0,0.0,0.0,0.0,0.0,0.0,0.0,0.0,0.0,0.0,0.0,0.0,0.0,0.0,0.0,0.0,0.0,0.0,0.0,0.0,0.0,0.0,0.0,0.0,0.0,0.0,0.0,0.0,0.0,0.0,0.0,0.0,0.0,0.0,0.0,0.0,0.0,0.0,0.0,0.0,-2.5166,-2.4905,0.0,0.0,0.0,0.0,0.0,0.0,0.0,0.0,0.0,0.0,0.0,0.0,0.0,0.0,0.0,0.0,0.0,0.0,0.0,0.0,0.0,0.0,0.0,-2.8629,-2.8436,-2.6829,-2.7074,-2.704,0.0,0.0,0.0,0.0,0.0,0.0,0.0,-2.6236,-2.6236,-2.6396,-2.6236,-2.6236,-2.6396,-2.6396,-2.6396,-2.6383,-2.6465,0.0,0.0,0.0,0.0,0.0,0.0,0.0,0.0,0.0,0.0,0.0,0.0,0.0,0.0,0.0,0.0,0.0,0.0,0.0,0.0,0.0,0.0,0.0,0.0,0.0,0.0,0.0,0.0,0.0,0.0,0.0,0.0,0.0,0.0,0.0,0.0,0.0,0.0,0.0,0.0,0.0,0.0,0.0,0.0,0.0,0.0,0.0,0.0,0.0,0.0,0.0,0.0,0.0,0.0,0.0,0.0,0.0,0.0,0.0,0.0,0.0,0.0,0.0,-2.6765,-2.6485,-2.5998,-2.5998,-2.5998,-2.5998,-2.5998,-2.5913,-2.5754,-2.5315,0.0,0.0,0.0,0.0,0.0,0.0,0.0,0.0,0.0,0.0,0.0,0.0,0.0,0.0,0.0,0.0,0.0,0.0,0.0,0.0,0.0,-2.8817,-2.8333,-2.8702,-2.8203,-2.761,-2.6952,0.0,0.0,0.0,0.0,0.0,-2.598,-2.5945,-2.5945,-2.598,-2.5945,-2.5945,-2.598,-2.598,-2.598,-2.598,-2.6349,-2.6499,-2.6499,0.0,0.0,0.0,0.0,0.0,0.0,0.0,0.0,0.0,0.0,0.0,0.0,0.0,0.0,0.0,0.0,0.0,0.0,0.0,0.0,0.0,0.0,0.0,0.0,0.0,0.0,0.0,0.0,0.0,0.0,0.0,0.0,0.0,0.0,0.0,0.0,0.0,0.0,0.0,0.0,0.0,-2.7024,-2.7045,0.0,0.0,0.0,0.0,0.0,0.0,0.0,0.0,0.0,0.0,0.0,0.0,0.0,-2.7248,-2.7079,-2.7248,-2.7209,-2.6976,-2.6976,-2.6938,-2.6827,-2.6827,-2.6827,-2.6827,-2.6827,0.0,-2.578,-2.5702,0.0,0.0,0.0,0.0,0.0,0.0,0.0,0.0,0.0,0.0,0.0,0.0,0.0,0.0,0.0,0.0,0.0,0.0,0.0,0.0,0.0,-2.923,-2.8835,-2.8398,-2.843,-2.798,-2.6879,-2.6926,0.0,0.0,0.0,-2.591,-2.591,-2.5793,-2.5723,-2.5723,-2.5828,-2.591,-2.591,-2.591,-2.591,-2.591,-2.6084,-2.6141,-2.6141,-2.6141,0.0,0.0,0.0,0.0,0.0,0.0,0.0,0.0,0.0,0.0,0.0,0.0,0.0,0.0,0.0,0.0,0.0,0.0,0.0,0.0,0.0,0.0,0.0,0.0,0.0,0.0,0.0,0.0,0.0,0.0,0.0,0.0,0.0,0.0,0.0,0.0,0.0,0.0,0.0,-2.6726,-2.6829,-2.6829,-2.6943,-2.6943,0.0,0.0,0.0,0.0,0.0,0.0,0.0,0.0,0.0,-2.746,-2.7528,-2.7683,-2.7899,-2.8004,-2.8004,-2.7899,-2.7899,-2.7899,-2.7899,-2.7899,-2.7899,-2.7899,-2.7959,-2.7734,-2.7283,-2.6362,-2.5975,-2.5936,0.0,0.0,0.0,0.0,-2.5389,-2.5389,0.0,0.0,0.0,0.0,0.0,0.0,0.0,0.0,0.0,0.0,0.0,0.0,-2.9289,-2.9557,-2.9355,-2.8333,-2.872,-2.8468,-2.7224,-2.7149,-2.6892,-2.6336,-2.5968,-2.5889,-2.6247,-2.5883,-2.5669,-2.5535,-2.5822,-2.5966,-2.5966,-2.6077,-2.615,-2.615,-2.615,-2.6062,-2.591,-2.591,-2.591,-2.591,0.0,0.0,0.0,0.0,0.0,0.0,0.0,0.0,0.0,0.0,0.0,0.0,0.0,0.0,0.0,0.0,0.0,0.0,0.0,0.0,0.0,0.0,0.0,0.0,0.0,0.0,0.0,0.0,0.0,0.0,0.0,0.0,0.0,0.0,0.0,0.0,0.0,-2.6716,-2.686,-2.686,-2.7103,-2.7227,0.0,0.0,0.0,0.0,0.0,0.0,-2.7274,-2.7274,-2.7452,-2.7847,-2.7931,-2.8135,-2.8471,-2.852,-2.852,-2.8484,-2.8484,-2.8484,-2.8484,-2.8484,-2.8484,-2.8484,-2.8533,-2.8533,-2.8369,-2.7071,-2.6529,-2.6478,-2.596,-2.573,-2.5743,-2.5665,-2.5665,-2.5633,0.0,0.0,0.0,0.0,0.0,0.0,0.0,0.0,0.0,0.0,0.0,-2.9602,-2.9571,-2.9602,-2.9571,-2.9509,-2.954,-2.923,-2.846,-2.7835,-2.7451,-2.7417,-2.6092,-2.5895,-2.7122,-2.6456,-2.5817,-2.5312,-2.5853,-2.6094,-2.6106,-2.661,-2.6851,-2.6851,-2.6851,-2.6518,-2.591,-2.591,-2.591,-2.591,-2.591,0.0,0.0,0.0,0.0,0.0,0.0,0.0,0.0,0.0,0.0,0.0,0.0,0.0,0.0,0.0,0.0,0.0,0.0,0.0,0.0,0.0,0.0,0.0,0.0,0.0,0.0,0.0,0.0,0.0,0.0,0.0,0.0,0.0,0.0,0.0,0.0,0.0,0.0,-2.7278,-2.7744,0.0,0.0,0.0,0.0,-2.8021,-2.8021,-2.8021,-2.8021,-2.8021,-2.807,-2.8096,-2.8254,-2.8279,-2.8146,-2.8304,-2.8304,-2.8146,-2.8146,-2.8146,-2.8146,-2.8146,-2.8146,-2.8146,-2.8146,-2.8146,-2.8083,-2.7809,-2.7716,-2.7665,-2.7105,-2.69,-2.69,-2.6705,-2.6637,-2.6603,0.0,0.0,0.0,0.0,0.0,0.0,0.0,0.0,-2.9682,-2.9682,-2.9634,-2.9602,-2.9602,-2.9602,-2.9602,-2.9602,-2.9602,-2.9293,-2.8556,-2.8266,-2.7723,-2.6812,-2.6614,-2.6511,-2.648,-2.6239,-2.6009,-2.5817,-2.637,-2.6597,-2.6635,-2.6801,-2.6898,-2.6898,-2.6898,-2.6756,-2.6554,-2.6554,-2.6554,-2.6554,-2.6676,-2.6749,0.0,0.0,0.0,0.0,0.0,0.0,0.0,0.0,0.0,0.0,0.0,0.0,0.0,0.0,0.0,0.0,0.0,0.0,0.0,0.0,0.0,0.0,0.0,0.0,0.0,0.0,0.0,0.0,0.0,0.0,0.0,0.0,0.0,0.0,0.0,0.0,0.0,-2.7808,-2.7984,0.0,-2.8109,-2.8109,-2.8109,-2.8109,-2.8109,-2.8109,-2.8109,-2.8109,-2.8273,-2.8587,-2.8674,-2.885,-2.9189,-2.9277,-2.9277,-2.9189,-2.9189,-2.9189,-2.9189,-2.9189,-2.9189,-2.9189,-2.9189,-2.9189,-2.9151,-2.871,-2.8292,-2.7963,-2.7774,-2.7698,-2.7698,-2.7626,-2.7591,-2.7578,0.0,0.0,0.0,0.0,0.0,0.0,0.0,0.0,-2.9602,-2.9602,-2.9602,-2.9602,-2.9602,-2.9602,-2.9602,-2.9602,-2.9602,-2.9401,-2.8903,-2.8634,-2.8308,-2.7792,-2.7837,-2.7312,-2.6142,-2.6286,-2.6382,-2.6382,-2.6898,-2.7162,-2.7162,-2.7342,-2.7426,-2.7426,-2.7426,-2.7426,-2.7426,-2.7426,-2.7222,-2.6898,-2.7073,-2.7099,-2.7024,0.0,0.0,0.0,0.0,0.0,0.0,0.0,0.0,0.0,0.0,0.0,0.0,0.0,0.0,0.0,0.0,0.0,0.0,0.0,0.0,0.0,0.0,0.0,0.0,0.0,0.0,0.0,0.0,0.0,0.0,0.0,0.0,0.0,0.0,-2.826,-2.8386,-2.8386,-2.8561,-2.8674,-2.8674,-2.8674,-2.8674,-2.8674,-2.8674,-2.8674,-2.8674,-2.8674,-2.885,-2.9202,-2.9176,-2.9402,-2.9792,-2.9792,-2.9792,-2.9792,-2.9792,-2.9792,-2.9792,-2.9792,-2.9792,-2.9792,-2.9792,-2.9792,-2.9767,-2.9377,-2.9001,-2.8637,-2.826,-2.8109,-2.8109,-2.8109,-2.8109,-2.8109,0.0,0.0,0.0,0.0,0.0,0.0,0.0,-2.9602,-2.9602,-2.9602,-2.9602,-2.9602,-2.9602,-2.9602,-2.9602,-2.9602,-2.9602,-2.9602,-2.9602,-2.8949,-2.9114,-3.0391,-2.9596,-2.8165,-2.6166,-2.6633,-2.6922,-2.6922,-2.745,-2.7702,-2.7726,-2.827,-2.851,-2.851,-2.851,-2.851,-2.851,-2.851,-2.7921,-2.6946,-2.6946,-2.6946,-2.6946,0.0,0.0,0.0,0.0,0.0,0.0,0.0,0.0,0.0,0.0,0.0,0.0,0.0,0.0,0.0,0.0,0.0,0.0,0.0,0.0,0.0,0.0,0.0,0.0,0.0,0.0,0.0,0.0,0.0,0.0,0.0,0.0,0.0,-2.8273,-2.8612,-2.8913,-2.8913,-2.9453,-2.9792,-2.9792,-2.9792,-2.9792,-2.9792,-2.9792,-2.9792,-2.9792,-2.9792,-2.9792,-2.9792,-2.9792,-2.9804,-2.9817,-2.9817,-2.9829,-2.9842,-2.9842,-2.9842,-2.9842,-2.9829,-2.9817,-2.9817,-2.9804,-2.9792,-2.9792,-2.9792,-2.9792,-2.9679,-2.8586,-2.816,-2.816,-2.816,-2.816,-2.816,0.0,0.0,0.0,0.0,0.0,0.0,-2.9602,-2.9602,-2.9602,-2.9602,-2.9602,-2.9602,-2.9602,-2.9602,-2.9602,-2.9602,-2.9602,-2.9602,-2.9602,-2.9401,-2.9173,-2.8932,-2.764,-2.6858,-2.6695,-2.7198,-2.7474,-2.7474,-2.8041,-2.8294,-2.8294,-2.8438,-2.851,-2.851,-2.851,-2.851,-2.851,-2.851,-2.8342,-2.8077,-2.8077,-2.8077,-2.8077,0.0,0.0,0.0,0.0,0.0,0.0,0.0,0.0,0.0,0.0,0.0,0.0,0.0,0.0,0.0,0.0,0.0,0.0,0.0,0.0,0.0,0.0,0.0,0.0,0.0,0.0,0.0,0.0,0.0,0.0,0.0,-2.9419,-2.9397,-2.9327,-2.9465,-2.9553,-2.9553,-2.9691,-2.9792,-2.9792,-2.9792,-2.9792,-2.9792,-2.9792,-2.9792,-2.9792,-2.9792,-2.9792,-2.9792,-2.9792,-2.998,-3.0382,-3.0394,-3.0583,-3.0947,-3.0947,-3.0947,-3.0934,-3.0557,-3.0394,-3.0369,-2.9967,-2.9792,-2.9792,-2.9792,-2.9792,-2.9767,-2.9453,-2.9327,-2.9327,-2.9327,-2.9327,-2.9327,0.0,0.0,0.0,0.0,0.0,0.0,-2.9602,-2.9602,-2.9602,-2.9602,-2.9602,-2.9602,-2.9602,-2.9602,-2.9602,-2.9602,-2.9602,-2.9602,-2.9602,-2.9575,-2.8953,-2.7571,-2.7153,-2.6919,-2.6885,-2.7414,-2.7798,-2.8053,-2.8366,-2.851,-2.851,-2.851,-2.851,-2.851,-2.851,-2.851,-2.851,-2.851,-2.851,-2.851,-2.851,-2.851,-2.851,-2.851,-2.851,-2.851,-2.851,-2.851,-2.851,-2.851,0.0,0.0,0.0,0.0,0.0,0.0,0.0,0.0,0.0,0.0,0.0,0.0,0.0,0.0,0.0,0.0,0.0,0.0,0.0,0.0,0.0,0.0,0.0,0.0,-2.9145,-2.9236,-2.9456,-2.9573,-2.965,-2.9792,-2.9792,-2.9792,-2.9792,-2.9792,-2.9892,-3.0118,-3.0143,-3.0231,-3.0444,-3.047,-3.047,-3.047,-3.047,-3.062,-3.0934,-3.0947,-3.1085,-3.1386,-3.1386,-3.1386,-3.1386,-3.1085,-3.0947,-3.0922,-3.0608,-3.047,-3.047,-3.047,-3.0331,-3.0118,0.0,0.0,0.0,0.0,-2.9792,-2.9792,0.0,0.0,0.0,0.0,0.0,0.0,-2.9518,-2.9504,-2.9504,-2.9504,-2.9504,-2.9532,-2.9602,-2.9602,-2.9602,-2.9602,-2.9602,-2.9571,-2.9477,-2.9328,-2.8411,-2.6474,-2.741,-2.7631,-2.6935,-2.7474,-2.8041,-2.851,-2.851,-2.851,-2.851,-2.851,-2.851,-2.851,-2.851,-2.851,-2.851,-2.851,-2.851,-2.851,-2.851,-2.851,-2.851,-2.851,-2.851,-2.851,-2.851,-2.851,-2.851,-2.851,0.0,0.0,0.0,0.0,0.0,0.0,0.0,0.0,0.0,0.0,0.0,0.0,0.0,0.0,0.0,0.0,0.0,0.0,0.0,0.0,0.0,0.0,0.0,0.0,-2.8791,-2.8882,-2.9052,-2.9285,-2.9506,-2.9714,-2.9803,-2.9892,-2.988,-2.993,-3.0181,-3.067,-3.0708,-3.0909,-3.1361,-3.1386,0.0,0.0,0.0,-3.1424,-3.1486,-3.1486,-3.1512,-3.1587,-3.1587,-3.1587,-3.1574,-3.1512,-3.1486,-3.1486,-3.1411,-3.1386,-3.1386,-3.1386,-3.1122,-3.0645,-3.003,-2.9792,-2.9792,-2.9792,-2.9792,-2.9792,0.0,0.0,0.0,0.0,0.0,0.0,-2.8942,-2.8872,-2.8872,-2.8872,-2.8872,-2.9055,-2.956,-2.9602,-2.9602,-2.9602,-2.9602,-2.9369,-2.873,-2.8204,-2.7434,-2.6449,-2.6882,-2.7073,-2.6898,-2.7834,-2.8414,-2.851,-2.851,-2.851,-2.851,-2.851,-2.851,-2.851,-2.851,-2.851,-2.851,-2.851,-2.851,-2.851,-2.851,-2.851,-2.851,-2.851,-2.851,-2.851,-2.851,-2.851,-2.851,-2.851,-2.851,-2.8351,-2.747,-2.7185,0.0,0.0,0.0,0.0,0.0,0.0,0.0,0.0,0.0,0.0,0.0,0.0,0.0,0.0,0.0,0.0,0.0,0.0,0.0,-2.8803,-2.8791,-2.8882,-2.9052,-2.938,-2.9558,-2.9481,-2.992,-3.0286,-3.0417,-3.0834,-3.1122,-3.1235,-3.1248,-3.1286,-3.1386,-3.1386,-3.1386,-3.1386,-3.1386,-3.1599,-3.2051,-3.2051,-3.229,-3.2797,-3.2797,0.0,-3.2729,-3.2265,-3.2051,-3.2026,-3.1587,-3.1386,-3.1386,-3.1386,-3.1336,-3.1148,-3.0168,-2.9792,-2.9792,-2.9792,-2.9792,-2.9792,0.0,0.0,0.0,0.0,0.0,0.0,-2.8745,-2.8422,-2.8269,-2.8269,-2.8269,-2.8464,-2.9083,-2.9153,-2.9265,-2.9574,-2.9602,-2.9135,-2.8051,-2.7703,-2.7002,-2.5896,-2.6529,-2.6898,-2.6898,-2.7969,-2.851,-2.851,-2.851,-2.851,-2.851,-2.851,-2.851,-2.851,-2.851,-2.851,-2.851,-2.851,-2.851,-2.851,-2.851,-2.851,-2.851,-2.851,-2.851,-2.851,-2.851,-2.851,-2.851,-2.851,-2.851,-2.8431,-2.8007,-2.7846,-2.7846,0.0,0.0,0.0,0.0,0.0,0.0,0.0,0.0,0.0,0.0,0.0,0.0,0.0,0.0,-2.851,-2.851,0.0,-2.8657,-2.8657,-2.8875,-2.9096,-2.9177,-2.9597,-2.9813,-2.9665,-3.0165,-3.0551,-3.0645,-3.0868,-3.1183,-3.1414,-3.1427,-3.1605,-3.1878,-3.1988,-3.2059,-3.2059,-3.2185,-3.2365,-3.2641,-3.2641,-3.2792,-3.3124,-3.3124,-3.3124,-3.3111,-3.278,-3.2641,-3.2629,-3.2353,-3.2227,-3.2215,-3.1814,-3.1647,-3.1572,-3.0639,-3.0396,-3.0557,-3.0294,-3.0206,-3.0168,0.0,0.0,0.0,0.0,0.0,0.0,0.0,-2.7902,-2.7622,-2.7622,-2.7622,-2.7904,-2.8605,-2.8689,-2.8942,-2.956,-2.9602,-2.9008,-2.7584,-2.7517,-2.6833,-2.537,-2.6321,-2.6898,-2.6898,-2.7969,-2.851,-2.851,-2.851,-2.851,-2.851,-2.851,-2.851,-2.851,-2.851,-2.851,-2.851,-2.851,-2.851,-2.851,-2.851,-2.851,-2.851,-2.851,-2.851,-2.851,-2.851,-2.851,-2.851,-2.851,-2.851,-2.851,-2.851,-2.851,-2.851,-2.851,-2.851,0.0,0.0,0.0,0.0,0.0,0.0,0.0,0.0,-2.851,-2.851,-2.851,-2.851,-2.851,-2.851,-2.8595,-2.8667,-2.8667,-2.9112,-2.9448,-2.9448,-2.9905,-3.0199,-3.0106,-3.0506,-3.0817,-3.0859,-3.0957,-3.1203,-3.1632,-3.1669,-3.1865,-3.2363,-3.2649,-3.2798,-3.2798,-3.3115,-3.3308,-3.3351,-3.3351,-3.3351,-3.3395,-3.3294,-3.3275,-3.3232,-3.3174,-3.3068,-3.3025,-3.2995,-3.2995,-3.2957,-3.2294,-3.198,-3.193,-3.1274,-3.1269,-3.1514,-3.0848,-3.0611,-3.0536,0.0,0.0,0.0,0.0,0.0,0.0,0.0,0.0,-2.6919,-2.6919,-2.6919,-2.7369,-2.8563,-2.8689,-2.8942,-2.956,-2.9602,-2.9008,-2.7584,-2.7517,-2.6833,-2.537,-2.6321,-2.6898,-2.6898,-2.7969,-2.851,-2.851,-2.851,-2.851,-2.851,-2.851,-2.851,-2.851,-2.851,-2.851,-2.851,-2.851,-2.851,-2.851,-2.851,-2.851,-2.851,-2.851,-2.851,-2.851,-2.851,-2.851,-2.851,-2.851,-2.851,-2.851,-2.851,-2.851,-2.851,-2.851,-2.851,-2.851,-2.851,-2.851,-2.851,-2.851,-2.851,-2.851,0.0,-2.851,-2.851,-2.851,-2.851,-2.851,-2.851,-2.8895,-2.9208,-2.9208,-2.9653,-3.0001,-3.0001,-3.0458,-3.0802,-3.0784,-3.0992,-3.1187,-3.1369,-3.1921,-3.224,-3.2289,-3.2302,-3.2326,-3.24,-3.2887,-3.3145,-3.3145,-3.3625,-3.3995,-3.4164,-3.4164,-3.43,-3.4537,-3.4035,-3.3809,-3.3796,-3.3307,-3.2982,-3.2723,-3.2562,-3.2605,-3.2711,-3.2444,-3.2345,-3.2345,-3.2228,-3.2247,-3.2167,-3.1078,-3.0696,-3.056,0.0,0.0,0.0,0.0,0.0,0.0,0.0,0.0,0.0,-2.6287,-2.6287,-2.661,-2.7495,-2.8254,-2.8942,-2.956,-2.9602,-2.9008,-2.7584,-2.7517,-2.6833,-2.537,-2.6045,-2.6561,-2.6885,-2.7669,-2.821,-2.851,-2.851,-2.851,-2.851,-2.851,-2.851,-2.851,-2.851,-2.851,-2.851,-2.851,-2.851,-2.851,-2.851,-2.851,-2.851,-2.851,-2.851,-2.851,-2.851,-2.851,0.0,-2.851,-2.851,-2.851,-2.851,-2.851,-2.851,-2.851,-2.851,-2.851,-2.851,-2.851,-2.851,-2.851,-2.851,-2.851,-2.851,-2.851,-2.851,-2.851,-2.8751,-2.8967,-2.8967,-2.94,-2.9761,-2.9761,-3.0206,-3.0585,-3.0585,-3.1043,-3.138,-3.138,-3.1701,-3.1862,-3.1622,-3.2139,-3.2479,-3.2479,-3.2759,-3.2941,-3.2941,-3.3226,-3.3439,-3.3439,-3.3796,-3.4044,-3.4135,-3.4135,-3.4181,-3.4272,-3.4049,-3.3983,-3.397,-3.3747,-3.3373,-3.2987,-3.2911,-3.2727,-3.2519,-3.2257,-3.2169,-3.2169,-3.2025,-3.1981,-3.1928,-3.1375,-3.0816,-3.0245,0.0,0.0,0.0,0.0,0.0,0.0,0.0,0.0,0.0,0.0,-2.5893,-2.6188,-2.6989,-2.8043,-2.8942,-2.956,-2.9401,-2.8803,-2.7584,-2.7317,-2.6641,-2.5382,-2.5817,-2.6358,-2.6885,-2.7414,-2.7942,-2.851,-2.851,-2.851,-2.851,-2.851,-2.851,-2.851,-2.851,-2.851,-2.851,-2.851,-2.851,-2.851,-2.851,-2.851,-2.851,-2.851,-2.851,-2.851,-2.851,-2.851,-2.851,-2.851,-2.851,-2.851,-2.851,-2.851,-2.851,-2.851,-2.851,-2.851,-2.851,-2.851,-2.851,-2.851,-2.851,-2.851,-2.851,-2.8619,-2.8727,-2.8727,-2.9148,-2.952,-2.952,-2.9941,-3.0302,-3.0302,-3.0747,-3.1139,-3.1139,-3.1464,-3.1765,-3.1922,-3.225,-3.2394,-3.2175,-3.2478,-3.2719,-3.2719,-3.308,-3.3284,-3.3284,-3.3544,-3.371,-3.371,-3.4042,-3.4267,-3.4348,-3.4348,-3.436,-3.4453,-3.4293,-3.4232,-3.4219,-3.398,-3.3698,-3.342,-3.3285,-3.2934,-3.2477,-3.2224,-3.2039,-3.1893,-3.1427,-3.1294,-3.1279,-3.116,-3.0886,-3.0422,0.0,0.0,0.0,0.0,0.0,0.0,0.0,0.0,0.0,0.0,0.0,0.0,0.0,-2.831,-2.8942,-2.956,-2.8949,-2.8247,-2.7537,-2.6812,-2.6104,-2.5335,-2.5817,-2.6358,-2.6885,-2.7414,-2.7942,-2.851,-2.851,-2.851,-2.851,-2.851,-2.851,-2.851,-2.851,-2.851,-2.851,-2.851,-2.851,-2.851,-2.851,-2.851,-2.851,-2.851,-2.851,-2.851,-2.851,-2.851,-2.851,-2.851,-2.851,-2.851,-2.851,-2.851,-2.851,-2.851,-2.851,-2.851,-2.851,-2.851,-2.851,-2.851,-2.851,-2.851,-2.851,-2.8907,-2.928,-2.928,-2.9689,-3.0062,-3.0062,-3.0494,-3.0898,-3.0898,-3.1344,-3.1681,-3.1681,-3.1705,-3.191,-3.2406,-3.2491,-3.2695,0.0,-3.326,-3.3272,-3.3272,-3.3284,-3.3284,-3.3284,-3.3753,-3.397,-3.397,-3.4511,-3.4884,-3.5174,-3.5174,-3.5271,-3.5559,-3.503,-3.4785,-3.4772,-3.3966,-3.3756,-3.394,-3.3492,-3.3085,-3.2771,-3.2557,-3.2199,-3.1617,-3.0633,-3.026,-3.026,-3.0249,-3.0845,-3.1492,0.0,0.0,0.0,0.0,0.0,0.0,0.0,0.0,0.0,0.0,0.0,0.0,0.0,0.0,0.0,0.0,-2.8634,-2.8005,-2.6845,-2.6981,-2.6561,-2.5335,-2.548,-2.5829,-2.637,-2.6873,-2.7414,-2.7993,-2.8342,-2.851,-2.851,-2.851,-2.851,-2.851,-2.851,-2.851,-2.851,-2.851,-2.851,-2.851,-2.851,-2.851,-2.851,-2.851,-2.851,-2.851,0.0,-2.851,-2.851,-2.851,-2.851,-2.851,-2.851,-2.851,-2.851,-2.851,-2.851,-2.851,-2.851,-2.851,-2.8595,-2.8943,-2.9027,-2.9124,-2.9484,-2.9689,-2.9821,-2.9821,-3.0242,-3.0645,-3.0645,-3.1091,-3.144,-3.144,-3.1585,-3.1705,-3.1705,-3.203,-3.2286,-3.2478,-3.3104,0.0,0.0,0.0,0.0,-3.3742,-3.4114,-3.4318,-3.4318,-3.4414,-3.451,-3.451,-3.4691,-3.4823,-3.492,-3.492,-3.4981,-3.5078,-3.4896,-3.4812,-3.4799,-3.4522,-3.4257,-3.3965,-3.3089,-3.2451,-3.1926,-3.116,-3.0923,-3.102,-2.998,-2.9859,-3.0125,-2.9464,-2.9418,-2.9749,0.0,0.0,0.0,0.0,0.0,0.0,0.0,0.0,0.0,0.0,0.0,0.0,0.0,0.0,0.0,0.0,0.0,-2.7907,-2.6483,-2.6845,-2.6573,-2.5335,-2.5312,-2.5552,-2.6093,-2.6454,-2.6958,-2.7678,-2.8065,-2.833,-2.851,-2.851,-2.851,-2.851,-2.851,-2.851,-2.851,-2.851,-2.851,-2.851,-2.851,-2.851,-2.851,-2.851,-2.851,0.0,-2.851,-2.851,-2.851,-2.851,-2.851,-2.851,-2.851,-2.851,-2.851,-2.851,-2.851,-2.851,-2.851,-2.8643,-2.8871,-2.9208,-2.9436,-2.9677,-3.0013,-3.0242,-3.0374,-3.0374,-3.0826,-3.1199,-3.1199,-3.1476,-3.1705,-3.1705,-3.1705,-3.1705,-3.1705,-3.2142,-3.2575,-3.2755,-3.3478,-3.4066,0.0,0.0,0.0,-3.4282,-3.4595,-3.4775,-3.4775,-3.4775,-3.4775,-3.4775,-3.4775,-3.4775,-3.4775,-3.4775,-3.4628,-3.4213,-3.4213,-3.4017,-3.3659,-3.3659,-3.3485,-3.3122,-3.2412,-3.1784,-3.1237,-3.0553,-3.0365,-3.0401,-2.9397,-2.9141,-2.928,-2.8672,-2.8318,-2.8308,0.0,0.0,0.0,0.0,0.0,0.0,0.0,0.0,0.0,0.0,0.0,0.0,0.0,0.0,0.0,0.0,0.0,0.0,-2.6449,-2.638,-2.607,-2.5335,-2.5312,-2.554,-2.6045,-2.6081,-2.6598,-2.7633,-2.7654,-2.7942,-2.8474,-2.8498,-2.851,-2.851,-2.851,-2.851,-2.851,-2.851,-2.851,-2.851,-2.851,-2.851,-2.851,-2.851,-2.851,-2.851,-2.851,-2.851,-2.851,-2.851,-2.851,-2.851,-2.851,-2.851,-2.851,-2.851,-2.851,-2.851,-2.851,-2.8895,-2.9304,-2.9328,-2.9737,-3.0134,-3.0158,-3.0597,-3.0958,-3.0958,-3.1356,-3.1705,0.0,0.0,-3.1705,-3.1705,-3.1705,-3.1705,-3.1705,-3.2166,-3.2731,0.0,0.0,0.0,0.0,0.0,0.0,-3.4775,0.0,-3.4775,-3.4775,-3.4775,-3.4775,-3.4775,-3.4775,-3.4775,-3.4775,-3.4726,-3.4225,-3.3201,-3.3151,-3.2588,-3.1575,-3.1575,-3.1575,-3.1575,-3.1524,-3.1222,-3.0747,-3.0697,-3.0376,-2.9845,-2.8867,-2.8249,-2.7906,-2.7858,-2.7548,-2.7315,0.0,0.0,0.0,0.0,0.0,0.0,0.0,0.0,0.0,0.0,0.0,0.0,0.0,0.0,0.0,0.0,0.0,0.0,-2.5592,-2.6104,-2.607,-2.5335,-2.5312,-2.5372,-2.5504,-2.5889,-2.6238,-2.6514,-2.7332,-2.775,-2.7894,-2.833,-2.851,-2.851,-2.851,-2.851,-2.851,-2.851,-2.851,-2.851,-2.851,-2.851,-2.851,-2.851,-2.851,-2.851,-2.851,-2.851,-2.851,-2.851,-2.851,-2.851,-2.851,-2.851,-2.851,-2.851,-2.851,-2.851,-2.851,-2.8895,-2.94,-2.9785,-3.029,-3.0783,-3.1211,-3.1404,-3.1512,-3.1512,-3.1609,-3.1705,-3.1705,-3.1705,-3.1705,-3.1705,-3.1705,0.0,-3.1705,-3.2536,0.0,-3.3272,0.0,-3.4631,-3.4763,-3.4775,0.0,0.0,-3.4775,-3.4775,-3.4775,-3.4775,-3.4775,-3.4775,-3.4775,-3.4775,-3.4775,-3.4017,-3.3449,-3.3201,-3.2387,-3.188,-3.1575,-3.1575,-3.1575,-3.1524,-3.0701,-3.0265,-3.0057,-2.9255,-2.9095,-2.9225,-2.8297,-2.8076,-2.8272,-2.7492,-2.6973,-2.6635,0.0,0.0,0.0,0.0,0.0,0.0,0.0,0.0,0.0,0.0,0.0,0.0,0.0,0.0,0.0,0.0,0.0,0.0,0.0,-2.5864,-2.607,-2.5335,-2.5312,-2.5312,-2.5312,-2.56,-2.5865,-2.6093,-2.6707,-2.7128,-2.7342,-2.7642,-2.7906,-2.8162,-2.8162,-2.8294,-2.851,-2.851,-2.851,0.0,0.0,-2.851,-2.851,-2.851,-2.851,-2.851,-2.851,-2.851,-2.851,-2.851,-2.851,-2.851,-2.851,-2.851,-2.851,-2.851,-2.851,-2.851,-2.851,-2.9063,-2.9713,-3.0013,-3.0663,-3.1344,-3.1633,-3.1705,-3.1645,-3.1404,-3.1356,-3.1296,-3.1055,-3.1199,-3.1356,0.0,0.0,0.0,-3.1705,-3.2599,-3.3284,0.0,-3.4198,0.0,-3.4775,-3.4775,-3.4775,-3.4775,-3.4775,-3.4775,-3.4775,-3.4775,-3.4775,-3.4775,-3.4775,-3.4775,-3.4775,-3.3758,-3.2951,-3.2488,-3.1359,-3.0598,-3.0141,-3.0141,-3.0141,-3.0141,-2.9471,-2.9207,-2.9154,-2.8548,-2.8506,-2.8687,-2.8193,-2.8031,-2.8096,-2.7501,-2.7031,-2.6641,0.0,0.0,0.0,0.0,0.0,0.0,0.0,0.0,0.0,0.0,0.0,0.0,0.0,0.0,0.0,0.0,0.0,0.0,0.0,0.0,-2.5891,-2.5335,-2.5312,-2.5312,-2.5312,-2.5312,-2.5528,-2.5997,-2.6069,-2.6346,-2.6789,-2.6861,-2.7138,-2.7582,-2.7654,-2.7981,-2.8414,-2.8474,-2.851,-2.851,-2.851,-2.851,-2.851,0.0,-2.851,-2.851,-2.851,-2.851,-2.851,-2.851,-2.851,-2.851,-2.851,-2.851,-2.851,-2.851,-2.851,-2.851,-2.851,-2.9232,-3.0001,-3.0074,-3.0874,-3.1621,-3.1693,-3.1657,-3.1476,-3.1019,-3.0922,-3.0778,-3.0278,-3.0627,-3.1019,-3.1019,0.0,-3.1705,-3.1705,-3.2599,-3.3284,-3.3284,-3.4198,-3.4775,-3.4775,-3.4775,-3.4775,-3.4775,-3.4775,-3.4775,-3.4775,-3.4775,-3.4775,-3.4775,-3.4775,-3.4726,-3.458,-3.3511,-3.2437,-3.137,-3.0235,-2.9207,-2.8291,-2.8291,-2.8291,-2.8291,-2.8291,-2.8291,-2.8291,-2.8291,-2.8291,-2.8291,-2.8291,-2.8066,-2.7806,-2.7806,-2.7471,-2.7051,0.0,0.0,0.0,0.0,0.0,0.0,0.0,0.0,0.0,0.0,-2.3108,-2.3078,0.0,0.0,0.0,0.0,0.0,0.0,0.0,0.0,0.0,-2.5288,-2.5312,-2.5312,-2.5312,-2.5312,-2.536,-2.5444,-2.5877,-2.6154,-2.625,-2.6681,-2.6946,-2.7054,-2.7486,-2.7726,-2.7885,-2.8318,-2.851,-2.851,-2.851,-2.851,-2.851,-2.851,0.0,0.0,-2.851,-2.851,-2.851,-2.851,-2.851,-2.851,-2.851,-2.851,-2.851,-2.851,-2.851,-2.851,-2.851,-2.8967,-2.9544,-2.9977,-3.0555,-3.1163,-3.1609,-3.1368,0.0,-3.0934,-3.0922,-3.0886,-3.0802,-3.1211,-3.1573,-3.1573,-3.1645,-3.1705,-3.1705,-3.2599,-3.3284,0.0,-3.4198,-3.4775,-3.4775,-3.4775,0.0,0.0,-3.4775,-3.4775,-3.4775,-3.4775,-3.4775,-3.4775,-3.4775,-3.4372,-3.3511,-3.2387,-3.1319,-3.0182,-2.9112,-2.8495,-2.8291,-2.8291,-2.8291,-2.8291,-2.8291,-2.8291,-2.8291,-2.8291,-2.8291,-2.8291,-2.8291,-2.8252,-2.8184,-2.8184,-2.791,-2.7591,0.0,0.0,0.0,0.0,0.0,0.0,0.0,-2.3108,-2.3108,-2.3108,-2.3108,-2.3108,-2.3108,-2.3,-2.3008,0.0,0.0,0.0,0.0,0.0,0.0,0.0,0.0,0.0,-2.5312,-2.5312,-2.5312,-2.5312,0.0,-2.5685,-2.5697,-2.5961,-2.6238,-2.6502,-2.6755,-2.7188,-2.7702,-2.7993,-2.8258,-2.851,-2.851,-2.851,-2.851,0.0,0.0,0.0,0.0,-2.851,-2.851,-2.851,-2.851,-2.851,-2.851,-2.851,-2.851,-2.851,-2.851,-2.851,-2.851,-2.8895,-2.9364,-2.9617,-3.0074,-3.053,-3.0826,0.0,0.0,-3.0458,-3.0458,-3.0458,-3.0458,-3.0946,-3.1296,-3.1296,-3.1524,-3.1705,-3.1705,-3.2599,-3.3284,-3.3284,-3.4198,-3.4775,-3.4775,-3.4775,-3.4775,-3.4775,-3.4274,-3.4213,-3.4775,-3.4775,-3.4775,-3.4775,-3.4274,-3.3709,-3.3201,-3.1564,-3.0442,-2.9869,-2.8804,-2.8291,-2.8291,-2.8291,-2.8291,-2.8291,-2.8291,-2.8291,-2.8291,-2.8291,-2.8291,-2.8291,-2.8291,-2.8291,-2.8291,-2.8291,-2.8164,-2.7959,0.0,0.0,0.0,0.0,0.0,0.0,0.0,-2.2884,-2.2884,-2.2884,-2.3005,-2.3108,-2.3108,-2.3017,-2.2939,0.0,0.0,0.0,0.0,0.0,0.0,0.0,0.0,0.0,0.0,0.0,0.0,-2.5312,-2.5312,0.0,0.0,0.0,0.0,0.0,-2.6045,-2.6574,-2.7392,-2.7582,-2.7957,0.0,0.0,-2.851,0.0,0.0,0.0,0.0,0.0,0.0,-2.851,-2.851,-2.851,-2.851,-2.851,-2.851,-2.851,-2.851,-2.851,-2.851,-2.851,-2.8811,-2.916,-2.9268,-2.9617,-2.9941,-3.0062,-3.0001,-2.9953,-3.0062,-3.0086,-3.0122,-3.0242,-3.073,-3.1091,-3.1091,-3.144,-3.1705,-3.1705,-3.2599,-3.3284,0.0,-3.4198,0.0,-3.4775,-3.4568,0.0,-3.447,-3.3461,-3.325,-3.4066,-3.4115,-3.4115,-3.4115,-3.33,-3.2739,-3.2488,-3.0794,-2.9765,-2.9565,-2.8698,-2.8291,-2.8291,-2.8291,-2.8291,-2.8291,-2.8291,-2.8291,-2.8291,-2.8291,-2.8291,-2.8291,-2.8291,-2.8291,-2.8291,-2.8291,-2.8291,-2.8242,0.0,0.0,0.0,0.0,0.0,0.0,0.0,-2.2206,-2.2206,-2.2206,-2.272,-2.3108,-2.3108,-2.3078,-2.3078,0.0,0.0,0.0,0.0,0.0,0.0,0.0,0.0,0.0,0.0,0.0,0.0,-2.5312,-2.5312,0.0,0.0,0.0,0.0,0.0,0.0,-2.6154,-2.631,-2.7308,0.0,0.0,0.0,0.0,0.0,0.0,0.0,0.0,0.0,-2.851,-2.851,-2.851,0.0,-2.851,-2.851,-2.851,-2.851,-2.851,0.0,0.0,-2.851,-2.8546,-2.8703,-2.9184,-2.934,-2.9496,-2.9977,0.0,-2.9508,-2.9989,-3.0086,-3.0242,-3.0766,-3.1284,-3.1633,-3.1633,-3.1681,-3.1705,-3.1705,-3.2599,-3.3284,-3.3284,0.0,0.0,-3.4775,-3.3918,-3.335,-3.335,-3.2336,-3.1779,-3.188,-3.188,-3.188,-3.188,-3.1779,-3.1268,-3.0224,-3.0026,-2.9418,-2.8451,-2.8344,-2.8291,-2.8291,-2.8291,-2.8291,-2.8291,-2.8291,-2.8291,-2.8291,-2.8291,-2.8291,-2.8291,-2.8291,-2.8291,-2.8291,-2.8291,-2.8291,-2.8281,0.0,0.0,0.0,0.0,0.0,0.0,-2.1553,-2.1491,-2.1491,-2.1491,-2.2082,-2.2494,-2.2494,-2.2854,-2.3108,-2.3108,0.0,0.0,0.0,0.0,0.0,0.0,0.0,0.0,0.0,0.0,-2.5312,-2.5312,-2.5312,0.0,0.0,0.0,0.0,0.0,0.0,-2.5793,-2.6129,-2.6562,0.0,0.0,0.0,0.0,0.0,0.0,0.0,0.0,0.0,0.0,-2.851,-2.851,-2.851,0.0,-2.851,-2.851,0.0,0.0,-2.851,-2.851,-2.851,-2.851,-2.8558,-2.8775,-2.8823,-2.8883,-2.9088,0.0,-2.9448,-2.9977,-3.0338,-3.0766,-3.1296,-3.1573,-3.1705,-3.1705,-3.1193,-3.1003,-3.1617,-3.2118,-3.2359,-3.23,-3.32,0.0,0.0,0.0,-3.1931,-3.1257,-3.0794,-3.0287,-2.9628,-3.0856,-3.1575,-3.1575,-3.0959,-3.0338,-2.9922,-2.926,-2.8698,-2.8291,-2.8291,-2.8291,-2.8291,-2.8291,-2.8291,-2.8291,-2.8291,-2.8291,-2.8291,-2.8291,-2.8291,-2.8291,-2.8291,-2.8291,-2.8291,-2.8291,-2.8291,-2.8291,0.0,0.0,0.0,0.0,0.0,-2.1507,-2.0892,-2.0805,-2.0805,-2.0805,-2.1553,-2.2101,-2.2101,-2.2689,-2.3005,-2.2811,-2.2975,0.0,0.0,0.0,0.0,0.0,0.0,0.0,0.0,0.0,-2.5155,-2.5312,-2.5312,-2.5312,0.0,0.0,-2.5312,-2.5312,0.0,0.0,0.0,0.0,0.0,0.0,0.0,0.0,0.0,0.0,0.0,0.0,0.0,0.0,0.0,0.0,0.0,0.0,0.0,0.0,-2.8179,0.0,-2.851,-2.851,-2.851,-2.851,-2.851,-2.851,-2.8299,-2.8179,0.0,0.0,-2.9148,-2.9935,-3.0549,-3.1079,-3.1609,-3.1472,-3.125,-3.125,-3.0396,-2.9977,-3.0722,-3.1112,-3.1267,-3.116,0.0,-3.2437,-3.1677,-3.1319,-3.065,-2.9513,-2.9418,-2.9112,-2.8344,-2.9785,-3.0598,-3.0598,-2.9828,-2.9418,-2.9418,-2.8698,-2.8291,-2.8291,-2.8291,-2.8291,-2.8291,-2.8291,-2.8291,-2.8291,-2.8291,-2.8291,-2.8291,-2.8291,-2.8291,-2.8291,-2.8291,-2.8291,-2.8291,-2.8291,-2.8291,-2.8291,0.0,0.0,0.0,0.0,0.0,0.0,-2.0172,-2.0096,-2.0096,-2.0096,-2.1259,-2.2101,-2.2101,-2.2689,-2.2811,-2.2175,-2.272,0.0,0.0,0.0,0.0,0.0,0.0,0.0,0.0,0.0,-2.4748,-2.5312,-2.5312,-2.5312,-2.5312,-2.5312,-2.5312,-2.5312,0.0,0.0,0.0,0.0,0.0,0.0,0.0,0.0,0.0,0.0,0.0,0.0,0.0,0.0,0.0,0.0,0.0,0.0,0.0,0.0,0.0,0.0,-2.851,-2.851,-2.851,-2.851,-2.851,-2.851,-2.7846,-2.7429,-2.8299,-2.8245,-2.8417,-2.9798,-3.0549,-3.1079,-3.1609,-3.0869,-3.0215,-3.0215,-2.9372,-2.8727,-2.8727,-2.9521,-3.0133,0.0,-3.0985,-3.1626,-3.1575,-3.0598,-2.946,-2.8398,-2.8291,-2.8291,-2.8291,-2.8291,-2.8344,-2.8344,-2.8344,-2.8291,-2.8291,-2.8291,-2.8291,-2.8291,-2.8291,-2.8291,-2.8291,-2.8291,-2.8291,-2.8291,-2.8291,-2.8291,-2.8291,-2.8291,-2.8291,-2.8291,-2.8291,-2.8291,-2.8291,-2.8291,-2.8291,-2.8291,0.0,0.0,0.0,0.0,0.0,0.0,0.0,-1.9429,-1.9429,-1.9429,-2.0193,-2.073,-2.073,-2.1333,-2.1659,-2.1439,-2.2445,0.0,0.0,0.0,0.0,0.0,0.0,0.0,0.0,0.0,-2.4107,-2.4736,-2.5131,-2.5312,-2.5312,-2.5312,-2.5312,-2.5276,-2.4743,-2.4492,0.0,0.0,0.0,0.0,0.0,0.0,0.0,0.0,0.0,0.0,0.0,0.0,0.0,0.0,0.0,0.0,0.0,0.0,0.0,-2.6577,-2.7539,-2.8391,-2.7765,-2.7603,-2.7765,-2.8339,-2.7377,-2.6505,-2.7389,-2.8101,-2.8494,-2.8243,-2.9936,-3.1092,-2.9863,-2.9932,-2.9977,-2.928,-2.8355,-2.7934,0.0,0.0,0.0,-2.9024,-2.923,-2.9313,0.0,-2.9006,-2.8654,-2.8344,-2.8291,-2.8291,-2.8291,-2.8291,-2.8291,-2.8291,-2.8291,-2.8291,-2.8291,-2.8291,-2.8291,-2.8291,-2.8291,-2.8291,-2.8291,-2.8291,-2.8291,-2.8291,-2.8291,-2.8291,-2.8291,-2.8291,-2.8291,-2.8291,-2.8291,-2.8291,-2.8291,-2.8291,-2.8291,-2.8291,0.0,0.0,0.0,0.0,0.0,0.0,0.0,-1.9108,-1.9108,-1.9108,-1.9682,-2.0096,-2.0096,-2.0709,-2.0996,-2.0741,-2.1721,0.0,0.0,0.0,0.0,0.0,0.0,0.0,0.0,-2.2685,-2.319,-2.4128,-2.4614,-2.4862,-2.4862,-2.4862,-2.4719,-2.442,-2.3902,-2.3672,0.0,0.0,0.0,0.0,0.0,0.0,-2.4616,0.0,0.0,0.0,0.0,0.0,0.0,0.0,0.0,0.0,0.0,0.0,0.0,0.0,-2.6329,-2.7377,-2.6835,-2.667,-2.6794,-2.7336,-2.637,0.0,-2.6699,-2.7359,-2.7668,-2.7534,-2.915,-3.017,-2.8912,-2.8819,-2.8727,-2.8215,-2.7189,-2.6733,-2.7484,-2.7752,-2.7955,-2.8247,-2.8213,-2.813,-2.813,-2.813,-2.8077,-2.797,-2.8077,-2.8077,-2.797,-2.797,-2.797,-2.797,-2.8184,-2.8291,-2.8291,-2.8291,-2.8237,-2.8121,-2.8237,-2.8237,-2.8121,-2.8237,-2.8291,-2.8291,-2.8291,-2.8291,0.0,-2.8291,-2.8237,-2.813,-2.813,-2.8077,-2.797,-2.797,-2.797,-2.797,0.0,0.0,0.0,0.0,0.0,0.0,0.0,-1.9129,-1.9139,-1.9108,-1.9649,-2.0042,-2.0042,-2.0581,-2.0709,-2.0063,0.0,0.0,0.0,0.0,0.0,0.0,0.0,0.0,-2.1758,-2.1562,-2.2049,-2.3363,-2.3856,-2.4072,-2.4011,-2.4084,-2.372,-2.2995,-2.2957,-2.2942,-2.2955,-2.3047,-2.3606,-2.4342,-2.4472,-2.4456,0.0,0.0,0.0,0.0,0.0,0.0,0.0,0.0,0.0,0.0,0.0,0.0,0.0,0.0,0.0,0.0,0.0,-2.5663,-2.5735,-2.5777,-2.5073,-2.4741,-2.6098,-2.6133,0.0,-2.7454,-2.8204,-2.868,-2.8495,-2.7568,-2.6867,-2.7057,-2.6071,-2.5382,-2.5586,-2.6164,-2.69,-2.7756,-2.7853,-2.7853,-2.7853,-2.7853,-2.7745,-2.7431,-2.7691,-2.7745,-2.7431,-2.7377,-2.7377,-2.7377,-2.7916,-2.8237,-2.8237,-2.8237,-2.813,-2.7853,-2.813,-2.813,-2.7853,-2.813,-2.8237,-2.8237,-2.8237,-2.8237,-2.8237,-2.8237,-2.8077,-2.7853,-2.7853,-2.7691,-2.7377,-2.7377,-2.7377,-2.7377,0.0,0.0,0.0,0.0,0.0,0.0,0.0,0.0,0.0,0.0,-1.9231,-1.933,-1.933,-1.9495,-1.9528,0.0,0.0,0.0,0.0,0.0,0.0,0.0,0.0,0.0,-2.0489,-2.0644,-2.1161,-2.1959,-2.3398,-2.3829,-2.3279,-2.3829,-2.372,-2.2957,-2.236,-2.2258,-2.2569,-2.2984,-2.3431,-2.3918,-2.4313,-2.4069,0.0,0.0,0.0,0.0,-2.3647,-2.3724,0.0,0.0,0.0,0.0,0.0,0.0,0.0,0.0,-2.356,-2.3724,-2.3724,0.0,-2.4956,-2.5621,-2.4606,-2.3801,0.0,-2.5691,-2.5877,-2.5795,-2.7336,-2.8215,-2.6706,-2.66,-2.6542,-2.5849,-2.5528,-2.5235,-2.5088,-2.5803,-2.6589,-2.7435,-2.7539,-2.7539,-2.7539,-2.7539,-2.7485,-2.7431,-2.7485,-2.7485,-2.7377,-2.7377,-2.7377,-2.7377,-2.7539,-2.7593,-2.7593,-2.7593,-2.7593,-2.7539,-2.7593,-2.7593,-2.7539,-2.7593,-2.7593,-2.7593,-2.7593,-2.7593,-2.7593,-2.7593,-2.7593,-2.7539,-2.7539,-2.7485,-2.7377,-2.7377,-2.7377,-2.7377,0.0,0.0,0.0,0.0,0.0,0.0,0.0,0.0,0.0,0.0,0.0,0.0,0.0,0.0,0.0,0.0,0.0,0.0,0.0,0.0,0.0,0.0,0.0,-1.8496,-1.9573,-1.984,-2.0303,-2.1026,-2.2393,-2.2835,-2.2472,-2.2872,-2.2649,-2.188,-2.1423,-2.1455,-2.1879,-2.2413,-2.2806,-2.3207,-2.3682,0.0,0.0,0.0,0.0,0.0,-2.3091,-2.3091,0.0,-2.3091,-2.3091,-2.3091,0.0,0.0,0.0,0.0,-2.3091,-2.3091,-2.3091,-2.3474,-2.3983,-2.4445,-2.4005,-2.3634,-2.4396,-2.4981,-2.5292,-2.5082,-2.6036,-2.6675,-2.5664,-2.5654,-2.5645,-2.5333,-2.5079,-2.5024,-2.5261,-2.5965,-2.6659,-2.714,-2.7206,-2.7206,-2.7206,-2.7206,-2.7161,-2.7062,-2.7161,-2.7161,-2.7062,-2.7008,-2.7008,-2.7008,-2.7008,-2.7171,-2.7377,-2.7377,-2.7323,-2.7206,-2.7323,-2.7323,-2.7206,-2.7323,-2.7377,-2.7377,-2.7377,-2.7377,-2.7377,-2.7377,-2.7323,-2.7206,-2.7206,-2.7161,-2.7008,-2.7008,-2.7008,-2.7008,0.0,0.0,0.0,0.0,0.0,0.0,0.0,0.0,0.0,0.0,0.0,0.0,0.0,0.0,0.0,0.0,0.0,0.0,0.0,0.0,0.0,0.0,0.0,-1.8269,-1.8811,-1.9147,-1.964,-2.0303,-2.1321,-2.1728,-2.1614,-2.1728,-2.1357,-2.0605,-2.0674,-2.0918,-2.1327,-2.1797,-2.2217,-2.2637,-2.2955,0.0,0.0,0.0,0.0,0.0,0.0,0.0,0.0,-2.3091,-2.3091,-2.3091,-2.3091,0.0,0.0,0.0,0.0,0.0,-2.3101,-2.3091,-2.3057,-2.3101,-2.3467,-2.3851,-2.3984,-2.4343,-2.4737,-2.4846,-2.4883,-2.499,-2.5186,-2.4833,-2.4637,-2.5088,-2.4841,-2.4852,-2.5685,-2.6299,-2.6755,-2.6943,-2.6944,-2.6944,-2.6944,-2.6944,-2.6836,-2.6646,-2.6791,-2.6836,-2.6591,-2.6591,-2.6591,-2.6591,-2.6591,-2.68,-2.7269,-2.7269,-2.7161,-2.6935,-2.7161,-2.7161,-2.6935,-2.7161,-2.7269,-2.7269,-2.7269,-2.7269,-2.7269,-2.7269,-2.7161,-2.6944,-2.6944,-2.6791,-2.6591,-2.6591,-2.6591,-2.6591,0.0,0.0,0.0,0.0,0.0,0.0,0.0,0.0,0.0,0.0,0.0,0.0,0.0,0.0,0.0,0.0,0.0,0.0,0.0,0.0,0.0,-1.8134,-1.8042,-1.8042,-1.8134,-1.8919,-1.936,-1.9459,-2.1022,-2.1461,-2.0789,-2.1461,-2.1357,-2.0615,-2.0967,-2.1377,-2.1816,-2.2236,-2.2656,-2.3003,-2.3071,0.0,0.0,0.0,0.0,0.0,0.0,0.0,0.0,-2.3091,-2.3091,-2.3091,-2.3091,0.0,0.0,0.0,0.0,0.0,-2.3047,-2.2969,-2.2882,-2.3057,-2.3467,-2.3851,-2.3984,-2.4343,-2.4737,-2.4846,-2.4883,-2.4932,-2.4932,-2.4686,-2.4538,-2.4587,-2.4696,-2.5002,-2.5722,-2.5974,-2.6275,-2.6645,-2.6636,-2.6636,-2.6636,-2.6636,-2.6636,-2.6591,-2.6636,-2.6636,-2.6591,-2.6591,-2.6591,-2.6591,-2.6591,-2.6646,-2.6745,-2.6745,-2.6691,-2.6636,-2.6691,-2.6691,-2.6636,-2.6691,-2.6745,-2.6745,-2.6745,-2.6745,-2.6745,-2.6745,-2.6691,-2.6636,-2.6636,-2.6636,-2.6591,-2.6591,-2.6591,-2.6591,0.0,0.0,0.0,0.0,0.0,0.0,0.0,0.0,0.0,0.0,0.0,0.0,0.0,0.0,0.0,0.0,0.0,0.0,0.0,0.0,0.0,-1.8008,-1.8008,-1.8081,-1.8315,-1.8965,-1.9404,-1.9619,-2.0663,-2.0982,-2.0605,-2.0982,-2.1073,-2.0937,-2.1103,-2.1561,-2.2236,-2.2432,-2.2711,-2.3091,0.0,0.0,0.0,0.0,0.0,0.0,0.0,0.0,0.0,0.0,-2.3091,-2.3091,-2.3091,0.0,0.0,0.0,0.0,0.0,-2.2925,-2.275,-2.2675,-2.2984,-2.3483,-2.385,-2.369,-2.4136,-2.4558,-2.4501,-2.4498,-2.4538,-2.4686,-2.4489,-2.4341,-2.4341,-2.4785,-2.5212,-2.5552,-2.601,-2.6371,-2.6564,-2.6591,-2.6591,-2.6591,-2.6591,-2.6591,-2.6591,-2.6591,-2.6591,-2.6591,-2.6591,-2.6591,-2.6591,-2.6591,-2.6591,-2.6591,-2.6591,-2.6591,-2.6591,-2.6591,-2.6591,-2.6591,-2.6591,-2.6591,-2.6591,-2.6591,-2.6591,-2.6591,-2.6591,-2.6591,-2.6591,-2.6591,-2.6591,-2.6591,-2.6591,-2.6591,-2.6591,0.0,0.0,0.0,0.0,0.0,0.0,0.0,0.0,0.0,0.0,0.0,0.0,0.0,0.0,0.0,0.0,0.0,0.0,0.0,0.0,-1.8008,-1.8008,-1.8105,-1.8266,-1.8598,-1.9062,-1.9492,-1.9912,-2.0352,-2.0605,-2.0605,-2.0713,-2.0908,-2.121,-2.1405,-2.1894,-2.2519,-2.2617,-2.2799,-2.3091,0.0,0.0,0.0,0.0,0.0,0.0,0.0,0.0,0.0,0.0,0.0,0.0,0.0,0.0,0.0,-2.2969,-2.2838,-2.2715,-2.2715,-2.2596,-2.2525,-2.2836,-2.3452,-2.384,-2.3495,-2.3977,-2.444,-2.4251,-2.4202,-2.4251,-2.439,-2.4291,-2.4238,-2.4339,-2.4955,-2.5451,-2.5543,-2.6133,-2.6591,-2.6591,-2.6591,-2.6591,-2.6591,-2.6591,-2.6591,-2.6591,-2.6591,-2.6591,-2.6591,-2.6591,-2.6591,-2.6591,-2.6591,-2.6591,-2.6591,-2.6591,-2.6591,-2.6591,-2.6591,-2.6591,-2.6591,-2.6591,-2.6591,-2.6591,-2.6591,-2.6591,-2.6591,-2.6591,-2.6591,-2.6591,-2.6591,-2.6591,-2.6591,-2.6591,-2.6591,-2.6591,0.0,0.0,0.0,0.0,0.0,0.0,0.0,0.0,0.0,0.0,0.0,0.0,0.0,0.0,0.0,0.0,0.0,0.0,0.0,0.0,-1.8008,-1.8008,-1.8354,-1.8568,-1.8598,-1.9062,-1.9492,-1.9912,-2.0352,-2.0605,-2.0615,-2.0986,-2.1161,-2.1229,-2.207,-2.2451,-2.2539,-2.2886,-2.3062,-2.3091,-2.3091,0.0,0.0,0.0,0.0,0.0,0.0,0.0,0.0,0.0,0.0,0.0,0.0,0.0,-2.3003,-2.2574,-2.2441,-2.2441,-2.2441,-2.2537,-2.2711,-2.2729,-2.3231,-2.3739,-2.385,-2.4173,-2.444,-2.4251,-2.4202,-2.4202,-2.4202,-2.4202,-2.433,-2.4725,-2.5148,-2.5552,-2.592,-2.6307,-2.6591,-2.6591,-2.6591,-2.6591,-2.6591,-2.6591,-2.6591,-2.6591,-2.6591,-2.6591,-2.6591,-2.6591,-2.6591,-2.6591,-2.6591,-2.6591,-2.6591,-2.6591,-2.6591,-2.6591,-2.6591,-2.6591,-2.6591,-2.6591,-2.6591,-2.6591,-2.6591,-2.6591,-2.6591,-2.6591,-2.6591,-2.6591,-2.6591,-2.6591,-2.6591,-2.6591,-2.6591,-2.6591,0.0,0.0,0.0,0.0,0.0,0.0,0.0,0.0,0.0,0.0,0.0,0.0,0.0,0.0,0.0,0.0,0.0,0.0,0.0,-1.8008,-1.8008,-1.8008,-1.8383,-1.8724,-1.9033,-1.9463,-1.9893,-2.0361,-2.0517,-2.0605,-2.0615,-2.1025,-2.1377,-2.167,-2.2256,-2.2656,-2.2867,-2.3033,-2.3091,-2.3091,-2.3091,-2.3091,0.0,0.0,0.0,0.0,0.0,0.0,0.0,0.0,-2.3013,-2.2882,-2.2838,-2.275,-2.2618,-2.2441,-2.2309,-2.2276,-2.253,-2.2526,-2.2585,-2.3054,-2.3389,-2.3594,-2.3655,-2.3996,-2.4301,-2.4202,-2.4202,-2.4202,-2.4202,-2.4202,-2.4339,-2.4711,-2.5115,-2.5561,-2.5957,-2.6379,-2.6591,-2.6591,-2.6591,-2.6591,-2.6591,-2.6591,-2.6591,-2.6591,-2.6591,-2.6591,-2.6591,-2.6591,-2.6591,-2.6591,-2.6591,-2.6591,-2.6591,-2.6591,-2.6591,-2.6591,-2.6591,-2.6591,-2.6591,-2.6591,-2.6591,-2.6591,-2.6591,-2.6591,-2.6591,-2.6591,-2.6591,-2.6591,-2.6591,-2.6591,-2.6591,-2.6591,-2.6591,-2.6591,0.0,0.0,0.0,0.0,0.0,0.0,0.0,0.0,0.0,0.0,0.0,0.0,0.0,0.0,0.0,0.0,0.0,0.0,-1.8408,-1.8408,-1.8408,-1.8408,-1.8818,-1.9143,-1.9482,-1.9902,-2.0264,-2.0605,-2.0605,-2.0674,-2.0791,-2.123,-2.167,-2.21,-2.2519,-2.2828,-2.3091,-2.3091,-2.3091,-2.3091,-2.3091,-2.3091,0.0,0.0,0.0,0.0,0.0,0.0,0.0,0.0,-2.2925,-2.275,-2.2627,-2.2485,-2.2353,-2.222,-2.2132,-2.2162,-2.2342,-2.2419,-2.2611,-2.3169,-2.3499,-2.3739,-2.3739,-2.395,-2.4202,-2.4202,-2.4202,-2.4202,-2.4202,-2.4312,-2.4542,-2.4904,-2.535,-2.5745,-2.6149,-2.6408,-2.6591,-2.6591,-2.6591,-2.6591,-2.6591,-2.6591,-2.6591,-2.6591,-2.6591,-2.6591,-2.6591,-2.6591,-2.6591,-2.6591,-2.6591,-2.6591,-2.6591,-2.6591,-2.6591,-2.6591,-2.6591,-2.6591,-2.6591,-2.6591,-2.6591,-2.6591,-2.6591,-2.6591,-2.6591,-2.6591,-2.6591,-2.6591,-2.6591,-2.6591,-2.6591,-2.6591,-2.6591,-2.6591,0.0,0.0,0.0,0.0,0.0,0.0,0.0,0.0,0.0,0.0,0.0,0.0,0.0,0.0,0.0,0.0,0.0,0.0,-1.9287,-1.9287,-1.9287,-1.9287,-1.9697,-1.9912,-1.9912,-2.038,-2.0605,-2.0605,-2.0605,-2.0801,-2.121,-2.168,-2.2119,-2.2529,-2.2906,-2.3091,-2.3091,-2.3091,-2.3091,-2.3091,-2.3091,-2.3091,-2.3091,0.0,0.0,0.0,0.0,0.0,0.0,0.0,-2.2803,-2.2715,-2.223,-2.222,-2.2309,-2.182,-2.1874,-2.2052,-2.1794,-2.2291,-2.2904,-2.2922,-2.3565,-2.4202,-2.4202,-2.4202,-2.4202,-2.4202,-2.4202,-2.4202,-2.4202,-2.4551,-2.4913,-2.5307,-2.5754,-2.6159,-2.6527,-2.6591,-2.6591,-2.6591,-2.6591,-2.6591,-2.6591,-2.6591,-2.6591,-2.6591,-2.6591,-2.6591,-2.6591,-2.6591,-2.6591,-2.6591,-2.6591,-2.6591,-2.6591,-2.6591,-2.6591,-2.6591,-2.6591,-2.6591,-2.6591,-2.6591,-2.6591,-2.6591,-2.6591,-2.6591,-2.6591,-2.6591,-2.6591,-2.6591,-2.6591,-2.6591,-2.6591,-2.6591,-2.6591,-2.6591,0.0,0.0,0.0,0.0,0.0,0.0,0.0,0.0,0.0,0.0,0.0,0.0,0.0,0.0,0.0,0.0,0.0,0.0,-1.9287,-1.9287,-1.9287,-1.9287,-1.9697,-1.9912,-1.9912,-2.038,-2.0605,-2.0605,-2.0879,-2.1064,-2.121,-2.1982,-2.2393,-2.2529,-2.2906,-2.3091,-2.3091,-2.3091,-2.3091,-2.3091,-2.3091,-2.3091,-2.3091,0.0,0.0,0.0,0.0,0.0,0.0,0.0,0.0,0.0,-2.2141,-2.2008,-2.1865,-2.1741,-2.1785,-2.1905,-2.2391,-2.2721,-2.3041,-2.3657,-2.4027,-2.4202,-2.4202,-2.4202,-2.4202,-2.4202,-2.4202,-2.4202,-2.4202,-2.4551,-2.4913,-2.5307,-2.5754,-2.6159,-2.6527,-2.6591,-2.6591,-2.6591,-2.6591,-2.6591,-2.6591,-2.6591,-2.6591,-2.6591,-2.6591,-2.6591,-2.6591,-2.6591,-2.6591,-2.6591,-2.6591,-2.6591,-2.6591,-2.6591,-2.6591,-2.6591,-2.6591,-2.6591,-2.6591,-2.6591,-2.6591,-2.6591,-2.6591,-2.6591,-2.6591,-2.6591,-2.6591,-2.6591,-2.6591,-2.6591,-2.6591,-2.6591,-2.6591,-2.6591,0.0,0.0,0.0,0.0,0.0,0.0,0.0,0.0,0.0,0.0,0.0,0.0,0.0,0.0,0.0,0.0,0.0,0.0,0.0,-1.9832,-1.9832,-1.9832,-2.0039,-2.0176,-2.0176,-2.0468,-2.0693,-2.083,-2.1064,-2.1366,-2.1707,-2.2266,-2.2607,-2.273,-2.2984,-2.3091,-2.3091,-2.3091,-2.3091,-2.3091,-2.3091,-2.3091,-2.3091,0.0,0.0,0.0,0.0,0.0,0.0,0.0,0.0,0.0,-2.1963,-2.183,-2.1696,-2.1696,-2.1696,-2.1797,-2.2291,-2.2657,-2.3023,-2.3556,-2.3914,-2.4202,-2.4202,-2.4202,-2.4202,-2.4202,-2.4202,-2.4257,-2.4422,-2.479,-2.5142,-2.5589,-2.6002,-2.6298,-2.6554,-2.6591,-2.6591,-2.6591,-2.6591,-2.6591,-2.6591,-2.6591,-2.6591,-2.6591,-2.6591,-2.6591,-2.6591,-2.6591,-2.6591,-2.6591,-2.6591,-2.6591,-2.6591,-2.6591,-2.6591,-2.6591,-2.6591,-2.6591,-2.6591,-2.6591,-2.6591,-2.6591,-2.6591,-2.6591,-2.6591,-2.6591,-2.6591,-2.6591,-2.6591,-2.6591,-2.6591,-2.6591,-2.6591,-2.6591,0.0,0.0,0.0,0.0,0.0,0.0,0.0,0.0,0.0,0.0,0.0,0.0,0.0,0.0,0.0,0.0,0.0,0.0,0.0,0.0,-2.0605,-2.0605,-2.0605,-2.0605,-2.0605,-2.0644,-2.084,-2.1249,-2.1249,-2.1668,-2.251,-2.2549,-2.273,-2.3091,-2.3091,-2.3091,-2.3091,-2.3091,-2.3091,-2.3091,-2.3091,-2.3057,-2.3057,-2.3047,0.0,0.0,0.0,0.0,0.0,0.0,0.0,0.0,-2.1785,-2.1696,-2.1696,-2.1696,-2.1696,-2.1696,-2.1733,-2.2318,-2.2922,-2.295,-2.3584,-2.4202,-2.4202,-2.4202,-2.4202,-2.4202,-2.4202,-2.433,-2.4702,-2.5157,-2.5552,-2.5947,-2.6316,-2.6591,-2.6591,-2.6591,-2.6591,-2.6591,-2.6591,-2.6591,-2.6591,-2.6591,-2.6591,-2.6591,-2.6591,-2.6591,-2.6591,-2.6591,-2.6591,-2.6591,-2.6591,-2.6591,-2.6591,-2.6591,-2.6591,-2.6591,-2.6591,-2.6591,-2.6591,-2.6591,-2.6591,-2.6591,-2.6591,-2.6591,-2.6591,-2.6591,-2.6591,-2.6591,-2.6591,-2.6591,-2.6591,-2.6591,-2.6591,-2.6591,0.0,0.0,0.0,0.0,0.0,0.0,0.0,0.0,0.0,0.0,0.0,0.0,0.0,0.0,0.0,0.0,0.0,0.0,0.0,0.0,-2.0605,-2.0605,-2.0605,-2.0605,-2.0605,-2.0908,-2.1309,-2.1748,-2.1748,-2.2012,-2.2519,-2.2808,-2.3013,-2.3091,-2.3091,-2.3091,-2.3091,-2.3091,-2.3091,-2.3101,-2.2925,-2.2838,-2.2838,-2.2618,-2.252,0.0,0.0,0.0,0.0,0.0,0.0,0.0,-2.1741,-2.1696,-2.1696,-2.1696,-2.1696,-2.176,-2.2071,-2.2519,-2.2986,-2.3288,-2.3785,-2.4202,-2.4202,-2.4202,-2.4202,-2.4202,-2.4202,-2.433,-2.4702,-2.5157,-2.5552,-2.5947,-2.6316,-2.6591,-2.6591,-2.6591,-2.6591,-2.6591,-2.6591,-2.6591,-2.6591,-2.6591,-2.6591,-2.6591,-2.6591,-2.6591,-2.6591,-2.6591,-2.6591,-2.6591,-2.6591,-2.6591,-2.6591,-2.6591,-2.6591,-2.6591,-2.6591,-2.6591,-2.6591,-2.6591,-2.6591,-2.6591,-2.6591,-2.6591,-2.6591,-2.6591,-2.6591,-2.6591,-2.6591,-2.6591,-2.6591,-2.6591,-2.6591,-2.6591,0.0,0.0,0.0,0.0,0.0,0.0,0.0,0.0,0.0,0.0,0.0,0.0,0.0,0.0,0.0,0.0,0.0,0.0,0.0,0.0,-2.0605,-2.0605,-2.0605,-2.0703,-2.0879,-2.1073,-2.1502,-2.2187,-2.2187,-2.2402,-2.2779,-2.2994,-2.3091,-2.3091,-2.3091,-2.3091,-2.3091,-2.3013,-2.2969,-2.2925,-2.2706,-2.2618,-2.2574,-2.2441,-2.2353,-2.2274,-2.2274,0.0,0.0,0.0,0.0,0.0,0.0,0.0,-2.1696,-2.1696,-2.1696,-2.1733,-2.1943,-2.2446,-2.305,-2.3684,-2.3996,-2.4202,-2.4202,-2.4202,-2.4202,-2.4202,-2.4202,-2.4385,-2.5001,-2.5286,-2.5564,-2.6214,-2.6444,-2.6591,-2.6591,-2.6591,-2.6591,-2.6591,-2.6591,-2.6591,-2.6591,-2.6591,-2.6591,-2.6591,-2.6591,-2.6591,-2.6591,-2.6591,-2.6591,-2.6591,-2.6591,-2.6591,-2.6591,-2.6591,-2.6591,-2.6591,-2.6591,-2.6591,-2.6591,-2.6591,-2.6591,-2.6591,-2.6591,-2.6591,-2.6591,-2.6591,-2.6591,-2.6591,-2.6591,-2.6591,-2.6591,-2.6591,-2.6591,-2.6537,0.0,0.0,0.0,0.0,0.0,0.0,0.0,0.0,0.0,0.0,0.0,0.0,0.0,0.0,0.0,0.0,0.0,0.0,0.0,0.0,0.0,-2.0605,-2.0674,-2.0859,-2.119,-2.1337,-2.1765,-2.251,-2.2588,-2.275,-2.3091,-2.3091,-2.3091,-2.3091,-2.3091,-2.3091,-2.3057,-2.2882,-2.275,-2.2715,-2.2441,-2.2353,-2.2353,-2.2309,-2.2176,-2.2052,-2.2052,-2.1874,-2.1696,-2.1696,0.0,0.0,0.0,0.0,-2.1696,-2.1696,-2.1696,-2.1705,-2.1778,-2.2391,-2.3187,-2.4018,-2.4202,-2.4202,-2.4202,-2.4202,-2.4202,-2.4202,-2.4202,-2.4431,-2.5185,-2.5378,-2.561,-2.6362,-2.6536,-2.6591,-2.6591,-2.6591,-2.6591,-2.6591,-2.6591,-2.6591,-2.6591,-2.6591,-2.6591,-2.6591,-2.6591,-2.6591,-2.6591,-2.6591,-2.6591,-2.6591,-2.6591,-2.6591,-2.6591,-2.6418,-2.6418,-2.6591,-2.6591,-2.6591,-2.6591,-2.6591,-2.6591,-2.6591,-2.6591,-2.6591,-2.6591,-2.6591,-2.6591,-2.6591,-2.6591,-2.6473,-2.6309,-2.6309,-2.6136,-2.5852,0.0,0.0,0.0,0.0,0.0,0.0,0.0,0.0,0.0,0.0,0.0,0.0,0.0,0.0,0.0,0.0,0.0,0.0,-2.0605,0.0,0.0,-2.0605,-2.0937,-2.1132,-2.119,-2.1921,-2.2393,-2.251,-2.2838,-2.3042,-2.3091,-2.3091,-2.3091,-2.3091,-2.3091,-2.3013,-2.2838,-2.2794,-2.2671,-2.2441,-2.223,-2.2141,-2.2097,-2.1865,-2.1785,-2.1731,-2.1731,-2.1731,-2.1696,-2.1696,-2.1696,0.0,0.0,0.0,-2.1696,-2.1696,-2.1696,-2.1769,-2.2108,-2.2794,-2.3526,-2.4082,-2.4202,-2.4202,-2.4202,-2.4202,-2.4202,-2.4202,-2.4202,-2.4349,-2.4826,-2.5142,-2.5571,-2.6021,-2.6353,-2.6591,-2.6591,-2.6591,-2.6591,-2.6591,-2.6591,-2.6591,-2.6591,-2.6591,-2.6591,-2.6591,-2.6591,-2.6591,-2.6591,-2.6591,-2.6591,-2.6591,-2.6591,-2.6591,-2.6591,-2.5569,-2.5569,-2.6591,-2.6591,-2.6591,-2.6591,-2.6591,-2.6591,-2.6591,-2.6591,-2.6591,-2.6591,-2.6591,-2.6591,-2.6591,-2.6591,-2.5962,-2.5064,-2.5064,-2.439,-2.3488,0.0,0.0,0.0,0.0,0.0,0.0,0.0,0.0,0.0,0.0,0.0,0.0,0.0,0.0,0.0,-2.0605,-2.0605,-2.0605,-2.0605,-2.0605,-2.0713,-2.0928,-2.1093,-2.1424,-2.1943,-2.2324,-2.2627,-2.2818,-2.3003,-2.3091,-2.3091,-2.3091,-2.3091,-2.3091,-2.2969,-2.2882,-2.2803,-2.2539,-2.2362,-2.222,-2.1963,-2.1874,-2.1874,-2.1741,-2.1696,-2.1696,-2.1696,-2.1696,-2.1696,-2.1696,-2.1696,-2.1696,-2.1696,0.0,0.0,0.0,-2.1696,-2.1778,-2.2172,-2.2712,-2.3261,0.0,-2.4036,-2.4202,-2.4202,-2.4202,-2.4202,-2.4202,-2.4202,-2.433,-2.4702,-2.4922,-2.5295,-2.5911,-2.6168,-2.6316,-2.6554,-2.6591,-2.6591,-2.6591,-2.6591,-2.6591,-2.6591,-2.6591,-2.6591,-2.6591,-2.6591,-2.6591,-2.6591,-2.6591,-2.6591,-2.6591,-2.6591,-2.63,-2.5578,-2.5064,-2.4723,-2.4556,-2.4556,-2.4556,-2.4612,-2.5293,-2.5962,-2.6591,-2.6591,-2.6591,-2.6591,-2.6591,-2.6591,-2.6527,-2.5852,-2.5284,-2.4723,-2.4047,-2.3488,-2.2918,0.0,0.0,0.0,0.0,0.0,0.0,0.0,0.0,0.0,0.0,0.0,0.0,0.0,0.0,0.0,0.0,-2.0605,-2.0605,-2.0605,-2.0713,-2.0889,-2.1181,-2.1405,-2.1814,-2.25,-2.2617,-2.2779,-2.3091,-2.3091,-2.3091,-2.3091,-2.3047,-2.3013,-2.3013,-2.2891,-2.2715,-2.2583,-2.223,-2.2052,-2.1963,-2.1785,-2.1696,-2.1696,-2.1696,-2.1696,-2.1696,-2.1696,-2.1696,-2.1696,-2.1696,-2.1696,-2.1696,-2.1696,-2.1696,0.0,0.0,0.0,-2.1906,-2.2199,0.0,-2.3123,-2.3425,-2.3849,-2.4202,0.0,-2.4202,-2.4202,-2.4202,-2.4202,-2.4293,-2.4615,-2.4711,-2.4977,-2.5617,-2.58,-2.6012,-2.6371,-2.6435,-2.6472,-2.6582,-2.6591,-2.6591,-2.6591,-2.6591,-2.6591,-2.6591,-2.6591,-2.6591,-2.6591,-2.6591,-2.6591,-2.6591,-2.6591,-2.6026,-2.4834,-2.4501,-2.3704,-2.2402,-2.2741,-2.2854,-2.2797,-2.3695,-2.465,-2.5615,-2.63,-2.6418,-2.6136,-2.6136,-2.5962,-2.5578,-2.4667,-2.4167,-2.3768,-2.2797,-2.2232,-2.1843,0.0,0.0,0.0,0.0,0.0,0.0,0.0,0.0,0.0,0.0,0.0,0.0,-2.0605,-2.0605,-2.0605,-2.0605,-2.0605,-2.0605,-2.0605,-2.0967,-2.1171,-2.119,-2.197,0.0,-2.251,-2.2857,-2.3071,-2.3091,-2.3091,-2.3091,-2.3091,-2.2882,-2.2803,-2.2803,-2.2803,-2.2539,-2.2141,-2.2097,0.0,0.0,0.0,-2.1696,-2.1696,-2.1696,-2.1696,-2.1696,-2.1696,-2.1696,-2.1696,-2.1696,-2.1696,-2.1696,-2.1696,-2.1696,-2.1696,0.0,0.0,0.0,-2.2272,-2.2858,0.0,-2.3489,-2.3849,-2.4202,0.0,-2.4202,-2.4202,-2.4202,-2.4202,-2.4211,-2.4229,-2.456,-2.4794,-2.484,-2.5161,-2.5589,-2.5993,-2.6039,-2.6195,-2.6536,-2.6591,-2.6591,-2.6591,-2.6591,-2.6591,-2.6591,-2.6591,-2.6591,-2.6591,-2.6591,-2.6591,-2.6591,-2.6591,-2.6026,-2.4834,-2.3656,-2.2346,-2.0852,-2.1983,-2.2371,-2.2024,-2.2145,-2.2371,-2.2878,-2.5441,-2.5962,-2.4898,-2.4898,-2.4214,-2.3207,-2.3095,-2.2418,-2.1345,-2.0981,-2.012,-1.9049,0.0,0.0,0.0,0.0,0.0,0.0,0.0,0.0,0.0,0.0,0.0,0.0,0.0,-2.0605,-2.0605,-2.0605,-2.0605,-2.0723,-2.0977,-2.1103,-2.1434,-2.2031,-2.2353,-2.2637,-2.2867,-2.3013,-2.3091,-2.3091,-2.3091,-2.3091,-2.3091,-2.2882,-2.2715,-2.253,-2.2407,-2.2274,-2.2097,-2.1919,0.0,-2.1696,-2.1696,-2.1696,-2.1696,-2.1696,-2.1696,-2.1696,-2.1696,-2.1696,-2.1696,-2.1696,-2.1696,-2.1696,-2.1696,-2.1696,-2.1696,-2.1696,-2.1797,-2.1897,0.0,0.0,0.0,-2.305,-2.3416,-2.3831,-2.4137,-2.4202,-2.4202,-2.4202,-2.4202,-2.4202,-2.4202,-2.433,-2.4514,-2.4739,-2.4904,-2.5185,-2.558,-2.5635,-2.569,-2.5784,-2.5803,-2.5803,-2.5803,-2.6032,-2.6188,-2.6188,-2.6435,-2.6591,-2.6591,-2.6591,-2.6473,-2.63,-2.5551,-2.4069,-2.1877,-2.0637,-1.9788,-1.921,-1.9666,-1.9832,-1.9723,-2.0508,-2.0902,-2.113,-2.2886,-2.3631,-2.3648,-2.3648,-2.3376,-2.2918,-2.2135,-2.1566,-2.1117,-2.0206,-1.9461,-1.8881,0.0,0.0,0.0,0.0,0.0,0.0,0.0,0.0,0.0,-2.0819,0.0,0.0,0.0,0.0,-2.0605,-2.0605,-2.0703,-2.0918,-2.1181,-2.1463,-2.1873,-2.249,-2.2646,-2.2808,-2.3091,-2.3091,-2.3091,-2.3091,-2.3091,-2.3057,-2.3013,-2.275,-2.253,-2.2309,-2.2052,-2.1963,0.0,-2.1785,-2.1696,-2.1696,-2.1696,-2.1696,-2.1696,-2.1696,-2.1696,-2.1696,-2.1696,-2.1696,-2.1696,-2.1696,-2.1696,-2.1696,-2.1696,-2.1696,-2.1696,-2.1696,-2.1696,-2.1696,-2.1696,0.0,0.0,0.0,-2.3096,-2.3563,-2.3886,-2.4101,-2.4202,-2.4202,-2.4202,-2.4202,-2.4202,-2.4202,-2.4293,-2.4578,-2.4624,-2.4762,-2.5115,-2.5221,-2.5277,-2.5405,-2.5424,-2.5424,-2.5424,-2.5663,-2.5819,-2.5819,-2.6023,-2.6178,-2.6178,-2.6178,-2.59,-2.5163,-2.3648,-2.1863,-1.9963,-1.8753,-1.8128,-1.8101,-1.8101,-1.8093,-1.8129,-1.8919,-1.9377,-1.9499,-2.0286,-2.1252,-2.2232,-2.2232,-2.207,-2.1737,-2.0895,-2.0615,-2.05,-1.9468,-1.8946,-1.8706,0.0,0.0,0.0,0.0,0.0,0.0,0.0,0.0,-2.0819,-2.0644,0.0,0.0,0.0,0.0,0.0,-2.0625,-2.0996,-2.122,-2.1229,-2.2009,-2.2519,-2.2529,-2.2877,-2.3091,-2.3091,-2.3091,-2.3091,-2.3091,-2.3091,-2.3013,-2.2803,-2.253,-2.2309,-2.2097,-2.183,-2.1696,-2.1687,-2.1696,-2.1696,-2.1696,-2.1696,-2.1696,-2.1696,-2.1696,-2.1696,-2.1696,-2.1696,-2.1696,-2.1696,-2.1696,-2.1696,-2.1696,-2.1696,-2.1696,-2.1696,-2.1696,-2.1696,0.0,0.0,0.0,0.0,0.0,0.0,0.0,-2.3489,0.0,-2.4183,-2.4202,-2.4202,-2.4202,-2.4202,-2.4202,-2.4202,-2.4202,-2.4202,-2.4349,-2.4702,-2.4757,-2.4904,-2.5341,-2.5387,-2.5387,-2.5387,-2.5396,-2.5405,-2.5405,-2.5362,-2.5424,-2.5424,-2.5372,-2.4718,-2.326,-2.1048,-1.9688,-1.9338,-1.818,-1.7553,-1.7583,-1.7583,-1.7553,-1.7461,-1.7461,-1.7649,-1.796,-1.796,-1.8978,-2.063,-2.063,-2.0134,-1.9424,-1.9424,-1.9424,-1.9307,-1.8655,-1.8421,-1.8305,0.0,0.0,0.0,0.0,0.0,0.0,-2.0731,-2.0693,-2.0654,0.0,0.0,0.0,-2.0605,-2.0859,-2.1045,-2.1045,-2.1455,-2.1836,-2.2139,-2.2383,-2.2646,-2.2906,-2.3033,-2.3091,-2.3091,-2.3091,-2.3091,-2.3091,-2.2969,-2.2925,-2.3013,-2.2441,-2.2318,0.0,-2.1954,-2.183,-2.1963,-2.1785,-2.1696,-2.1696,-2.1696,-2.1696,-2.1696,-2.1696,-2.1696,-2.1696,-2.1696,-2.1696,-2.1696,-2.1696,-2.1696,-2.1696,-2.1696,-2.1696,-2.1696,-2.1696,-2.1696,0.0,-2.1696,0.0,0.0,0.0,0.0,0.0,-2.3361,0.0,-2.3794,-2.4137,-2.4202,-2.4202,-2.4202,-2.4202,-2.4202,-2.4202,-2.4202,-2.4248,-2.4358,-2.4376,-2.4422,-2.4523,-2.4542,-2.4542,-2.4542,-2.4817,-2.4992,-2.4992,-2.5267,-2.5424,-2.5424,-2.4447,-2.319,-2.1663,-2.0063,-1.8609,-1.7458,-1.7142,-1.6961,-1.6978,-1.6978,-1.6958,-1.6917,-1.6917,-1.7077,-1.7374,-1.7374,-1.7999,-1.9042,-1.9274,-1.9403,-1.9424,-1.9424,-1.9424,-1.9366,-1.8946,-1.859,-1.8363,0.0,0.0,0.0,0.0,0.0,-2.0984,-2.077,-2.0644,-2.0605,0.0,0.0,0.0,-2.082,-2.124,-2.1504,-2.1504,-2.1894,-2.2246,-2.249,-2.2676,-2.2838,-2.3081,-2.3091,-2.3091,-2.3091,-2.3091,-2.3091,-2.3091,-2.2969,-2.2925,-2.2969,-2.2574,-2.2451,-2.2495,0.0,0.0,0.0,0.0,-2.1696,-2.1696,-2.1696,-2.1696,-2.1696,-2.1696,-2.1696,-2.1696,-2.1696,-2.1696,-2.1696,-2.1696,-2.1696,-2.1696,-2.1696,0.0,0.0,-2.1696,0.0,0.0,0.0,0.0,0.0,0.0,0.0,0.0,-2.3096,-2.338,-2.3608,-2.4119,-2.4202,-2.4202,-2.4202,-2.4202,-2.4202,-2.4202,-2.4202,-2.4202,-2.4202,-2.4202,-2.4202,-2.4202,-2.4202,-2.4202,-2.4202,-2.4422,-2.4569,-2.4569,-2.479,-2.4858,-2.4756,-2.2953,-2.1457,-2.0446,-1.8711,-1.7329,-1.6362,-1.6362,-1.6416,-1.6525,-1.6525,-1.6585,-1.67,-1.67,-1.6785,-1.693,-1.693,-1.7356,-1.8084,-1.8429,-1.8899,-1.9424,-1.9424,-1.9424,-1.9366,-1.9004,-1.8706,-1.8363,0.0,0.0,-2.1655,-2.1474,-2.1282,-2.1089,-2.0906,-2.0693,-2.0625,0.0,-2.0723,-2.0869,-2.122,-2.1699,-2.1953,-2.1953,-2.2344,-2.2578,-2.2578,-2.2886,-2.3091,-2.3091,-2.3091,-2.3091,-2.3091,-2.3091,-2.3091,-2.3091,-2.3091,-2.2969,-2.2847,-2.2759,-2.2539,-2.2185,0.0,0.0,0.0,0.0,-2.1696,-2.1696,-2.1696,-2.1696,-2.1696,-2.1696,-2.1696,-2.1696,-2.1696,-2.1696,-2.1696,-2.1696,-2.1696,-2.1696,-2.1696,-2.1696,0.0,0.0,-2.1696,0.0,0.0,0.0,0.0,0.0,-2.1952,0.0,-2.2748,-2.3105,-2.3489,-2.4045,-2.4137,-2.4146,-2.4192,-2.4202,-2.4202,-2.4202,-2.4202,-2.4202,-2.4202,-2.4202,-2.4202,-2.4202,-2.4202,-2.4202,-2.4202,-2.4202,-2.4202,-2.4202,-2.4152,-2.4003,-2.3646,-2.132,-1.9826,-1.942,-1.7411,-1.6164,-1.5891,-1.5891,-1.6006,-1.6241,-1.6241,-1.6368,-1.661,-1.661,-1.6628,-1.6658,-1.6658,-1.7005,-1.7614,-1.7862,-1.8473,-1.9325,-1.9417,-1.9424,-1.9366,-1.9004,-1.8706,-1.8363,0.0,0.0,-2.1244,-2.1061,-2.0848,-2.0683,-2.0654,-2.0644,-2.0732,-2.1055,-2.1406,-2.166,-2.1748,-2.2139,-2.2393,-2.2393,-2.273,-2.2974,-2.2974,-2.3052,-2.3091,-2.3091,-2.3091,-2.3091,-2.3091,-2.3091,-2.3091,-2.3091,-2.2925,-2.2925,-2.3013,-2.2495,-2.2407,-2.2627,0.0,0.0,0.0,0.0,-2.1696,-2.1696,-2.1696,-2.1696,-2.1696,-2.1696,-2.1696,-2.1696,-2.1696,-2.1696,-2.1696,-2.1696,-2.1696,-2.1696,-2.1696,-2.1696,0.0,-2.1696,0.0,0.0,0.0,0.0,0.0,0.0,-2.1751,0.0,-2.2309,-2.2465,-2.2721,-2.3462,-2.3657,-2.3767,-2.4137,-2.4202,-2.4202,-2.4202,-2.4202,-2.4202,-2.4202,-2.4202,-2.4202,-2.4202,-2.4202,-2.4202,-2.4202,-2.4202,-2.4202,-2.4202,-2.4003,-2.3438,-2.2501,-2.0904,-1.9465,-1.8349,-1.7001,-1.6164,-1.5891,-1.5891,-1.5916,-1.5964,-1.5964,-1.5994,-1.6048,-1.6048,-1.6163,-1.6362,-1.6362,-1.6821,-1.7601,-1.7652,-1.8181,-1.9032,-1.9272,-1.9424,-1.9366,-1.9004,-1.8706,-1.8363,0.0,-2.1205,-2.1167,-2.1061,-2.0896,-2.081,-2.1017,-2.0977,-2.1064,-2.1504,-2.1934,-2.2197,-2.2197,-2.2578,-2.2779,-2.2779,-2.2974,-2.3091,-2.3091,-2.3091,-2.3091,-2.3091,-2.3091,-2.3091,-2.3091,-2.3091,-2.3091,-2.3091,-2.3013,-2.2969,-2.2925,-2.2627,-2.2451,-2.2451,0.0,0.0,0.0,0.0,-2.1696,-2.1696,-2.1696,-2.1696,-2.1696,-2.1696,-2.1696,-2.1696,-2.1696,-2.1696,-2.1696,-2.1696,-2.1696,-2.1696,-2.1696,-2.1696,-2.1696,0.0,-2.1696,-2.1696,0.0,0.0,0.0,-2.1696,-2.1696,0.0,0.0,-2.2282,-2.2455,-2.3078,-2.3197,-2.3325,-2.3776,-2.3849,-2.3914,-2.4165,-2.4202,-2.4202,-2.4202,-2.4202,-2.4202,-2.4202,-2.4202,-2.4202,-2.4202,-2.4202,-2.4152,-2.4003,-2.3746,-2.3029,-2.1785,-2.0349,-1.9065,-1.7832,-1.6683,-1.6051,-1.5891,-1.5891,-1.5891,-1.5891,-1.5891,-1.5891,-1.5891,-1.5891,-1.5964,-1.6085,-1.6085,-1.6488,-1.7175,-1.7315,-1.7793,-1.8475,-1.8971,-1.9145,-1.9158,-1.9132,-1.8829,-1.8363,-2.1032,0.0,-2.1258,-2.1258,-2.1183,-2.1194,-2.154,-2.1438,-2.1514,-2.1953,-2.2373,-2.2637,-2.2637,-2.2896,-2.3091,-2.3091,-2.3091,-2.3091,-2.3091,-2.3091,-2.3091,-2.3091,-2.3091,-2.3091,-2.3091,-2.3091,-2.3091,-2.3091,-2.3091,-2.3013,-2.2803,-2.2759,-2.253,-2.2141,0.0,0.0,0.0,0.0,0.0,-2.1696,-2.1696,-2.1696,-2.1696,-2.1696,-2.1597,-2.1419,-2.1419,-2.1553,-2.1687,-2.1508,-2.1553,-2.1687,-2.1508,-2.1553,0.0,0.0,0.0,0.0,0.0,0.0,0.0,-2.1696,-2.1696,-2.1778,0.0,0.0,0.0,-2.2702,-2.2785,-2.2913,-2.3306,-2.3444,-2.3581,-2.3877,-2.4101,-2.4174,-2.4101,-2.4156,-2.4202,-2.4202,-2.4202,-2.4202,-2.4202,-2.4152,-2.4053,-2.3805,-2.3497,-2.2627,-2.1081,-1.9842,-1.861,-1.7318,-1.6365,-1.5891,-1.5891,-1.5891,-1.5891,-1.5891,-1.5891,-1.5891,-1.5891,-1.5891,-1.5891,-1.5891,-1.5891,-1.6152,-1.6649,-1.6978,-1.7404,-1.7915,-1.8555,-1.8838,-1.8878,-1.9172,-1.8925,-1.8403,-2.1208,-2.1321,-2.1471,-2.1471,-2.1637,-2.1799,-2.1848,-2.1858,-2.1963,-2.2383,-2.2769,-2.3023,-2.3023,-2.3062,-2.3091,0.0,-2.3091,-2.3091,-2.3091,-2.3091,-2.3091,-2.3091,-2.3091,-2.3091,-2.3091,-2.3091,-2.3091,-2.3091,-2.3091,-2.3013,-2.2794,-2.2574,-2.2441,0.0,-2.2185,0.0,0.0,0.0,-2.1919,-2.1696,-2.1696,-2.1696,-2.1696,-2.1696,-2.1177,-2.0484,-2.0484,-2.0988,-2.1553,-2.0763,-2.0988,-2.1553,-2.0718,-2.1042,-2.1696,-2.1696,0.0,0.0,0.0,0.0,-2.1696,-2.1696,-2.1696,-2.1705,-2.1751,0.0,-2.187,-2.2272,0.0,-2.2474,-2.2895,0.0,0.0,-2.3096,-2.3694,-2.4073,-2.3618,-2.3923,-2.4202,-2.4202,-2.4202,-2.4202,-2.4202,-2.4003,-2.3845,-2.3805,-2.3347,-2.2114,-1.9886,-1.9428,-1.8237,-1.6152,-1.5945,-1.5891,-1.5891,-1.5891,-1.5891,-1.5891,-1.5891,-1.5891,-1.5891,-1.5891,-1.5891,-1.5891,-1.5891,-1.6051,-1.6377,-1.6662,-1.6947,-1.739,-1.82,-1.8544,-1.8577,-1.8865,-1.8737,-1.8421,-2.1283,-2.1469,0.0,-2.1724,-2.185,-2.1963,-2.2207,-2.2461,-2.2676,-2.2808,-2.2984,-2.3091,-2.3091,-2.3091,-2.3091,0.0,-2.3091,-2.3091,-2.3091,-2.3091,0.0,-2.3091,-2.3091,-2.3091,-2.3091,-2.3091,-2.3091,-2.3091,-2.3091,-2.3013,-2.2803,-2.2662,-2.253,0.0,-2.2309,0.0,-2.1499,0.0,-2.1687,-2.1096,-2.1508,-2.1696,-2.1696,-2.1696,-2.1454,-2.1132,-2.1132,-2.1365,-2.1642,-2.1266,-2.1365,-2.1642,-2.123,-2.1365,-2.1696,-2.1696,0.0,0.0,0.0,-2.1696,-2.1696,-2.1696,-2.1696,-2.1696,-2.1696,-2.1696,-2.1742,-2.1906,0.0,0.0,0.0,0.0,0.0,0.0,-2.3187,-2.3474,-2.348,-2.3694,-2.3886,-2.4174,-2.4202,-2.4202,-2.4202,-2.3954,-2.3755,-2.3596,-2.3197,-2.2224,-2.0467,-1.9642,-1.8499,-1.6948,-1.6258,-1.5891,-1.5891,-1.5891,-1.5891,-1.5891,-1.5891,-1.5891,-1.5891,-1.5891,-1.5891,-1.5891,-1.5891,-1.6051,-1.6324,-1.6424,-1.6749,-1.7252,-1.7608,-1.792,-1.827,-1.8564,-1.8539,-1.8407,-2.165,0.0,0.0,0.0,-2.2158,-2.2334,-2.2637,-2.2896,-2.3091,-2.3091,-2.3091,-2.3091,-2.3091,-2.3091,-2.3091,0.0,-2.3091,-2.3091,-2.3091,-2.3091,-2.3091,-2.3091,-2.3091,-2.3091,-2.3091,-2.3091,-2.3091,-2.3091,-2.3091,-2.3013,-2.2803,-2.2803,-2.2706,0.0,0.0,-2.1891,-2.1123,0.0,-2.1588,-2.0772,-2.1508,-2.1785,-2.1687,-2.141,-2.1463,-2.1687,-2.141,-2.1454,-2.1597,-2.1096,-2.1275,-2.1553,-2.0772,-2.1051,-2.1642,0.0,0.0,0.0,-2.1696,-2.1696,-2.1696,-2.1696,-2.1696,-2.1696,-2.1607,-2.1651,-2.1651,-2.1553,-2.1597,0.0,0.0,0.0,0.0,0.0,0.0,-2.2968,-2.3142,-2.3261,-2.3526,-2.4137,-2.4202,-2.4152,-2.4102,-2.3854,-2.3596,-2.3297,-2.2736,-2.1861,-2.0518,-1.9383,-1.8244,-1.716,-1.6311,-1.5891,-1.5891,-1.5891,-1.5891,-1.5891,-1.5891,-1.5891,-1.5891,-1.5891,-1.5891,-1.5891,-1.5891,-1.5998,-1.6217,-1.6271,-1.6537,-1.6967,-1.7126,-1.7416,-1.7862,-1.8295,-1.845,-1.8416,-2.2471,-2.248,0.0,0.0,-2.2789,-2.3062,-2.3071,-2.3081,-2.3091,-2.3091,-2.3091,-2.3091,-2.3091,-2.3091,-2.3091,-2.3091,-2.3091,-2.3091,-2.3091,-2.3091,-2.3091,-2.3091,-2.3091,-2.3091,-2.3091,-2.3091,-2.3091,-2.3091,-2.3091,-2.3013,-2.2803,-2.2803,-2.2803,0.0,-2.253,-2.198,-2.1338,-2.2069,-2.1856,-2.1042,-2.1776,-2.1919,-2.1597,-2.0664,-2.0898,-2.1597,-2.0664,-2.0943,-2.1419,-1.9521,-2.0121,-2.1186,-1.8342,-1.9392,-2.1508,-2.0619,-2.0997,-2.1696,-2.1696,-2.1696,-2.1696,-2.1696,-2.1696,-2.1651,-2.1437,-2.1562,-2.1553,-2.1132,-2.1365,-2.1651,-2.1455,0.0,0.0,0.0,0.0,0.0,0.0,-2.2666,-2.3215,-2.411,-2.4202,-2.4102,-2.3854,-2.3546,-2.3297,-2.3046,-2.1759,-2.0467,-1.9332,-1.8251,-1.7107,-1.5998,-1.5945,-1.5891,-1.5891,-1.5891,-1.5891,-1.5891,-1.5891,-1.5891,-1.5891,-1.5891,-1.5891,-1.5891,-1.5891,-1.5891,-1.5945,-1.6164,-1.6324,-1.6377,-1.6967,-1.7232,-1.7317,-1.8167,-1.8497,-1.8473,0.0,0.0,0.0,0.0,0.0,-2.3091,-2.3091,-2.3091,-2.3091,-2.3091,-2.3091,-2.3091,-2.3091,-2.3091,-2.3091,-2.3091,-2.3091,-2.3091,-2.3091,-2.3091,-2.3091,-2.3091,-2.3091,-2.3091,-2.3091,-2.3091,-2.3091,-2.3091,-2.3091,-2.3057,-2.3013,0.0,0.0,0.0,0.0,-2.1293,0.0,0.0,0.0,0.0,-2.1588,-2.1919,-2.1687,-2.1365,-2.141,-2.1651,-2.132,-2.1419,-2.1597,-2.0952,-2.0718,-2.0583,-1.9613,-1.953,-1.9712,-1.9384,-1.9985,-2.0763,-2.0763,-2.1221,-2.1696,-2.1696,-2.1696,-2.1651,-2.1437,-2.1437,-2.1428,-2.1087,-2.1284,-2.1482,-2.1392,0.0,0.0,0.0,0.0,0.0,0.0,-2.2312,-2.2607,-2.3069,-2.3341,-2.3555,-2.3777,-2.3397,-2.3097,-2.2996,-2.1709,-2.0731,-2.0364,-1.8617,-1.7424,-1.7054,-1.6311,-1.5891,-1.5891,-1.5891,-1.5891,-1.5891,-1.5891,-1.5891,-1.5891,-1.5891,-1.5891,-1.5891,-1.5891,-1.5891,-1.5891,-1.5998,-1.6164,-1.6324,-1.6537,-1.697,-1.7533,-1.8008,-1.8323,-1.8515,-2.3091,0.0,0.0,0.0,-2.3091,-2.3091,-2.3091,-2.3091,-2.3091,-2.3091,-2.3091,-2.3091,-2.3091,-2.3091,-2.3091,-2.3091,-2.3091,-2.3091,-2.3091,-2.3091,-2.3091,-2.3091,-2.3091,-2.3091,-2.3091,-2.3091,-2.3091,-2.3091,-2.3091,-2.2916,0.0,0.0,0.0,0.0,0.0,-2.1347,-1.9704,-2.1615,-2.1624,0.0,0.0,-2.1919,-2.1696,-2.1696,-2.1696,-2.1696,-2.1696,-2.1696,-2.1597,-2.0907,-2.0484,-2.0158,-1.9476,-1.9018,-1.8788,-1.8788,-1.9521,-2.0204,-1.984,-2.0484,-2.1177,-2.1177,-2.1132,-2.1096,-2.1239,-2.1248,-2.115,-2.0826,-2.1006,-2.1248,-2.1159,0.0,0.0,0.0,0.0,0.0,0.0,-2.1739,-2.1906,-2.2189,-2.2557,-2.2951,-2.3404,-2.2687,-2.2239,-2.2367,-2.0723,-1.9753,-1.9753,-1.7989,-1.7001,-1.7001,-1.6258,-1.5891,-1.5891,-1.5891,-1.5891,-1.5891,-1.5891,-1.5891,-1.5891,-1.5891,-1.5891,-1.5891,-1.5891,-1.5891,-1.5891,-1.5891,-1.5998,-1.6164,-1.6271,-1.6753,-1.7501,-1.7884,-1.8229,-1.8455,-2.3091,-2.3091,-2.3091,-2.3091,-2.3091,-2.3091,-2.3091,-2.3091,-2.3091,-2.3091,-2.3091,-2.3091,-2.3091,-2.3091,-2.3091,-2.3091,-2.3091,-2.3091,-2.3091,-2.3091,-2.3091,-2.3091,-2.3091,-2.3091,-2.3091,-2.3091,-2.3091,0.0,0.0,0.0,0.0,0.0,0.0,0.0,-2.2157,0.0,-2.1561,-2.2157,-2.198,-2.1382,-2.1909,-2.1919,-2.1687,-2.1642,-2.1651,-2.1696,-2.1696,-2.1696,-2.1419,-1.9575,-1.9567,-1.9977,-1.7971,-1.8017,-1.8703,-1.865,-1.9384,-1.9931,-1.8972,-1.9476,-2.0249,-2.0249,-2.0022,-2.0031,-2.0763,-2.0943,-2.0817,-2.0382,-2.069,-2.0907,-2.0744,-2.0871,0.0,0.0,0.0,0.0,0.0,0.0,-2.1094,-2.1437,-2.1799,-2.2235,-2.266,-2.1411,-2.0754,-2.1135,-1.8968,-1.7582,-1.7582,-1.6524,-1.5891,-1.5891,-1.5891,-1.5891,-1.5891,-1.5891,-1.5891,-1.5891,-1.5891,-1.5891,-1.5891,-1.5891,-1.5891,-1.5891,-1.5891,-1.5891,-1.5891,-1.5891,-1.5891,-1.5945,-1.623,-1.6731,-1.7341,-1.7893,-1.8235,-1.8421,-2.3091,-2.3091,-2.3091,-2.3091,-2.3091,-2.3091,-2.3091,-2.3091,-2.3091,-2.3091,-2.3091,-2.3091,-2.3091,-2.3091,-2.3091,-2.3091,-2.3091,-2.3091,-2.3091,-2.3091,-2.3091,-2.3091,-2.3091,-2.3091,-2.3091,-2.3091,-2.3091,-2.3091,0.0,0.0,-2.2731,0.0,0.0,0.0,0.0,-2.1105,-1.9085,-2.1427,-2.222,-2.1909,-2.2052,-2.1919,-2.1642,-2.0943,-2.1087,-2.1696,-2.1696,-2.1696,-2.1642,-2.1141,-2.0673,-2.0068,-1.8788,-1.8064,-1.7552,-1.6803,-1.7271,-1.8017,-1.7738,-1.8427,-1.9201,-1.9201,-1.9109,-1.9201,-1.9758,-1.9894,-1.9948,-2.0246,-2.0564,-2.0826,-2.0907,-2.0952,-2.1087,0.0,0.0,0.0,0.0,0.0,-2.0317,-1.9883,-1.9899,-2.0215,-2.0887,-1.9954,-1.9338,-1.9421,-1.8282,-1.7582,-1.7582,-1.6524,-1.5891,-1.5891,-1.5891,-1.5891,-1.5891,-1.5891,-1.5891,-1.5891,-1.5891,-1.5891,-1.5891,-1.5891,-1.5891,-1.5891,-1.5891,-1.5891,-1.5891,-1.5891,-1.5998,-1.6236,-1.6553,-1.7304,-1.8186,-1.8552,-1.8581,-1.8421,-2.3091,-2.3091,-2.3091,-2.3091,-2.3091,-2.3091,-2.3091,-2.3091,-2.3091,-2.3091,-2.3091,-2.3169,-2.3364,-2.3428,-2.3496,-2.3637,-2.3656,-2.3656,-2.3656,-2.3656,-2.3569,-2.3428,-2.3428,-2.3286,-2.3101,-2.3091,-2.3091,-2.3091,0.0,0.0,-2.2501,0.0,0.0,0.0,0.0,-2.1472,-1.9724,-2.1159,-2.1624,-2.1454,-2.1785,-2.183,0.0,-2.0673,-2.0619,-2.1087,-2.1087,-2.1365,-2.1642,-2.1221,-2.0763,-2.0113,-1.9109,-1.8102,-1.7185,-1.6622,-1.6864,-1.7185,-1.6763,-1.7365,-1.8149,-1.8149,-1.8056,-1.8195,-1.8888,-1.8842,-1.8796,-1.908,-1.9209,-1.9247,-1.9376,-1.9376,-1.9422,0.0,0.0,0.0,0.0,0.0,-1.9347,-1.8457,-1.8002,-1.7866,-1.8273,-1.8156,-1.8038,-1.8082,-1.7328,-1.6791,-1.6669,-1.6196,-1.5891,-1.5891,-1.5891,-1.5891,-1.5891,-1.5891,-1.5891,-1.5891,-1.5891,-1.5891,-1.5891,-1.5891,-1.5891,-1.5891,-1.5891,-1.5891,-1.5891,-1.5891,-1.6071,-1.6385,-1.7054,-1.7616,-1.8185,-1.8709,-1.8686,-1.8363,-2.3091,-2.3091,-2.3091,-2.3091,-2.3091,-2.3091,-2.3091,-2.3091,-2.311,-2.3169,-2.3179,-2.3389,-2.3828,-2.3867,-2.4014,-2.4385,-2.4414,-2.4414,-2.4414,-2.4414,-2.4248,-2.3887,-2.3867,-2.3672,-2.3188,-2.3179,-2.3149,0.0,0.0,0.0,0.0,0.0,0.0,0.0,0.0,0.0,0.0,-2.1123,-2.0862,-2.0817,-2.1463,-2.1625,-2.1491,-2.0508,-2.0169,-2.0212,-2.0075,-2.067,-2.141,-2.0718,-2.0484,-2.0303,-1.9155,-1.8288,-1.7598,-1.7232,-1.7185,-1.7091,-1.6062,-1.644,-1.7091,-1.7091,-1.6951,-1.7084,-1.8017,-1.7917,-1.7645,-1.7692,-1.749,-1.7343,-1.7343,-1.7336,-1.7336,0.0,0.0,0.0,-1.7436,-1.8041,0.0,0.0,-1.6358,0.0,-1.5609,-1.6251,-1.6769,-1.6869,-1.6251,-1.5741,-1.5511,-1.5747,-1.5891,-1.5891,-1.5891,-1.5891,-1.5891,-1.5891,-1.5891,-1.5891,-1.5891,-1.5891,-1.5891,-1.5891,-1.5891,-1.5891,-1.5891,-1.5891,-1.5891,-1.5928,-1.6181,-1.6569,-1.7535,-1.7856,-1.7849,-1.85,-1.859,-1.8363,-2.3091,-2.3091,0.0,-2.3091,-2.3091,-2.3091,-2.3091,-2.3091,-2.3227,-2.3633,-2.3682,-2.3838,-2.4258,-2.4307,-2.4336,-2.4414,-2.4414,-2.4414,-2.4414,-2.4414,-2.4385,-2.4307,-2.4307,-2.4111,-2.3682,-2.3682,-2.3496,-2.3091,-2.3091,-2.3003,0.0,0.0,0.0,0.0,0.0,0.0,-2.1078,-2.0619,-2.0853,-2.1508,-2.1642,-2.1373,-2.0758,-1.9772,-1.9581,-1.9694,-1.8888,-1.9422,-2.0619,-2.1266,-2.1463,-2.1132,-1.9347,-1.9247,-1.9293,-1.6803,-1.6676,-1.7091,-1.6062,-1.592,-1.6062,-1.6062,-1.6062,-1.6251,-1.7037,-1.7178,-1.7225,-1.7638,-1.7638,-1.763,-1.7615,-1.7608,-1.7561,-1.7336,-1.7436,-1.7483,-1.7343,-1.7436,0.0,0.0,-1.6089,-1.5717,-1.4675,-1.4881,-1.5122,-1.5122,-1.5423,-1.5547,-1.5499,-1.5747,-1.5891,-1.5891,-1.5891,-1.5891,-1.5891,-1.5891,-1.5891,-1.5891,-1.5891,-1.5891,-1.5891,-1.5891,-1.5891,-1.5891,-1.5891,-1.5891,-1.591,-1.6139,-1.6685,-1.7408,-1.7558,-1.8014,-1.8577,-1.7987,-1.8006,-1.8363,-2.3091,0.0,0.0,-2.3091,-2.3091,-2.3169,-2.3437,-2.3477,-2.3555,-2.376,-2.3975,-2.4277,-2.4707,-2.4756,-2.4853,-2.504,-2.505,-2.505,-2.505,-2.505,-2.5,-2.4766,-2.4756,-2.456,-2.4121,-2.4111,-2.3906,-2.3477,-2.3477,-2.3271,-2.2925,-2.2925,0.0,0.0,0.0,-2.1212,0.0,-2.0628,-2.0727,-2.1114,-2.1164,-2.0974,-2.0543,-1.9223,-1.8772,-1.8867,-1.8383,-1.8663,-1.9423,-2.0988,-2.184,-2.1987,-1.9942,-1.9904,-1.9995,-1.6949,-1.666,-1.7091,-1.6062,-1.5784,-1.5784,-1.5784,-1.5784,-1.592,-1.6298,-1.6292,-1.6292,-1.652,-1.6332,-1.6089,-1.5981,-1.5934,-1.5886,-1.5751,-1.617,-1.6358,-1.5846,-1.617,-1.617,0.0,0.0,0.0,-1.4346,-1.4419,-1.4558,-1.4708,-1.5203,-1.5499,-1.5499,-1.5747,-1.5891,-1.5891,-1.5891,-1.5891,-1.5891,-1.5891,-1.5891,-1.5891,-1.5891,-1.5891,-1.5891,-1.5891,-1.5891,-1.5891,-1.5891,-1.597,-1.6127,-1.6543,-1.6976,-1.7385,-1.7642,-1.7952,-1.8123,-1.7843,-1.7843,-1.7889,-2.3091,-2.3091,-2.312,-2.3218,-2.3227,-2.3418,-2.3857,-2.4004,-2.4062,-2.4062,-2.4346,-2.4717,-2.5166,-2.5215,-2.5352,-2.5654,-2.5693,-2.5693,-2.5693,-2.5693,-2.5586,-2.5225,-2.5215,-2.5,-2.456,-2.4468,-2.4309,-2.3926,-2.3871,-2.3522,-2.2928,-2.2928,0.0,0.0,-2.149,-2.1132,-2.0916,-2.095,-2.0849,-2.064,-2.078,-2.0601,-2.0123,-1.8769,-1.8181,-1.8096,-1.8096,-1.8239,-1.8681,-2.0304,-2.1477,-2.1921,-2.0305,-2.0166,-2.0143,-1.7516,-1.7111,-1.7246,-1.6252,-1.5964,-1.5964,-1.5964,-1.5965,-1.5925,-1.5925,-1.5729,-1.554,-1.5493,-1.507,-1.464,-1.4346,-1.4298,-1.4298,-1.4298,-1.4949,-1.5188,-1.4394,-1.5003,-1.5188,0.0,0.0,0.0,-1.4298,-1.4298,-1.4413,-1.4696,-1.5149,-1.5415,-1.5415,-1.5716,-1.5891,-1.5891,-1.5891,-1.5891,-1.5891,-1.5891,-1.5891,-1.5891,-1.5891,-1.5891,-1.5891,-1.5891,-1.5891,-1.5891,-1.5946,-1.6157,-1.6483,-1.6917,-1.7123,-1.7253,-1.7704,-1.7784,-1.7602,-1.7849,-1.7784,-1.7543,-2.3091,-2.3091,-2.3218,-2.3662,-2.373,-2.3877,-2.4287,-2.4687,-2.4998,-2.4998,-2.5028,-2.5176,-2.5577,-2.5625,-2.5645,-2.5684,-2.5693,-2.5693,-2.5693,-2.5693,-2.5674,-2.5625,-2.5625,-2.5459,-2.5057,-2.4792,-2.458,-2.4355,-2.4115,-2.3765,-2.3361,-2.3361,-2.2567,-2.1177,-2.1731,-2.1499,-2.0699,-2.1698,-2.1557,-2.0742,-2.1079,-2.0265,-1.8773,-1.8607,-1.8189,-1.7659,-1.7659,-1.8272,-1.914,-1.9339,-1.9652,-1.9974,-1.9861,-1.9797,-1.9595,-1.8528,-1.8169,-1.7901,-1.6869,-1.6627,-1.6627,-1.6627,-1.6426,-1.6233,-1.6233,-1.6025,-1.5737,-1.554,-1.507,-1.464,-1.4346,-1.4298,-1.4298,-1.4298,-1.4394,-1.4394,-1.4292,-1.4394,-1.4394,-1.4298,0.0,0.0,-1.4298,-1.4298,-1.4413,-1.4696,-1.4986,-1.5143,-1.5143,-1.562,-1.5891,-1.5891,-1.5891,-1.5891,-1.5891,-1.5891,-1.5891,-1.5891,-1.5891,-1.5891,-1.5891,-1.5891,-1.5891,-1.5903,-1.6139,-1.6537,-1.702,-1.7074,-1.7231,-1.7449,-1.7531,-1.7726,-1.7908,-1.7667,-1.7726,-1.7732,-2.3091,-2.3305,-2.3584,-2.376,-2.4004,-2.4316,-2.4746,-2.4998,-2.5213,-2.5439,-2.5469,-2.5537,-2.5664,-2.5693,-2.5693,-2.5693,-2.5693,-2.5693,-2.5693,-2.5693,-2.5693,-2.5693,-2.5693,-2.5557,-2.5228,-2.5131,-2.4833,-2.4344,-2.4391,-2.404,-2.3353,-2.3482,-2.3065,-2.2133,-2.2465,-2.1985,-2.1045,-2.1529,-2.1062,-2.0086,-1.9807,-1.9237,-1.8578,-1.8156,-1.7841,-1.7582,-1.7582,-1.7891,-1.8251,-1.8251,-1.9214,-2.0305,-1.9643,-1.9756,-1.9743,-1.8168,-1.7946,-1.7995,-1.695,-1.6707,-1.6707,-1.6707,-1.662,-1.6533,-1.6533,-1.644,-1.6257,-1.6029,-1.5431,-1.479,-1.4394,-1.4298,-1.4298,-1.4298,-1.4298,-1.4298,-1.4298,-1.4298,-1.4298,-1.4298,0.0,-1.4298,-1.4298,-1.4298,-1.4413,-1.4696,-1.4962,-1.5179,-1.533,-1.5692,-1.5891,-1.5891,-1.5891,-1.5891,-1.5891,-1.5891,-1.5891,-1.5891,-1.5891,-1.5891,-1.5891,-1.5891,-1.5976,-1.6145,-1.6579,-1.6893,-1.7105,-1.7261,-1.7388,-1.7485,-1.7485,-1.7126,-1.6532,-1.6408,-1.593,-1.5337,-2.333,-2.3682,-2.4014,-2.4141,-2.4414,-2.4756,-2.5195,-2.5264,-2.5381,-2.5645,-2.5693,-2.5693,-2.5693,-2.5693,-2.5693,-2.5693,-2.5693,-2.5693,-2.5693,-2.5693,-2.5693,-2.5693,-2.5693,-2.5586,-2.5294,-2.5235,-2.4945,-2.4457,-2.4602,-2.4249,-2.3466,-2.3467,-2.327,-2.2904,-2.2904,-2.2319,-2.13,-2.1411,-2.067,-1.933,-1.8919,-1.8599,-1.8262,-1.7764,-1.7582,-1.7582,-1.7582,-1.7582,-1.7582,-1.7582,-1.8617,-1.9857,-1.9332,-1.9324,-1.9291,-1.8138,-1.7888,-1.7865,-1.7164,-1.6967,-1.6967,-1.6967,-1.6901,-1.6834,-1.6834,-1.6767,-1.6597,-1.6348,-1.5807,-1.5154,-1.4624,-1.4467,-1.4395,-1.431,-1.4298,-1.4298,-1.4298,-1.4298,-1.4298,-1.4298,-1.4298,-1.4328,-1.4413,-1.4419,-1.4533,-1.4811,-1.5077,-1.5306,-1.5487,-1.5747,-1.5891,-1.5891,-1.5891,-1.5891,-1.5891,-1.5891,-1.5891,-1.5891,-1.5891,-1.5891,-1.5891,-1.5976,-1.6199,-1.6543,-1.6923,-1.7135,-1.7219,-1.7406,-1.7485,-1.7485,-1.7485,-1.6703,-1.5575,-1.5575,-1.4798,-1.3665,-2.3779,-2.4121,-2.4551,-2.498,-2.5106,-2.5215,-2.5615,-2.5684,-2.5684,-2.5693,-2.5693,-2.5693,-2.5693,-2.5693,-2.5693,-2.5693,-2.5693,-2.5693,-2.5693,-2.5693,-2.5693,-2.5693,-2.5693,-2.5586,-2.5294,-2.5039,-2.4883,-2.4883,-2.4627,-2.4275,-2.3866,-2.3229,-2.2913,-2.2904,-2.2904,-2.2319,-2.1318,-2.1733,-2.0635,-1.8629,-1.9045,-1.8551,-1.7628,-1.7582,-1.7582,-1.7582,-1.7582,-1.7582,-1.7582,-1.7582,-1.7635,-1.7838,-1.8864,-1.8454,-1.7832,-1.8864,-1.8447,-1.7621,-1.7569,-1.7569,-1.7569,-1.7569,-1.7407,-1.7199,-1.7199,-1.6914,-1.6607,-1.6369,-1.6054,-1.5714,-1.5183,-1.485,-1.4618,-1.434,-1.4298,-1.4298,-1.4298,-1.4298,-1.4298,-1.4298,-1.4298,-1.4407,-1.4684,-1.4708,-1.4823,-1.5083,-1.5348,-1.5493,-1.5499,-1.5747,-1.5891,-1.5891,-1.5891,-1.5891,-1.5891,-1.5891,-1.5891,-1.5891,-1.5891,-1.5891,-1.5897,-1.6175,-1.6592,-1.708,-1.7086,-1.7237,-1.7479,-1.7485,-1.7485,-1.7485,-1.7485,-1.6703,-1.5575,-1.5575,-1.4798,-1.3485,-2.416,-2.456,-2.4902,-2.5086,-2.5322,-2.5566,-2.5664,-2.5693,-2.5693,-2.5693,-2.5693,-2.5693,-2.5693,-2.5693,-2.5693,-2.5693,-2.5693,-2.5693,-2.5693,-2.5693,-2.5693,-2.5693,-2.5538,-2.5284,-2.503,-2.4784,-2.4538,-2.4449,-2.4489,-2.4414,-2.4294,-2.3929,-2.3776,-2.3776,-2.3776,-2.276,-2.1062,-2.1176,-1.9946,-1.7911,-1.806,-1.7891,-1.7582,-1.7582,-1.7582,-1.7582,-1.7582,-1.7582,-1.7582,-1.7582,-1.7582,-1.7687,-1.7989,-1.7891,-1.7687,-1.7996,-1.7891,-1.7582,-1.7582,-1.7582,-1.7582,-1.7582,-1.7515,-1.7442,-1.7442,-1.7273,-1.6905,-1.6394,-1.6094,-1.5727,-1.5193,-1.503,-1.4956,-1.4865,-1.4847,-1.4847,-1.4847,-1.4847,-1.4847,-1.4847,-1.4847,-1.4883,-1.4974,-1.4986,-1.5089,-1.5354,-1.5451,-1.5499,-1.5499,-1.5747,-1.5891,-1.5891,-1.5891,-1.5891,-1.5891,-1.5891,-1.5891,-1.5891,-1.5891,-1.5982,-1.6169,-1.6447,-1.6767,-1.7098,-1.728,-1.7406,-1.7485,-1.7485,-1.7003,-1.6225,-1.6225,-1.4857,-1.2946,-1.2946,-1.2165,-1.0963,-2.4609,-2.5019,-2.5322,-2.5322,-2.5557,-2.5693,-2.5693,-2.5693,-2.5693,-2.5693,-2.5693,-2.5693,-2.5693,-2.5693,-2.5693,-2.5693,-2.5693,-2.5693,-2.5693,-2.5693,-2.5635,-2.5538,-2.5391,-2.5137,-2.4784,-2.4587,-2.439,-2.4202,-2.435,-2.439,-2.439,-2.4251,-2.4202,-2.4202,-2.4202,-2.2979,-2.0885,-2.0885,-1.9642,-1.7582,-1.7582,-1.7582,-1.7582,-1.7582,-1.7582,-1.7582,-1.7582,-1.7582,-1.7582,-1.7582,-1.7582,-1.7582,-1.7582,-1.7582,-1.7582,-1.7582,-1.7582,-1.7582,-1.7582,-1.7582,-1.7582,-1.7582,-1.7582,-1.7582,-1.7582,-1.7494,-1.7263,-1.6892,-1.6491,-1.6087,-1.5628,-1.5405,-1.5221,-1.5125,-1.5107,-1.5107,-1.5107,-1.5107,-1.5107,-1.5107,-1.5107,-1.5149,-1.5246,-1.5252,-1.536,-1.5626,-1.5644,-1.5644,-1.5644,-1.5801,-1.5891,-1.5891,-1.5891,-1.5891,-1.5891,-1.5891,-1.5891,-1.5891,-1.5891,-1.6079,-1.6447,-1.6622,-1.6893,-1.7249,-1.7412,-1.7485,-1.7479,-1.7003,-1.6349,-1.5569,-1.5095,-1.3605,-1.1692,-1.1692,-1.0906,-0.9822,-2.5155,-2.5449,-2.5693,-2.5693,-2.5693,-2.5693,-2.5693,-2.5693,-2.5693,-2.5693,-2.5693,-2.5693,-2.5693,-2.5693,-2.5693,-2.5693,-2.5693,-2.5693,-2.5693,-2.5684,-2.5538,-2.5333,-2.5235,-2.503,-2.4529,-2.4489,-2.439,-2.4202,-2.4202,-2.4202,-2.4202,-2.4202,-2.4202,-2.4202,-2.4202,-2.2979,-2.0885,-2.0885,-1.9642,-1.7582,-1.7582,-1.7582,-1.7582,-1.7582,-1.7582,-1.7582,-1.7582,-1.7582,-1.7582,-1.7582,-1.7582,-1.7582,-1.7582,-1.7582,-1.7582,-1.7582,-1.7582,-1.7582,-1.7582,-1.7582,-1.7582,-1.7582,-1.7582,-1.7582,-1.7582,-1.7582,-1.7582,-1.7529,-1.71,-1.6601,-1.6341,-1.5836,-1.5445,-1.5203,-1.5161,-1.5161,-1.5161,-1.5161,-1.5161,-1.5161,-1.5161,-1.5258,-1.5499,-1.5523,-1.5626,-1.5867,-1.5891,-1.5891,-1.5891,-1.5891,-1.5891,-1.5891,-1.5891,-1.5891,-1.5891,-1.5891,-1.5891,-1.5891,-1.5891,-1.6175,-1.67,-1.67,-1.6927,-1.7361,-1.7361,-1.7303,-1.712,-1.593,-1.5391,-1.5213,-1.4023,-1.2771,-1.1571,-1.1571,-1.0849,-0.9822,-2.5518,-2.5615,-2.5693,-2.5693,-2.5693,-2.5693,-2.5693,-2.5693,-2.5693,-2.5693,-2.5693,-2.5693,-2.5693,-2.5693,-2.5693,-2.5693,-2.5693,-2.5693,-2.5693,-2.5489,-2.5391,-2.5284,-2.4883,-2.4637,-2.448,-2.4341,-2.4251,-2.4202,-2.4202,-2.4202,-2.4202,-2.4202,-2.4202,-2.4202,-2.4202,-2.2979,-2.0885,-2.0885,-1.9642,-1.7582,-1.7582,-1.7582,-1.7582,-1.7582,-1.7582,-1.7582,-1.7582,-1.7582,-1.7582,-1.7582,-1.7582,-1.7582,-1.7582,-1.7582,-1.7582,-1.7582,-1.7582,-1.7582,-1.7582,-1.7582,-1.7582,-1.7582,-1.7582,-1.7582,-1.7582,-1.7582,-1.7477,-1.6995,-1.6783,-1.6552,-1.6072,-1.5901,-1.5777,-1.5716,-1.5704,-1.5704,-1.5704,-1.5704,-1.5704,-1.5704,-1.5704,-1.5728,-1.5795,-1.5801,-1.5819,-1.5885,-1.5891,-1.5891,-1.5891,-1.5891,-1.5891,-1.5891,-1.5891,-1.5891,-1.5891,-1.5891,-1.5891,-1.5891,-1.5891,-1.6175,-1.67,-1.67,-1.6464,-1.6048,-1.6048,-1.5515,-1.456,-1.4262,-1.3545,-1.2586,-1.229,-1.139,-1.0243,-1.0243,-1.0061,-0.9822,-2.5635,-2.5693,-2.5693,-2.5693,-2.5693,-2.5693,-2.5693,-2.5693,-2.5693,-2.5693,-2.5693,-2.5693,-2.5693,-2.5586,-2.5538,-2.5538,-2.5538,-2.5538,-2.5538,-2.5284,-2.5088,-2.4932,-2.4686,-2.444,-2.4341,-2.4251,-2.4202,-2.4202,-2.4202,-2.4202,-2.4202,-2.4202,-2.4202,-2.4202,-2.4202,-2.3229,-2.1599,-2.1089,-1.9908,-1.8304,-1.7786,-1.7582,-1.7582,-1.7582,-1.7582,-1.7582,-1.7582,-1.7582,-1.7582,-1.7582,-1.7582,-1.7582,-1.7582,-1.7582,-1.7582,-1.7582,-1.7582,-1.7582,-1.7582,-1.7582,-1.7582,-1.7582,-1.7582,-1.7582,-1.7582,-1.7536,-1.7325,-1.7008,-1.669,-1.6418,-1.6158,-1.5998,-1.5891,-1.5891,-1.5891,-1.5891,-1.5891,-1.5891,-1.5891,-1.5891,-1.5891,-1.5891,-1.5891,-1.5891,-1.5891,-1.5891,-1.5891,-1.5891,-1.5891,-1.5891,-1.5891,-1.5891,-1.5891,-1.5891,-1.5891,-1.5891,-1.5891,-1.5891,-1.6012,-1.629,-1.6706,-1.6193,-1.5872,-1.5575,-1.4976,-1.4321,-1.3665,-1.3071,-1.235,-1.1631,-1.1088,-1.0425,-0.9822,-0.9822,-0.9822,-0.9822,-2.5693,-2.5693,-2.5693,-2.5693,-2.5693,-2.5693,-2.5693,-2.5693,-2.5693,-2.5693,-2.5693,-2.5693,-2.5693,-2.544,-2.5284,-2.5284,-2.5235,-2.5186,-2.5235,-2.499,-2.4735,-2.4538,-2.4489,-2.439,-2.4202,-2.4202,-2.4202,-2.4202,-2.4202,-2.4202,-2.4202,-2.4202,-2.4202,-2.4202,-2.4202,-2.3488,-2.2215,-2.1293,-2.0158,-1.8864,-1.7996,-1.7582,-1.7582,-1.7582,-1.7582,-1.7582,-1.7582,-1.7582,-1.7582,-1.7582,-1.7582,-1.7582,-1.7582,-1.7582,-1.7582,-1.7582,-1.7582,-1.7582,-1.7582,-1.7582,-1.7582,-1.7582,-1.7582,-1.7582,-1.7582,-1.7378,-1.7179,-1.712,-1.6696,-1.6271,-1.6271,-1.6051,-1.5891,-1.5891,-1.5891,-1.5891,-1.5891,-1.5891,-1.5891,-1.5891,-1.5891,-1.5891,-1.5891,-1.5891,-1.5891,-1.5891,-1.5891,-1.5891,-1.5891,-1.5891,-1.5891,-1.5891,-1.5891,-1.5891,-1.5891,-1.5891,-1.591,-1.5952,-1.6175,-1.6447,-1.671,-1.5656,-1.5237,-1.5213,-1.3963,-1.3306,-1.3006,-1.1868,-1.139,-1.1329,-1.0243,-0.9822,-0.9822,-0.9822,-0.9822,-0.9822,-2.5693,-2.5693,-2.5693,-2.5693,-2.5693,-2.5693,-2.5693,-2.5693,-2.5693,-2.5693,-2.5693,-2.5693,-2.5693,-2.544,-2.5284,-2.5284,-2.4883,-2.4735,-2.4941,-2.4735,-2.4529,-2.448,-2.4341,-2.4251,-2.4202,-2.4202,-2.4202,-2.4202,-2.4202,-2.4202,-2.4202,-2.4202,-2.4202,-2.4202,-2.4202,-2.3079,-2.114,-2.0987,-1.9702,-1.7838,-1.7687,-1.7582,-1.7582,-1.7582,-1.7582,-1.7582,-1.7582,-1.7582,-1.7582,-1.7582,-1.7582,-1.7582,-1.7582,-1.7582,-1.7582,-1.7582,-1.7582,-1.7582,-1.7582,-1.7582,-1.7582,-1.7582,-1.7582,-1.7582,-1.7582,-1.7378,-1.712,-1.6842,-1.653,-1.6217,-1.5998,-1.5945,-1.5891,-1.5891,-1.5891,-1.5891,-1.5891,-1.5891,-1.5891,-1.5891,-1.5891,-1.5891,-1.5891,-1.5891,-1.5891,-1.5891,-1.5891,-1.5891,-1.5891,-1.5891,-1.5891,-1.5891,-1.5891,-1.5891,-1.5891,-1.5891,-1.6,-1.6223,-1.626,-1.6543,-1.6975,-1.5734,-1.4764,-1.3904,-1.259,-1.1386,-1.0361,-1.0183,-1.0061,-1.0061,-0.9879,-0.9822,-0.9822,-0.9822,-0.9822,-0.9822,-2.5693,-2.5693,-2.5693,-2.5693,-2.5693,-2.5693,-2.5693,-2.5693,-2.5645,-2.5489,-2.5489,-2.544,-2.5284,-2.5039,-2.4883,-2.4883,-2.4538,-2.439,-2.4489,-2.439,-2.4341,-2.4341,-2.4251,-2.4202,-2.4202,-2.4202,-2.4202,-2.4202,-2.4202,-2.4202,-2.4202,-2.4202,-2.4202,-2.4202,-2.4202,-2.3288,-2.1709,-2.114,-1.996,-1.8408,-1.7838,-1.7582,-1.7582,-1.7582,-1.7582,-1.7582,-1.7582,-1.7582,-1.7582,-1.7582,-1.7582,-1.7582,-1.7582,-1.7582,-1.7582,-1.7582,-1.7582,-1.7582,-1.7582,-1.7582,-1.7582,-1.7582,-1.7582,-1.7582,-1.743,-1.7166,-1.6849,-1.653,-1.6264,-1.6051,-1.5945,-1.5891,-1.5891,-1.5891,-1.5891,-1.5891,-1.5891,-1.5891,-1.5891,-1.5891,-1.5891,-1.5891,-1.5891,-1.5891,-1.5891,-1.5891,-1.5891,-1.5891,-1.5891,-1.5891,-1.5891,-1.5891,-1.5891,-1.5964,-1.6115,-1.6103,-1.6235,-1.6513,-1.6652,-1.6505,-1.6045,-1.4886,-1.3753,-1.253,-1.1269,-1.0365,-0.9822,-0.9822,-0.9822,-0.9822,-0.9822,-0.9822,-0.9822,-0.9822,-0.9822,-0.9822,-2.5693,-2.5693,-2.5693,-2.5693,-2.5693,-2.5693,-2.5693,-2.5693,-2.5586,-2.5333,-2.5284,-2.5186,-2.4932,-2.4686,-2.448,-2.448,-2.4341,-2.4202,-2.4202,-2.4202,-2.4202,-2.4202,-2.4202,-2.4202,-2.4202,-2.4202,-2.4202,-2.4202,-2.4202,-2.4202,-2.4202,-2.4202,-2.4202,-2.4202,-2.3895,-2.3188,-2.2064,-2.0987,-1.9849,-1.8767,-1.7943,-1.7582,-1.7582,-1.7582,-1.7582,-1.7582,-1.7582,-1.7582,-1.7582,-1.7582,-1.7582,-1.7582,-1.7582,-1.7582,-1.7582,-1.7582,-1.7582,-1.7582,-1.7582,-1.7582,-1.7582,-1.7582,-1.7582,-1.7536,-1.7279,-1.6955,-1.663,-1.6377,-1.6105,-1.5891,-1.5891,-1.5891,-1.5891,-1.5891,-1.5891,-1.5891,-1.5891,-1.5891,-1.5891,-1.5891,-1.5891,-1.5891,-1.5891,-1.5891,-1.5891,-1.5891,-1.5891,-1.5891,-1.5891,-1.5891,-1.5922,-1.5976,-1.5982,-1.6085,-1.6302,-1.6356,-1.6519,-1.6797,-1.6996,-1.6477,-1.5253,-1.4188,-1.2946,-1.1631,-1.0365,-0.9822,-0.9822,-0.9822,-0.9822,-0.9822,-0.9822,-0.9822,-0.9822,-0.9822,-0.9822,-0.9822,-2.5693,-2.5693,-2.5693,-2.5693,-2.5693,-2.5693,-2.5693,-2.5693,-2.5586,-2.5333,-2.5284,-2.5186,-2.4932,-2.4686,-2.448,-2.448,-2.4341,-2.4202,-2.4202,-2.4202,-2.4202,-2.4202,-2.4202,-2.4202,-2.4202,-2.4202,-2.4202,-2.4202,-2.4202,-2.4202,-2.4202,-2.4202,-2.4202,-2.4152,-2.3088,-2.2013,-2.0936,-1.9797,-1.8715,-1.7687,-1.7635,-1.7582,-1.7582,-1.7582,-1.7582,-1.7582,-1.7582,-1.7582,-1.7582,-1.7582,-1.7582,-1.7582,-1.7582,-1.7582,-1.7582,-1.7582,-1.7582,-1.7582,-1.7582,-1.7582,-1.7582,-1.7582,-1.7582,-1.7536,-1.7279,-1.6955,-1.663,-1.6377,-1.6105,-1.5891,-1.5891,-1.5891,-1.5891,-1.5891,-1.5891,-1.5891,-1.5891,-1.5891,-1.5891,-1.5891,-1.5891,-1.5891,-1.5891,-1.5891,-1.5891,-1.5891,-1.5891,-1.5891,-1.5891,-1.5891,-1.6,-1.6241,-1.6254,-1.626,-1.6284,-1.6537,-1.6803,-1.7062,-1.708,-1.657,-1.5548,-1.4252,-1.2946,-1.1631,-1.0365,-0.9822,-0.9822,-0.9822,-0.9822,-0.9822,-0.9822,-0.9822,-0.9822,-0.9822,-0.9822,-0.9822,-2.5693,-2.5693,-2.5693,-2.5693,-2.5693,-2.5693,-2.5693,-2.5538,-2.5333,-2.5088,-2.4883,-2.4735,-2.4489,-2.439,-2.4291,-2.4291,-2.4251,-2.4202,-2.4202,-2.4202,-2.4202,-2.4202,-2.4202,-2.4202,-2.4202,-2.4202,-2.4202,-2.4202,-2.4202,-2.4202,-2.4202,-2.4202,-2.4202,-2.4152,-2.3038,-2.1912,-2.0834,-1.9694,-1.8558,-1.7582,-1.7582,-1.7582,-1.7582,-1.7582,-1.7582,-1.7582,-1.7582,-1.7582,-1.7582,-1.7582,-1.7582,-1.7582,-1.7582,-1.7582,-1.7582,-1.7582,-1.7582,-1.7582,-1.7582,-1.7582,-1.7582,-1.7582,-1.7483,-1.7279,-1.6955,-1.6636,-1.6371,-1.6105,-1.5945,-1.5891,-1.5891,-1.5891,-1.5891,-1.5891,-1.5891,-1.5891,-1.5891,-1.5891,-1.5891,-1.5891,-1.5891,-1.5891,-1.5891,-1.5891,-1.5891,-1.5891,-1.5891,-1.5891,-1.5891,-1.6042,-1.6175,-1.6278,-1.661,-1.6785,-1.6785,-1.6893,-1.7074,-1.7334,-1.6564,-1.5547,-1.4381,-1.3066,-1.1748,-1.0482,-1.0004,-0.9822,-0.9822,-0.9822,-0.9822,-0.9822,-0.9822,-0.9822,-0.9822,-0.9822,-0.9822,-0.9822,-2.5693,-2.5693,-2.5693,-2.5693,-2.5693,-2.5693,-2.5693,-2.5489,-2.5186,-2.4932,-2.4686,-2.444,-2.4202,-2.4202,-2.4202,-2.4202,-2.4202,-2.4202,-2.4202,-2.4202,-2.4202,-2.4202,-2.4202,-2.4202,-2.4202,-2.4202,-2.4202,-2.4202,-2.4202,-2.4202,-2.4202,-2.4202,-2.4003,-2.3646,-2.2526,-2.1395,-2.0313,-1.9176,-1.8251,-1.7582,-1.7582,-1.7582,-1.7582,-1.7582,-1.7582,-1.7582,-1.7582,-1.7582,-1.7582,-1.7582,-1.7582,-1.7582,-1.7582,-1.7582,-1.7582,-1.7582,-1.7582,-1.7582,-1.7582,-1.7582,-1.7582,-1.7483,-1.7331,-1.7067,-1.669,-1.6424,-1.6217,-1.5945,-1.5891,-1.5891,-1.5891,-1.5891,-1.5891,-1.5891,-1.5891,-1.5891,-1.5891,-1.5891,-1.5891,-1.5891,-1.5891,-1.5891,-1.5891,-1.5891,-1.5891,-1.5891,-1.5891,-1.5928,-1.6006,-1.6187,-1.6362,-1.6531,-1.6899,-1.7129,-1.7213,-1.7213,-1.7304,-1.7479,-1.6231,-1.4917,-1.3665,-1.229,-1.1027,-0.9822,-0.9822,-0.9822,-0.9822,-0.9822,-0.9822,-0.9822,-0.9822,-0.9822,-0.9822,-0.9822,-0.9822,-0.9822,-2.5693,-2.5693,-2.5693,-2.5693,-2.5693,-2.5693,-2.5693,-2.5489,-2.5186,-2.4932,-2.4686,-2.444,-2.4202,-2.4202,-2.4202,-2.4202,-2.4202,-2.4202,-2.4202,-2.4202,-2.4202,-2.4202,-2.4202,-2.4202,-2.4202,-2.4202,-2.4202,-2.4202,-2.4202,-2.4202,-2.4202,-2.4202,-2.3587,-2.2476,-2.1344,-2.0261,-1.9124,-1.8048,-1.7582,-1.7582,-1.7582,-1.7582,-1.7582,-1.7582,-1.7582,-1.7582,-1.7582,-1.7582,-1.7582,-1.7582,-1.7582,-1.7582,-1.7582,-1.7582,-1.7582,-1.7582,-1.7582,-1.7582,-1.7582,-1.7582,-1.7529,-1.7279,-1.7179,-1.7014,-1.643,-1.6324,-1.6217,-1.5945,-1.5891,-1.5891,-1.5891,-1.5891,-1.5891,-1.5891,-1.5891,-1.5891,-1.5891,-1.5891,-1.5891,-1.5891,-1.5891,-1.5891,-1.5891,-1.5891,-1.5891,-1.5891,-1.5891,-1.6006,-1.6266,-1.6302,-1.6555,-1.7074,-1.7092,-1.7219,-1.7479,-1.7479,-1.7479,-1.7485,-1.6172,-1.4917,-1.3665,-1.229,-1.1027,-0.9822,-0.9822,-0.9822,-0.9822,-0.9822,-0.9822,-0.9822,-0.9822,-0.9822,-0.9822,-0.9822,-0.9822,-0.9822,-2.5693,-2.5693,-2.5693,-2.5693,-2.5693,-2.5693,-2.5693,-2.5489,-2.5186,-2.4932,-2.4686,-2.444,-2.4202,-2.4202,-2.4202,-2.4202,-2.4202,-2.4202,-2.4202,-2.4202,-2.4202,-2.4202,-2.4202,-2.4202,-2.4202,-2.4202,-2.4202,-2.4202,-2.4202,-2.4202,-2.4202,-2.3388,-2.2837,-2.2426,-2.0518,-1.9539,-1.9124,-1.8048,-1.7582,-1.7582,-1.7582,-1.7582,-1.7582,-1.7582,-1.7582,-1.7582,-1.7582,-1.7582,-1.7582,-1.7582,-1.7582,-1.7582,-1.7582,-1.7582,-1.7582,-1.7582,-1.7582,-1.7582,-1.7378,-1.7331,-1.7279,-1.7232,-1.7014,-1.6736,-1.6377,-1.6164,-1.5998,-1.5945,-1.5891,-1.5891,-1.5891,-1.5891,-1.5891,-1.5891,-1.5891,-1.5891,-1.5891,-1.5891,-1.5891,-1.5891,-1.5891,-1.5891,-1.5891,-1.5891,-1.5891,-1.5891,-1.606,-1.6199,-1.6278,-1.6646,-1.693,-1.7086,-1.6442,-1.6099,-1.6166,-1.6166,-1.6166,-1.6172,-1.3899,-1.2646,-1.223,-1.0967,-1.0183,-0.9822,-0.9822,-0.9822,-0.9822,-0.9822,-0.9822,-0.9822,-0.9822,-0.9822,-0.9822,-0.9822,-0.9822,-0.9822,-2.5693,-2.5693,-2.5693,-2.5693,-2.5693,-2.5635,-2.5538,-2.5333,-2.5039,-2.4784,-2.4538,-2.4341,-2.4202,-2.4202,-2.4202,-2.4202,-2.4202,-2.4202,-2.4202,-2.4202,-2.4202,-2.4202,-2.4202,-2.4202,-2.4202,-2.4202,-2.4202,-2.4202,-2.3746,-2.3546,-2.3488,-2.2367,-2.165,-2.1132,-1.9797,-1.8968,-1.8506,-1.7891,-1.7582,-1.7582,-1.7582,-1.7582,-1.7582,-1.7582,-1.7582,-1.7582,-1.7582,-1.7582,-1.7582,-1.7582,-1.7582,-1.7582,-1.7582,-1.7582,-1.7582,-1.7582,-1.7536,-1.7437,-1.7226,-1.712,-1.6955,-1.6855,-1.669,-1.6477,-1.6217,-1.5998,-1.5891,-1.5891,-1.5891,-1.5891,-1.5891,-1.5891,-1.5891,-1.5891,-1.5891,-1.5891,-1.5891,-1.5891,-1.5891,-1.5891,-1.5891,-1.5891,-1.5891,-1.5891,-1.5934,-1.6036,-1.6296,-1.6489,-1.6598,-1.6911,-1.7141,-1.7243,-1.6152,-1.5575,-1.5575,-1.4555,-1.4321,-1.4798,-1.2706,-1.1692,-1.1631,-1.0365,-0.9822,-0.9822,-0.9822,-0.9822,-0.9822,-0.9822,-0.9822,-0.9822,-0.9822,-0.9822,-0.9822,-0.9822,-0.9822,-0.9822,-2.5693,-2.5693,-2.5693,-2.5693,-2.5684,-2.5586,-2.5333,-2.5079,-2.4784,-2.4529,-2.4341,-2.4202,-2.4202,-2.4202,-2.4202,-2.4202,-2.4202,-2.4202,-2.4202,-2.4202,-2.4202,-2.4202,-2.4202,-2.4202,-2.4202,-2.4202,-2.4202,-2.4202,-2.3038,-2.2476,-2.2476,-2.1293,-2.021,-1.9176,-1.9124,-1.8506,-1.7582,-1.7582,-1.7582,-1.7582,-1.7582,-1.7582,-1.7582,-1.7582,-1.7582,-1.7582,-1.7582,-1.7582,-1.7582,-1.7582,-1.7582,-1.7582,-1.7582,-1.7582,-1.7582,-1.7582,-1.7378,-1.7179,-1.7126,-1.6902,-1.6577,-1.6324,-1.6271,-1.6217,-1.5945,-1.5891,-1.5891,-1.5891,-1.5891,-1.5891,-1.5891,-1.5891,-1.5891,-1.5891,-1.5891,-1.5891,-1.5891,-1.5891,-1.5891,-1.5891,-1.5891,-1.5891,-1.5891,-1.591,-1.6036,-1.6302,-1.6579,-1.6839,-1.708,-1.7117,-1.7179,-1.7355,-1.6107,-1.5391,-1.5273,-1.2766,-1.223,-1.3485,-1.2169,-1.1511,-1.1511,-1.0304,-0.9822,-0.9822,-0.9822,-0.9822,-0.9822,-0.9822,-0.9822,-0.9822,-0.9822,-0.9822,-0.9822,-0.9822,-0.9822,-0.9822,-2.5693,-2.5693,-2.5693,-2.5693,-2.5538,-2.5391,-2.5294,-2.5079,-2.4784,-2.4529,-2.444,-2.439,-2.4202,-2.4202,-2.4202,-2.4202,-2.4202,-2.4202,-2.4202,-2.4202,-2.4202,-2.4202,-2.4202,-2.4202,-2.4202,-2.4202,-2.4202,-2.4202,-2.3038,-2.2476,-2.2476,-2.0467,-1.9435,-1.9176,-1.8304,-1.7838,-1.7582,-1.7582,-1.7582,-1.7582,-1.7582,-1.7582,-1.7582,-1.7582,-1.7582,-1.7582,-1.7582,-1.7582,-1.7582,-1.7582,-1.7582,-1.7582,-1.7582,-1.7582,-1.7582,-1.7331,-1.7232,-1.712,-1.6643,-1.643,-1.6324,-1.6051,-1.5998,-1.5945,-1.5891,-1.5891,-1.5891,-1.5891,-1.5891,-1.5891,-1.5891,-1.5891,-1.5891,-1.5891,-1.5891,-1.5891,-1.5891,-1.5891,-1.5891,-1.5891,-1.5891,-1.5891,-1.5891,-1.6072,-1.6314,-1.6585,-1.6857,-1.7032,-1.7086,-1.7286,-1.7009,-1.6048,-1.4798,-1.3605,-1.2586,-1.0967,-1.0846,-1.2113,-1.0846,-1.0183,-1.0183,-0.994,-0.9822,-0.9822,-0.9822,-0.9822,-0.9822,-0.9822,-0.9822,-0.9822,-0.9822,-0.9822,-0.9822,-0.9822,-0.9822,-0.9822,-2.5489,-2.5391,-2.5333,-2.5333,-2.5186,-2.5088,-2.4932,-2.4784,-2.4637,-2.439,-2.4341,-2.4341,-2.4202,-2.4202,-2.4202,-2.4202,-2.4202,-2.4202,-2.4202,-2.4202,-2.4202,-2.4202,-2.4202,-2.3954,-2.3388,-2.3388,-2.3388,-2.3388,-2.1743,-2.0928,-2.0877,-1.9228,-1.8454,-1.8401,-1.7838,-1.7582,-1.7582,-1.7582,-1.7582,-1.7582,-1.7582,-1.7582,-1.7582,-1.7582,-1.7582,-1.7582,-1.7582,-1.7582,-1.7582,-1.7582,-1.7582,-1.7582,-1.7582,-1.7529,-1.7378,-1.7226,-1.702,-1.6702,-1.6377,-1.6217,-1.6057,-1.5945,-1.5891,-1.5891,-1.5891,-1.5891,-1.5891,-1.5891,-1.5891,-1.5891,-1.5891,-1.5891,-1.5891,-1.5891,-1.5891,-1.5891,-1.5891,-1.5891,-1.5891,-1.5891,-1.6,-1.6133,-1.6266,-1.6513,-1.673,-1.6875,-1.7129,-1.728,-1.728,-1.6874,-1.629,-1.5628,-1.3725,-1.241,-1.1692,-1.0425,-1.0122,-1.0785,-1.0122,-0.9822,-0.9822,-0.9822,-0.9822,-0.9822,-0.9822,-0.9822,-0.9822,-0.9822,-0.9822,-0.9822,-0.9822,-0.9822,-0.9822,-0.9822,-0.9822,-0.9822,-2.5284,-2.5088,-2.4883,-2.4883,-2.4883,-2.4784,-2.4529,-2.4489,-2.439,-2.4202,-2.4202,-2.4202,-2.4202,-2.4202,-2.4202,-2.4202,-2.4202,-2.4202,-2.4202,-2.4003,-2.3895,-2.3895,-2.3737,-2.3179,-2.2274,-2.2064,-2.2013,-2.2224,-2.021,-1.9176,-1.9176,-1.8094,-1.7582,-1.7582,-1.7582,-1.7582,-1.7582,-1.7582,-1.7582,-1.7582,-1.7582,-1.7582,-1.7582,-1.7582,-1.7582,-1.7582,-1.7582,-1.7582,-1.7582,-1.7582,-1.7582,-1.7529,-1.7529,-1.7325,-1.712,-1.7067,-1.6696,-1.6271,-1.6217,-1.6051,-1.5891,-1.5891,-1.5891,-1.5891,-1.5891,-1.5891,-1.5891,-1.5891,-1.5891,-1.5891,-1.5891,-1.5891,-1.5891,-1.5891,-1.5891,-1.5903,-1.5952,-1.5958,-1.5976,-1.6024,-1.6223,-1.6459,-1.6742,-1.6966,-1.7111,-1.7153,-1.7358,-1.7485,-1.7485,-1.629,-1.5515,-1.5273,-1.2946,-1.1571,-1.139,-1.0304,-0.9822,-0.9822,-0.9822,-0.9822,-0.9822,-0.9822,-0.9822,-0.9822,-0.9822,-0.9822,-0.9822,-0.9822,-0.9822,-0.9822,-0.9822,-0.9822,-0.9822,-0.9822,-0.9822,-0.9822,-2.5284,-2.5088,-2.4883,-2.4883,-2.4686,-2.4529,-2.4538,-2.4341,-2.4251,-2.4202,-2.4202,-2.4202,-2.4202,-2.4202,-2.4202,-2.4202,-2.4202,-2.4202,-2.4202,-2.3288,-2.2728,-2.2728,-2.1853,-2.1293,-2.114,-2.0158,-2.0107,-2.114,-1.9849,-1.9176,-1.9176,-1.8094,-1.7582,-1.7582,-1.7582,-1.7582,-1.7582,-1.7582,-1.7582,-1.7582,-1.7582,-1.7582,-1.7582,-1.7582,-1.7582,-1.7582,-1.7582,-1.7582,-1.7582,-1.7582,-1.743,-1.7226,-1.7226,-1.7008,-1.6736,-1.6483,-1.6377,-1.6271,-1.5998,-1.5945,-1.5891,-1.5891,-1.5891,-1.5891,-1.5891,-1.5891,-1.5891,-1.5891,-1.5891,-1.5891,-1.5891,-1.5891,-1.5891,-1.5891,-1.5891,-1.597,-1.6193,-1.6229,-1.632,-1.6561,-1.6622,-1.6748,-1.7014,-1.7074,-1.7189,-1.7412,-1.7461,-1.7485,-1.7485,-1.629,-1.5095,-1.3963,-1.247,-1.1148,-1.0061,-0.9879,-0.9822,-0.9822,-0.9822,-0.9822,-0.9822,-0.9822,-0.9822,-0.9822,-0.9822,-0.9822,-0.9822,-0.9822,-0.9822,-0.9822,-0.9822,-0.9822,-0.9822,-0.9822,-0.9822,-0.9761,-2.5088,-2.4794,-2.4489,-2.4489,-2.439,-2.4341,-2.4341,-2.4251,-2.4202,-2.4202,-2.4202,-2.4202,-2.4202,-2.4202,-2.4202,-2.4202,-2.4202,-2.3954,-2.3288,-2.2778,-2.2224,-2.165,-2.114,-2.0621,-1.9952,-1.9487,-1.9124,-1.9079,-1.8558,-1.8304,-1.8304,-1.7838,-1.7582,-1.7582,-1.7582,-1.7582,-1.7582,-1.7582,-1.7582,-1.7582,-1.7582,-1.7582,-1.7582,-1.7582,-1.7582,-1.7582,-1.7582,-1.7582,-1.7582,-1.743,-1.7279,-1.7179,-1.6955,-1.6743,-1.6477,-1.6324,-1.6164,-1.6051,-1.5945,-1.5891,-1.5891,-1.5891,-1.5891,-1.5891,-1.5891,-1.5891,-1.5891,-1.5891,-1.5891,-1.5891,-1.5891,-1.5891,-1.594,-1.6085,-1.6109,-1.6205,-1.6477,-1.6513,-1.6616,-1.6887,-1.6917,-1.7026,-1.7286,-1.731,-1.7358,-1.7473,-1.7485,-1.7485,-1.7485,-1.5634,-1.4262,-1.3725,-1.1687,-1.0365,-0.9822,-0.9822,-0.9822,-0.9822,-0.9822,-0.9822,-0.9822,-0.9822,-0.9822,-0.9822,-0.9822,-0.9822,-0.9822,-0.9822,-0.9822,-0.9822,-0.9822,-0.97,-0.9518,-0.9518,-0.9396,-0.9278]},{"header":{"parameterUnit":"m.s-1","parameterCategory":1,"la1":30.6,"la2":28.766,"lo1":-90.7593,"lo2":-88.6598,"dy":0.0162,"dx":0.0183,"nx":116,"ny":114,"refTime":"2023-08-30T06:00:00:Z","depth":0,"parameterNumber":3,"parameterNumberName":"V-component_of_WINDS"},"data":[0.0,0.0,0.0,0.0,0.0,0.0,0.0,0.0,0.0,0.0,0.0,0.0,0.0,0.0,0.0,0.0,0.0,0.0,0.0,0.0,0.0,0.0,0.0,0.0,0.0,0.0,0.0,0.0,0.0,0.0,0.0,0.0,0.0,0.0,0.0,0.0,0.0,0.0,0.0,0.0,0.0,0.0,0.0,0.0,0.0,0.0,0.0,0.0,0.0,0.0,0.0,0.0,0.0,0.0,0.0,0.0,0.0,0.0,0.0,0.0,0.0,0.0,0.0,0.0,0.0,0.0,0.0,0.0,0.0,0.0,0.0,0.0,0.0,0.0,0.0,0.0,0.0,0.0,0.0,0.0,0.0,0.0,0.0,0.0,0.0,0.0,0.0,0.0,0.0,0.0,0.0,0.0,0.0,0.0,0.0,0.0,0.0,0.0,0.0,0.0,0.0,0.0,0.0,0.0,0.0,0.0,0.0,0.0,0.0,0.0,0.0,0.0,0.0,0.0,0.0,0.0,0.0,0.0,0.0,0.0,0.0,0.0,0.0,0.0,0.0,0.0,0.0,0.0,0.0,0.0,0.0,0.0,0.0,0.0,0.0,0.0,0.0,0.0,0.0,0.0,0.0,0.0,0.0,0.0,0.0,0.0,0.0,0.0,0.0,0.0,0.0,0.0,0.0,0.0,0.0,0.0,0.0,0.0,0.0,0.0,0.0,0.0,0.0,0.0,0.0,0.0,0.0,0.0,0.0,0.0,0.0,0.0,0.0,0.0,0.0,0.0,0.0,0.0,0.0,0.0,0.0,0.0,0.0,0.0,0.0,0.0,0.0,0.0,0.0,0.0,0.0,0.0,0.0,0.0,0.0,0.0,0.0,0.0,0.0,0.0,0.0,0.0,0.0,0.0,0.0,0.0,0.0,0.0,0.0,0.0,0.0,0.0,0.0,0.0,0.0,0.0,0.0,0.0,0.0,0.0,0.0,0.0,0.0,0.0,0.0,0.0,0.0,0.0,0.0,0.0,0.0,0.0,0.0,0.0,0.0,0.0,0.0,0.0,0.0,0.0,0.0,0.0,0.0,0.0,0.0,0.0,0.0,0.0,0.0,0.0,0.0,0.0,0.0,0.0,0.0,0.0,0.0,0.0,0.0,0.0,0.0,0.0,0.0,0.0,0.0,0.0,0.0,0.0,0.0,0.0,0.0,0.0,0.0,0.0,0.0,0.0,0.0,0.0,0.0,0.0,0.0,0.0,0.0,0.0,0.0,0.0,0.0,0.0,0.0,0.0,0.0,0.0,0.0,0.0,0.0,0.0,0.0,0.0,0.0,0.0,0.0,0.0,0.0,0.0,0.0,0.0,0.0,0.0,0.0,0.0,0.0,0.0,0.0,0.0,0.0,0.0,0.0,0.0,0.0,0.0,0.0,0.0,0.0,0.0,0.0,0.0,0.0,0.0,0.0,0.0,0.0,0.0,0.0,0.0,0.0,0.0,0.0,0.0,0.0,0.0,0.0,0.0,0.0,0.0,0.0,0.0,0.0,0.0,0.0,0.0,0.0,0.0,0.0,0.0,0.0,0.0,0.0,0.0,0.0,0.0,0.0,0.0,0.0,0.0,0.0,0.0,0.0,0.0,0.0,0.0,0.0,0.0,0.0,0.0,0.0,0.0,0.0,0.0,0.0,0.0,0.0,0.0,0.0,0.0,0.0,0.0,0.0,0.0,0.0,0.0,0.0,0.0,0.0,0.0,0.0,0.0,0.0,0.0,0.0,0.0,0.0,0.0,0.0,0.0,0.0,0.0,0.0,0.0,0.0,0.0,0.0,0.0,0.0,0.0,0.0,0.0,0.0,0.0,0.0,0.0,0.0,0.0,0.0,0.0,0.0,0.0,0.0,0.0,0.0,0.0,0.0,0.0,0.0,0.0,0.0,0.0,0.0,0.0,0.0,0.0,0.0,0.0,0.0,0.0,0.0,0.0,0.0,0.0,0.0,0.0,0.0,0.0,0.0,0.0,0.0,0.0,0.0,0.0,0.0,0.0,0.0,0.0,0.0,0.0,0.0,0.0,0.0,0.0,0.0,0.0,0.0,0.0,0.0,0.0,0.0,0.0,0.0,0.0,0.0,0.0,0.0,0.0,0.0,0.0,0.0,0.0,0.0,0.0,0.0,0.0,0.0,0.0,0.0,0.0,0.0,0.0,0.0,0.0,0.0,0.0,0.0,0.0,0.0,0.0,0.0,0.0,0.0,0.0,0.0,0.0,0.0,0.0,0.0,0.0,0.0,0.0,0.0,0.0,0.0,0.0,0.0,0.0,0.0,0.0,0.0,0.0,0.0,0.0,0.0,0.0,0.0,0.0,0.0,0.0,0.0,0.0,0.0,0.0,0.0,0.0,0.0,0.0,0.0,0.0,0.0,0.0,0.0,0.0,0.0,0.0,0.0,0.0,0.0,0.0,0.0,0.0,0.0,0.0,0.0,0.0,0.0,0.0,0.0,0.0,0.0,0.0,0.0,0.0,0.0,0.0,0.0,0.0,0.0,0.0,0.0,0.0,0.0,0.0,0.0,0.0,0.0,0.0,0.0,0.0,0.0,0.0,0.0,0.0,0.0,0.0,0.0,0.0,0.0,0.0,0.0,0.0,0.0,0.0,0.0,0.0,0.0,0.0,0.0,0.0,0.0,0.0,0.0,0.0,0.0,0.0,0.0,0.0,0.0,0.0,0.0,0.0,0.0,0.0,0.0,0.0,0.0,0.0,0.0,0.0,0.0,0.0,0.0,0.0,0.0,0.0,0.0,0.0,0.0,0.0,0.0,0.0,0.0,0.0,0.0,0.0,0.0,0.0,0.0,0.0,0.0,0.0,0.0,0.0,0.0,0.0,0.0,0.0,0.0,0.0,0.0,0.0,0.0,0.0,0.0,0.0,0.0,0.0,0.0,0.0,0.0,0.0,0.0,0.0,0.0,0.0,0.0,0.0,0.0,0.0,0.0,0.0,0.0,0.0,0.0,0.0,0.0,0.0,0.0,0.0,0.0,0.0,0.0,0.0,0.0,0.0,0.0,0.0,0.0,0.0,0.0,0.0,0.0,0.0,0.0,0.0,0.0,0.0,0.0,0.0,0.0,0.0,0.0,0.0,0.0,0.0,0.0,0.0,0.0,0.0,0.0,0.0,0.0,0.0,0.0,0.0,0.0,0.0,0.0,0.0,0.0,0.0,0.0,0.0,0.0,0.0,0.0,0.0,0.0,0.0,0.0,0.0,0.0,0.0,0.0,0.0,0.0,0.0,0.0,0.0,0.0,0.0,0.0,0.0,0.0,0.0,0.0,0.0,0.0,0.0,0.0,0.0,0.0,0.0,0.0,0.0,0.0,0.0,0.0,0.0,0.0,0.0,0.0,0.0,0.0,0.0,0.0,0.0,0.0,0.0,0.0,0.0,0.0,0.0,0.0,0.0,0.0,0.0,0.0,0.0,0.0,0.0,0.0,0.0,0.0,0.0,0.0,0.0,0.0,0.0,0.0,0.0,0.0,0.0,0.0,0.0,0.0,0.0,0.0,0.0,0.0,0.0,0.0,0.0,0.0,0.0,0.0,0.0,0.0,0.0,0.0,0.0,0.0,0.0,0.0,0.0,0.0,0.0,0.0,0.0,0.0,0.0,0.0,0.0,0.0,0.0,0.0,0.0,0.0,0.0,0.0,0.0,0.0,0.0,0.0,0.0,0.0,0.0,0.0,0.0,0.0,0.0,0.0,0.0,0.0,0.0,0.0,0.0,0.0,0.0,0.0,0.0,0.0,0.0,0.0,0.0,0.0,0.0,0.0,0.0,0.0,0.0,0.0,0.0,0.0,0.0,0.0,0.0,0.0,0.0,0.0,0.0,0.0,0.0,0.0,0.0,0.0,0.0,0.0,0.0,0.0,0.0,0.0,0.0,0.0,0.0,0.0,0.0,0.0,0.0,0.0,0.0,0.0,0.0,0.0,0.0,0.0,0.0,0.0,0.0,0.0,0.0,0.0,0.0,0.0,0.0,0.0,0.0,0.0,0.0,0.0,0.0,0.0,0.0,0.0,0.0,0.0,0.0,0.0,0.0,0.0,0.0,0.0,0.0,0.0,0.0,0.0,0.0,0.0,0.0,0.0,0.0,0.0,0.0,0.0,0.0,0.0,0.0,0.0,0.0,0.0,0.0,0.0,0.0,0.0,0.0,0.0,0.0,0.0,0.0,0.0,0.0,0.0,0.0,0.0,0.0,0.0,0.0,0.0,0.0,0.0,0.0,0.0,0.0,0.0,0.0,0.0,0.0,0.0,0.0,0.0,0.0,0.0,0.0,0.0,0.0,0.0,0.0,0.0,0.0,0.0,0.0,0.0,0.0,0.0,0.0,0.0,0.0,0.0,0.0,0.0,0.0,0.0,0.0,0.0,0.0,0.0,0.0,0.0,0.0,0.0,0.0,0.0,0.0,0.0,0.0,0.0,0.0,0.0,0.0,0.0,0.0,0.0,0.0,0.0,0.0,0.0,0.0,0.0,0.0,0.0,0.0,0.0,0.0,0.0,0.0,0.0,0.0,0.0,0.0,0.0,0.0,0.0,0.0,0.0,0.0,0.0,0.0,0.0,0.0,0.0,0.0,0.0,0.0,0.0,0.0,0.0,0.0,0.0,0.0,0.0,0.0,0.0,0.0,0.0,0.0,0.0,0.0,0.0,0.0,0.0,0.0,0.0,0.0,0.0,0.0,0.0,0.0,0.0,0.0,0.0,0.0,0.0,0.0,0.0,0.0,0.0,0.0,0.0,0.0,0.0,0.0,0.0,0.0,0.0,0.0,0.0,0.0,0.0,0.0,0.0,0.0,0.0,0.0,0.0,0.0,0.0,0.0,0.0,0.0,0.0,0.0,0.0,0.0,0.0,0.0,0.0,0.0,0.0,0.0,0.0,0.0,0.0,0.0,0.0,0.0,0.0,0.0,0.0,0.0,0.0,0.0,0.0,0.0,0.0,0.0,0.0,0.0,0.0,0.0,0.0,0.0,0.0,0.0,0.0,0.0,0.0,0.0,0.0,0.0,0.0,0.0,0.0,0.0,0.0,0.0,0.0,0.0,0.0,0.0,0.0,0.0,0.0,0.0,0.0,0.0,0.0,0.0,0.0,0.0,0.0,0.0,0.0,0.0,0.0,0.0,0.0,0.0,0.0,0.0,0.0,0.0,0.0,0.0,0.0,0.0,0.0,0.0,0.0,0.0,0.0,0.0,0.0,0.0,0.0,0.0,0.0,0.0,0.0,0.0,0.0,0.0,0.0,0.0,0.0,0.0,0.0,0.0,0.0,0.0,0.0,0.0,0.0,0.0,0.0,0.0,0.0,0.0,0.0,0.0,0.0,0.0,0.0,0.0,0.0,0.0,0.0,0.0,0.0,0.0,0.0,0.0,0.0,0.0,0.0,0.0,0.0,0.0,0.0,0.0,0.0,0.0,0.0,0.0,0.0,0.0,0.0,0.0,0.0,0.0,0.0,0.0,0.0,0.0,0.0,0.0,0.0,0.0,0.0,0.0,0.0,0.0,0.0,0.0,0.0,0.0,0.0,0.0,0.0,0.0,0.0,0.0,0.0,0.0,0.0,0.0,0.0,0.0,0.0,0.0,0.0,0.0,0.0,0.0,0.0,0.0,0.0,0.0,0.0,0.0,0.0,0.0,0.0,0.0,0.0,0.0,0.0,0.0,0.0,0.0,0.0,0.0,0.0,0.0,0.0,0.0,0.0,0.0,0.0,0.0,0.0,0.0,0.0,0.0,0.0,0.0,0.0,0.0,0.0,0.0,0.0,0.0,0.0,0.0,0.0,0.0,0.0,0.0,0.0,0.0,0.0,0.0,0.0,0.0,0.0,0.0,0.0,0.0,0.0,0.0,0.0,0.0,0.0,0.0,0.0,0.0,0.0,0.0,0.0,0.0,0.0,0.0,0.0,0.0,0.0,0.0,0.0,0.0,0.0,0.0,0.0,0.0,0.0,0.0,0.0,0.0,0.0,0.0,0.0,0.0,0.0,0.0,0.0,0.0,0.0,0.0,0.0,0.0,0.0,0.0,0.0,0.0,0.0,0.0,0.0,0.0,2.7188,2.6806,0.0,0.0,0.0,0.0,0.0,0.0,0.0,0.0,0.0,0.0,0.0,0.0,0.0,0.0,0.0,0.0,0.0,0.0,0.0,0.0,0.0,0.0,0.0,0.0,0.0,0.0,0.0,0.0,0.0,0.0,0.0,0.0,0.0,0.0,0.0,0.0,0.0,3.1511,3.1597,3.1597,3.1511,3.1511,3.1511,3.1511,0.0,0.0,0.0,0.0,0.0,0.0,0.0,0.0,0.0,0.0,0.0,0.0,0.0,0.0,0.0,0.0,0.0,0.0,0.0,0.0,0.0,0.0,0.0,0.0,0.0,0.0,0.0,0.0,0.0,0.0,0.0,0.0,0.0,0.0,0.0,0.0,0.0,0.0,0.0,0.0,0.0,0.0,0.0,0.0,0.0,0.0,0.0,0.0,0.0,0.0,0.0,0.0,0.0,0.0,0.0,0.0,0.0,0.0,0.0,0.0,0.0,0.0,0.0,0.0,0.0,0.0,0.0,0.0,0.0,0.0,2.8011,2.7721,0.0,0.0,0.0,0.0,0.0,0.0,0.0,0.0,0.0,0.0,0.0,0.0,0.0,0.0,0.0,0.0,0.0,0.0,0.0,0.0,0.0,0.0,0.0,2.9453,2.9639,3.1205,3.094,3.097,0.0,0.0,0.0,0.0,0.0,0.0,0.0,3.1756,3.1756,3.1597,3.1756,3.1756,3.1597,3.1597,3.1597,3.1582,3.1539,0.0,0.0,0.0,0.0,0.0,0.0,0.0,0.0,0.0,0.0,0.0,0.0,0.0,0.0,0.0,0.0,0.0,0.0,0.0,0.0,0.0,0.0,0.0,0.0,0.0,0.0,0.0,0.0,0.0,0.0,0.0,0.0,0.0,0.0,0.0,0.0,0.0,0.0,0.0,0.0,0.0,0.0,0.0,0.0,0.0,0.0,0.0,0.0,0.0,0.0,0.0,0.0,0.0,0.0,0.0,0.0,0.0,0.0,0.0,0.0,0.0,0.0,0.0,2.9857,2.9609,2.9128,2.9128,2.9128,2.9128,2.9128,2.8969,2.8665,2.8115,0.0,0.0,0.0,0.0,0.0,0.0,0.0,0.0,0.0,0.0,0.0,0.0,0.0,0.0,0.0,0.0,0.0,0.0,0.0,0.0,0.0,2.9324,2.9792,2.9463,2.9915,3.0463,3.1073,0.0,0.0,0.0,0.0,0.0,3.194,3.1968,3.1968,3.194,3.1968,3.1968,3.194,3.194,3.194,3.194,3.1611,3.1511,3.1511,0.0,0.0,0.0,0.0,0.0,0.0,0.0,0.0,0.0,0.0,0.0,0.0,0.0,0.0,0.0,0.0,0.0,0.0,0.0,0.0,0.0,0.0,0.0,0.0,0.0,0.0,0.0,0.0,0.0,0.0,0.0,0.0,0.0,0.0,0.0,0.0,0.0,0.0,0.0,0.0,0.0,3.1087,3.1043,0.0,0.0,0.0,0.0,0.0,0.0,0.0,0.0,0.0,0.0,0.0,0.0,0.0,3.0866,3.1014,3.0866,3.0822,3.0896,3.0896,3.0852,3.0793,3.0793,3.0793,3.0793,3.0793,0.0,2.8694,2.8607,0.0,0.0,0.0,0.0,0.0,0.0,0.0,0.0,0.0,0.0,0.0,0.0,0.0,0.0,0.0,0.0,0.0,0.0,0.0,0.0,0.0,2.8912,2.9279,2.973,2.9699,3.007,3.1058,3.1043,0.0,0.0,0.0,3.1996,3.1996,3.2066,3.2122,3.2122,3.2038,3.1996,3.1996,3.1996,3.1996,3.1996,3.1855,3.1783,3.1783,3.1783,0.0,0.0,0.0,0.0,0.0,0.0,0.0,0.0,0.0,0.0,0.0,0.0,0.0,0.0,0.0,0.0,0.0,0.0,0.0,0.0,0.0,0.0,0.0,0.0,0.0,0.0,0.0,0.0,0.0,0.0,0.0,0.0,0.0,0.0,0.0,0.0,0.0,0.0,0.0,3.1292,3.1205,3.1205,3.1132,3.1132,0.0,0.0,0.0,0.0,0.0,0.0,0.0,0.0,0.0,3.1589,3.1529,3.1705,3.2164,3.2073,3.2073,3.2164,3.2164,3.2164,3.2164,3.2164,3.2164,3.2164,3.2164,3.1764,3.1042,2.9928,2.9488,2.9444,0.0,0.0,0.0,0.0,2.9015,2.9015,0.0,0.0,0.0,0.0,0.0,0.0,0.0,0.0,0.0,0.0,0.0,0.0,2.8908,2.8605,2.8785,2.9792,2.9418,2.9608,3.0704,3.0822,3.1073,3.1596,3.1925,3.2114,3.2125,3.2394,3.2415,3.2247,3.2318,3.2353,3.2353,3.2564,3.2656,3.2656,3.2656,3.2401,3.1996,3.1996,3.1996,3.1996,0.0,0.0,0.0,0.0,0.0,0.0,0.0,0.0,0.0,0.0,0.0,0.0,0.0,0.0,0.0,0.0,0.0,0.0,0.0,0.0,0.0,0.0,0.0,0.0,0.0,0.0,0.0,0.0,0.0,0.0,0.0,0.0,0.0,0.0,0.0,0.0,0.0,3.1558,3.1589,3.1589,3.1664,3.1738,0.0,0.0,0.0,0.0,0.0,0.0,3.1723,3.1723,3.193,3.239,3.2344,3.258,3.3115,3.3099,3.3099,3.313,3.313,3.313,3.313,3.313,3.313,3.313,3.3114,3.3114,3.2997,3.1279,3.0586,3.0527,2.9864,2.9599,2.9613,2.9655,2.9655,2.9683,0.0,0.0,0.0,0.0,0.0,0.0,0.0,0.0,0.0,0.0,0.0,2.8587,2.8619,2.8587,2.8619,2.8683,2.8651,2.8912,2.9535,3.0178,3.0554,3.0584,3.1722,3.241,3.2466,3.3037,3.3044,3.2398,3.3016,3.3323,3.3339,3.406,3.4368,3.4368,3.4368,3.3487,3.1996,3.1996,3.1996,3.1996,3.1996,0.0,0.0,0.0,0.0,0.0,0.0,0.0,0.0,0.0,0.0,0.0,0.0,0.0,0.0,0.0,0.0,0.0,0.0,0.0,0.0,0.0,0.0,0.0,0.0,0.0,0.0,0.0,0.0,0.0,0.0,0.0,0.0,0.0,0.0,0.0,0.0,0.0,0.0,3.2437,3.299,0.0,0.0,0.0,0.0,3.3395,3.3395,3.3395,3.3395,3.3395,3.3379,3.3409,3.3301,3.3331,3.3469,3.336,3.336,3.3469,3.3469,3.3469,3.3469,3.3469,3.3469,3.3469,3.3469,3.3469,3.3394,3.2345,3.1883,3.1824,3.125,3.1014,3.1014,3.113,3.1188,3.1217,0.0,0.0,0.0,0.0,0.0,0.0,0.0,0.0,2.8476,2.8476,2.8554,2.8587,2.8587,2.8587,2.8587,2.8587,2.8587,2.8849,2.9442,2.9721,3.0254,3.1116,3.2,3.2666,3.3067,3.3284,3.329,3.3044,3.3752,3.412,3.4091,3.4382,3.4505,3.4505,3.4505,3.4169,3.3608,3.3608,3.3608,3.3608,3.3461,3.3403,0.0,0.0,0.0,0.0,0.0,0.0,0.0,0.0,0.0,0.0,0.0,0.0,0.0,0.0,0.0,0.0,0.0,0.0,0.0,0.0,0.0,0.0,0.0,0.0,0.0,0.0,0.0,0.0,0.0,0.0,0.0,0.0,0.0,0.0,0.0,0.0,0.0,3.314,3.335,0.0,3.3499,3.3499,3.3499,3.3499,3.3499,3.3499,3.3499,3.3499,3.3694,3.4144,3.4097,3.4306,3.4786,3.4737,3.4737,3.4786,3.4786,3.4786,3.4786,3.4786,3.4786,3.4786,3.4786,3.4786,3.4741,3.3913,3.3346,3.2958,3.2735,3.2646,3.2646,3.2706,3.2736,3.2721,0.0,0.0,0.0,0.0,0.0,0.0,0.0,0.0,2.8587,2.8587,2.8587,2.8587,2.8587,2.8587,2.8587,2.8587,2.8587,2.8766,2.9156,2.9393,2.9896,3.0799,3.1882,3.2766,3.3385,3.3644,3.3767,3.3767,3.4505,3.4844,3.4844,3.5075,3.5183,3.5183,3.5183,3.5183,3.5183,3.5183,3.4921,3.4505,3.4342,3.4297,3.4356,0.0,0.0,0.0,0.0,0.0,0.0,0.0,0.0,0.0,0.0,0.0,0.0,0.0,0.0,0.0,0.0,0.0,0.0,0.0,0.0,0.0,0.0,0.0,0.0,0.0,0.0,0.0,0.0,0.0,0.0,0.0,0.0,0.0,0.0,3.3679,3.3829,3.3829,3.4038,3.4173,3.4173,3.4173,3.4173,3.4173,3.4173,3.4173,3.4173,3.4173,3.4382,3.4801,3.4848,3.504,3.5504,3.5504,3.5504,3.5504,3.5504,3.5504,3.5504,3.5504,3.5504,3.5504,3.5504,3.5504,3.5474,3.5011,3.4562,3.4128,3.3679,3.3499,3.3499,3.3499,3.3499,3.3499,0.0,0.0,0.0,0.0,0.0,0.0,0.0,2.8587,2.8587,2.8587,2.8587,2.8587,2.8587,2.8587,2.8587,2.8587,2.8587,2.8587,2.8587,2.9139,2.9497,2.9541,3.1393,3.276,3.3416,3.4166,3.4536,3.4536,3.5213,3.5537,3.5568,3.6184,3.6492,3.6492,3.6492,3.6492,3.6492,3.6492,3.5737,3.4566,3.4566,3.4566,3.4566,0.0,0.0,0.0,0.0,0.0,0.0,0.0,0.0,0.0,0.0,0.0,0.0,0.0,0.0,0.0,0.0,0.0,0.0,0.0,0.0,0.0,0.0,0.0,0.0,0.0,0.0,0.0,0.0,0.0,0.0,0.0,0.0,0.0,3.377,3.4098,3.4533,3.4533,3.51,3.5504,3.5504,3.5504,3.5504,3.5504,3.5504,3.5504,3.5504,3.5504,3.5504,3.5504,3.5504,3.5519,3.5534,3.5534,3.5549,3.5564,3.5564,3.5564,3.5564,3.5549,3.5534,3.5534,3.5519,3.5504,3.5504,3.5504,3.5504,3.537,3.4068,3.3559,3.3559,3.3559,3.3559,3.3559,0.0,0.0,0.0,0.0,0.0,0.0,2.8587,2.8587,2.8587,2.8587,2.8587,2.8587,2.8587,2.8587,2.8587,2.8587,2.8587,2.8587,2.8587,2.8766,2.9493,3.0891,3.2362,3.3465,3.4168,3.489,3.5244,3.5244,3.5891,3.6215,3.6215,3.6399,3.6492,3.6492,3.6492,3.6492,3.6492,3.6492,3.6276,3.5938,3.5938,3.5938,3.5938,0.0,0.0,0.0,0.0,0.0,0.0,0.0,0.0,0.0,0.0,0.0,0.0,0.0,0.0,0.0,0.0,0.0,0.0,0.0,0.0,0.0,0.0,0.0,0.0,0.0,0.0,0.0,0.0,0.0,0.0,0.0,3.5688,3.5503,3.5028,3.5115,3.522,3.522,3.5385,3.5504,3.5504,3.5504,3.5504,3.5504,3.5504,3.5504,3.5504,3.5504,3.5504,3.5504,3.5504,3.5729,3.6207,3.6222,3.6447,3.6881,3.6881,3.6881,3.6866,3.6417,3.6222,3.6193,3.5714,3.5504,3.5504,3.5504,3.5504,3.5474,3.51,3.4951,3.4951,3.4951,3.4951,3.4951,0.0,0.0,0.0,0.0,0.0,0.0,2.8587,2.8587,2.8587,2.8587,2.8587,2.8587,2.8587,2.8587,2.8587,2.8587,2.8587,2.8587,2.8587,2.9063,2.9982,3.1439,3.272,3.3766,3.4489,3.5167,3.566,3.5907,3.6307,3.6492,3.6492,3.6492,3.6492,3.6492,3.6492,3.6492,3.6492,3.6492,3.6492,3.6492,3.6492,3.6492,3.6492,3.6492,3.6492,3.6492,3.6492,3.6492,3.6492,3.6492,0.0,0.0,0.0,0.0,0.0,0.0,0.0,0.0,0.0,0.0,0.0,0.0,0.0,0.0,0.0,0.0,0.0,0.0,0.0,0.0,0.0,0.0,0.0,0.0,3.5911,3.5863,3.5733,3.5636,3.5572,3.5504,3.5504,3.5504,3.5504,3.5504,3.5624,3.5893,3.5923,3.6028,3.6282,3.6312,3.6312,3.6312,3.6312,3.6492,3.6866,3.6881,3.7045,3.7404,3.7404,3.7404,3.7404,3.7045,3.6881,3.6851,3.6477,3.6312,3.6312,3.6312,3.6148,3.5893,0.0,0.0,0.0,0.0,3.5504,3.5504,0.0,0.0,0.0,0.0,0.0,0.0,2.8505,2.8492,2.8492,2.8492,2.8492,2.8519,2.8587,2.8587,2.8587,2.8587,2.8587,2.8619,2.8716,2.978,3.0735,3.1481,3.2811,3.3819,3.4475,3.5244,3.5891,3.6492,3.6492,3.6492,3.6492,3.6492,3.6492,3.6492,3.6492,3.6492,3.6492,3.6492,3.6492,3.6492,3.6492,3.6492,3.6492,3.6492,3.6492,3.6492,3.6492,3.6492,3.6492,3.6492,0.0,0.0,0.0,0.0,0.0,0.0,0.0,0.0,0.0,0.0,0.0,0.0,0.0,0.0,0.0,0.0,0.0,0.0,0.0,0.0,0.0,0.0,0.0,0.0,3.6196,3.6148,3.6037,3.5923,3.5793,3.5569,3.5597,3.5624,3.5609,3.5669,3.5968,3.6552,3.6596,3.6836,3.7375,3.7404,0.0,0.0,0.0,3.7449,3.7524,3.7524,3.7554,3.7644,3.7644,3.7644,3.7629,3.7554,3.7524,3.7524,3.7434,3.7404,3.7404,3.7404,3.709,3.6522,3.5789,3.5504,3.5504,3.5504,3.5504,3.5504,0.0,0.0,0.0,0.0,0.0,0.0,2.7949,2.7881,2.7881,2.7881,2.7881,2.8058,2.8546,2.8587,2.8587,2.8587,2.8587,2.8798,2.93,3.0048,3.0805,3.1451,3.327,3.4342,3.4505,3.5706,3.6368,3.6492,3.6492,3.6492,3.6492,3.6492,3.6492,3.6492,3.6492,3.6492,3.6492,3.6492,3.6492,3.6492,3.6492,3.6492,3.6492,3.6492,3.6492,3.6492,3.6492,3.6492,3.6492,3.6492,3.6492,3.6616,3.7208,3.7417,0.0,0.0,0.0,0.0,0.0,0.0,0.0,0.0,0.0,0.0,0.0,0.0,0.0,0.0,0.0,0.0,0.0,0.0,0.0,3.6211,3.6196,3.6148,3.6037,3.6525,3.6582,3.5763,3.6135,3.6415,3.633,3.6746,3.709,3.7225,3.724,3.7285,3.7404,3.7404,3.7404,3.7404,3.7404,3.7659,3.8197,3.8197,3.8482,3.9,3.9,0.0,3.9005,3.8452,3.8197,3.8167,3.7644,3.7404,3.7404,3.7404,3.7345,3.712,3.5953,3.5504,3.5504,3.5504,3.5504,3.5504,0.0,0.0,0.0,0.0,0.0,0.0,2.7759,2.7447,2.724,2.724,2.724,2.7488,2.8085,2.8153,2.8261,2.856,2.8587,2.9008,2.995,3.0299,3.0925,3.1908,3.3577,3.4505,3.4505,3.5799,3.6492,3.6492,3.6492,3.6492,3.6492,3.6492,3.6492,3.6492,3.6492,3.6492,3.6492,3.6492,3.6492,3.6492,3.6492,3.6492,3.6492,3.6492,3.6492,3.6492,3.6492,3.6492,3.6492,3.6492,3.6492,3.6554,3.6831,3.6952,3.6952,0.0,0.0,0.0,0.0,0.0,0.0,0.0,0.0,0.0,0.0,0.0,0.0,0.0,0.0,3.6492,3.6492,0.0,3.6352,3.6352,3.6628,3.6826,3.6762,3.7376,3.748,3.647,3.692,3.731,3.7258,3.753,3.7828,3.8193,3.8209,3.834,3.8672,3.8632,3.8547,3.8547,3.8442,3.8571,3.8901,3.8901,3.908,3.9388,3.9388,3.9388,3.9373,3.9065,3.8901,3.8886,3.8556,3.8407,3.8392,3.8167,3.8052,3.7961,3.7086,3.6628,3.6417,3.6103,3.5998,3.5953,0.0,0.0,0.0,0.0,0.0,0.0,0.0,2.6945,2.6616,2.6616,2.6616,2.6888,2.7623,2.7705,2.7949,2.8546,2.8587,2.9135,3.0434,3.0494,3.1072,3.2327,3.3765,3.4505,3.4505,3.5799,3.6492,3.6492,3.6492,3.6492,3.6492,3.6492,3.6492,3.6492,3.6492,3.6492,3.6492,3.6492,3.6492,3.6492,3.6492,3.6492,3.6492,3.6492,3.6492,3.6492,3.6492,3.6492,3.6492,3.6492,3.6492,3.6492,3.6492,3.6492,3.6492,3.6492,3.6492,0.0,0.0,0.0,0.0,0.0,0.0,0.0,0.0,3.6492,3.6492,3.6492,3.6492,3.6492,3.6492,3.6599,3.6692,3.6692,3.7261,3.7692,3.7692,3.8277,3.8394,3.7595,3.7925,3.8226,3.8193,3.8314,3.8618,3.915,3.9195,3.9438,3.9965,3.996,3.9964,3.9964,3.9905,3.9871,3.9835,3.9835,3.9835,3.9798,3.9679,3.9568,3.9604,3.9448,3.9409,3.9445,3.9496,3.9496,3.9451,3.9088,3.8967,3.8907,3.8535,3.8186,3.7807,3.7091,3.6805,3.6715,0.0,0.0,0.0,0.0,0.0,0.0,0.0,0.0,2.5995,2.5995,2.5995,2.643,2.7583,2.7705,2.7949,2.8546,2.8587,2.9135,3.0434,3.0494,3.1072,3.2327,3.3765,3.4505,3.4505,3.5799,3.6492,3.6492,3.6492,3.6492,3.6492,3.6492,3.6492,3.6492,3.6492,3.6492,3.6492,3.6492,3.6492,3.6492,3.6492,3.6492,3.6492,3.6492,3.6492,3.6492,3.6492,3.6492,3.6492,3.6492,3.6492,3.6492,3.6492,3.6492,3.6492,3.6492,3.6492,3.6492,3.6492,3.6492,3.6492,3.6492,3.6492,3.6492,0.0,3.6492,3.6492,3.6492,3.6492,3.6492,3.6492,3.6984,3.7384,3.7384,3.7954,3.84,3.84,3.8985,3.9336,3.9226,3.9137,3.9032,3.8911,3.9419,3.9813,3.9874,3.9889,3.992,4.0011,4.0521,4.084,4.084,4.1431,4.1608,4.1445,4.1445,4.1333,4.116,4.0561,4.0292,4.0277,3.9694,3.9481,3.9696,3.9854,3.9818,3.9681,3.9799,3.9854,3.9854,3.9798,3.9733,3.9546,3.8292,3.7822,3.7907,0.0,0.0,0.0,0.0,0.0,0.0,0.0,0.0,0.0,2.5385,2.5385,2.5697,2.6552,2.7284,2.7949,2.8546,2.8587,2.9135,3.0434,3.0494,3.1072,3.2327,3.3336,3.4073,3.4489,3.5414,3.6107,3.6492,3.6492,3.6492,3.6492,3.6492,3.6492,3.6492,3.6492,3.6492,3.6492,3.6492,3.6492,3.6492,3.6492,3.6492,3.6492,3.6492,3.6492,3.6492,3.6492,3.6492,0.0,3.6492,3.6492,3.6492,3.6492,3.6492,3.6492,3.6492,3.6492,3.6492,3.6492,3.6492,3.6492,3.6492,3.6492,3.6492,3.6492,3.6492,3.6492,3.6492,3.6799,3.7076,3.7076,3.7631,3.8092,3.8092,3.8662,3.9059,3.9059,3.9644,4.0074,4.0074,4.0393,4.0416,3.9933,4.0495,4.0924,4.0924,4.1275,4.1505,4.1505,4.1677,4.1757,4.1757,4.1921,4.1947,4.1873,4.1873,4.1835,4.1761,4.1489,4.1316,4.1301,4.1029,4.0755,4.0465,4.0552,4.0324,3.9889,4.0101,4.0172,4.0172,4.0261,4.0296,4.0139,3.9006,3.8828,3.915,0.0,0.0,0.0,0.0,0.0,0.0,0.0,0.0,0.0,0.0,2.5005,2.529,2.6063,2.7081,2.7949,2.8546,2.8766,2.931,3.0434,3.0673,3.1262,3.2342,3.3044,3.3737,3.4489,3.5167,3.5845,3.6492,3.6492,3.6492,3.6492,3.6492,3.6492,3.6492,3.6492,3.6492,3.6492,3.6492,3.6492,3.6492,3.6492,3.6492,3.6492,3.6492,3.6492,3.6492,3.6492,3.6492,3.6492,3.6492,3.6492,3.6492,3.6492,3.6492,3.6492,3.6492,3.6492,3.6492,3.6492,3.6492,3.6492,3.6492,3.6492,3.6492,3.6492,3.663,3.6769,3.6769,3.7307,3.7784,3.7784,3.8323,3.8785,3.8785,3.9354,3.9767,3.9767,4.0182,4.0566,4.0766,4.1278,4.1463,4.1089,4.1571,4.1878,4.1878,4.234,4.2602,4.2602,4.2646,4.2665,4.2665,4.2701,4.2696,4.2605,4.2605,4.2621,4.2546,4.2348,4.2272,4.2257,4.2149,4.18,4.1271,4.138,4.1035,4.0375,4.0602,4.055,4.0366,4.0681,4.0783,4.0672,3.9973,3.989,4.0098,0.0,0.0,0.0,0.0,0.0,0.0,0.0,0.0,0.0,0.0,0.0,0.0,0.0,2.7339,2.7949,2.8546,2.9139,2.9766,3.045,3.1116,3.1737,3.2355,3.3044,3.3737,3.4489,3.5167,3.5845,3.6492,3.6492,3.6492,3.6492,3.6492,3.6492,3.6492,3.6492,3.6492,3.6492,3.6492,3.6492,3.6492,3.6492,3.6492,3.6492,3.6492,3.6492,3.6492,3.6492,3.6492,3.6492,3.6492,3.6492,3.6492,3.6492,3.6492,3.6492,3.6492,3.6492,3.6492,3.6492,3.6492,3.6492,3.6492,3.6492,3.6492,3.6492,3.6999,3.7477,3.7477,3.8,3.8477,3.8477,3.9031,3.9459,3.9459,4.0028,4.0459,4.0459,4.0489,4.0751,4.1478,4.1586,4.1848,0.0,4.2571,4.2586,4.2586,4.2602,4.2602,4.2602,4.3202,4.3578,4.3578,4.4172,4.445,4.422,4.422,4.4143,4.3912,4.3259,4.2955,4.294,4.2511,4.2154,4.2006,4.2389,4.2063,4.1291,4.1484,4.112,4.0558,4.1209,4.1459,4.1459,4.1444,4.1026,4.0581,0.0,0.0,0.0,0.0,0.0,0.0,0.0,0.0,0.0,0.0,0.0,0.0,0.0,0.0,0.0,0.0,2.9393,2.9966,3.1087,3.097,3.1305,3.2355,3.2613,3.3059,3.3752,3.4474,3.5167,3.583,3.6276,3.6492,3.6492,3.6492,3.6492,3.6492,3.6492,3.6492,3.6492,3.6492,3.6492,3.6492,3.6492,3.6492,3.6492,3.6492,3.6492,3.6492,0.0,3.6492,3.6492,3.6492,3.6492,3.6492,3.6492,3.6492,3.6492,3.6492,3.6492,3.6492,3.6492,3.6492,3.6599,3.7046,3.7153,3.7277,3.7738,3.8,3.8169,3.8169,3.8708,3.9136,3.9136,3.9705,4.0151,4.0151,4.0336,4.0489,4.0489,4.0905,4.1324,4.1571,4.2371,0.0,0.0,0.0,0.0,4.3285,4.3664,4.3925,4.3925,4.4148,4.4271,4.4271,4.4502,4.4572,4.4496,4.4496,4.4473,4.4396,4.4167,4.4059,4.4044,4.389,4.3552,4.3085,4.3712,4.3557,4.2949,4.3484,4.3053,4.2016,4.2717,4.2348,4.1558,4.1981,4.2013,4.1804,0.0,0.0,0.0,0.0,0.0,0.0,0.0,0.0,0.0,0.0,0.0,0.0,0.0,0.0,0.0,0.0,0.0,3.0058,3.1422,3.1087,3.132,3.2355,3.2398,3.2705,3.3398,3.386,3.4582,3.5506,3.5922,3.6261,3.6492,3.6492,3.6492,3.6492,3.6492,3.6492,3.6492,3.6492,3.6492,3.6492,3.6492,3.6492,3.6492,3.6492,3.6492,0.0,3.6492,3.6492,3.6492,3.6492,3.6492,3.6492,3.6492,3.6492,3.6492,3.6492,3.6492,3.6492,3.6492,3.6661,3.6953,3.7384,3.7677,3.7984,3.8415,3.8708,3.8877,3.8877,3.9367,3.9844,3.9844,4.0197,4.0489,4.0489,4.0489,4.0489,4.0489,4.114,4.1694,4.1925,4.2946,4.3701,0.0,0.0,0.0,4.3978,4.4379,4.461,4.461,4.461,4.461,4.461,4.461,4.461,4.461,4.461,4.4723,4.4993,4.4993,4.5142,4.5384,4.5384,4.5149,4.4762,4.523,4.5077,4.4507,4.4979,4.4493,4.3519,4.4203,4.3716,4.2703,4.3114,4.309,4.2769,0.0,0.0,0.0,0.0,0.0,0.0,0.0,0.0,0.0,0.0,0.0,0.0,0.0,0.0,0.0,0.0,0.0,0.0,3.1451,3.1508,3.1766,3.2355,3.2398,3.269,3.3336,3.3383,3.4044,3.5368,3.5475,3.5845,3.6445,3.6476,3.6492,3.6492,3.6492,3.6492,3.6492,3.6492,3.6492,3.6492,3.6492,3.6492,3.6492,3.6492,3.6492,3.6492,3.6492,3.6492,3.6492,3.6492,3.6492,3.6492,3.6492,3.6492,3.6492,3.6492,3.6492,3.6492,3.6492,3.6984,3.7507,3.7538,3.8061,3.8569,3.86,3.9075,3.9536,3.9536,4.0043,4.0489,0.0,0.0,4.0489,4.0489,4.0489,4.0489,4.0489,4.117,4.1894,0.0,0.0,0.0,0.0,0.0,0.0,4.461,0.0,4.461,4.461,4.461,4.461,4.461,4.461,4.461,4.461,4.4648,4.5008,4.5697,4.5733,4.6111,4.6811,4.6811,4.6811,4.6811,4.6846,4.6507,4.5908,4.5942,4.5569,4.4984,4.5641,4.5429,4.4768,4.4799,4.4301,4.3502,0.0,0.0,0.0,0.0,0.0,0.0,0.0,0.0,0.0,0.0,0.0,0.0,0.0,0.0,0.0,0.0,0.0,0.0,3.2102,3.1737,3.1766,3.2355,3.2398,3.2475,3.2644,3.3136,3.3583,3.3937,3.4983,3.5598,3.5783,3.6261,3.6492,3.6492,3.6492,3.6492,3.6492,3.6492,3.6492,3.6492,3.6492,3.6492,3.6492,3.6492,3.6492,3.6492,3.6492,3.6492,3.6492,3.6492,3.6492,3.6492,3.6492,3.6492,3.6492,3.6492,3.6492,3.6492,3.6492,3.6984,3.7631,3.8123,3.8769,3.94,3.9859,4.0105,4.0243,4.0243,4.0366,4.0489,4.0489,4.0489,4.0489,4.0489,4.0489,0.0,4.0489,4.155,0.0,4.2586,0.0,4.4425,4.4594,4.461,0.0,0.0,4.461,4.461,4.461,4.461,4.461,4.461,4.461,4.461,4.461,4.5142,4.5515,4.5697,4.6253,4.6604,4.6811,4.6811,4.6811,4.6846,4.7389,4.7507,4.7408,4.7975,4.7478,4.6431,4.7094,4.6611,4.5576,4.6096,4.5791,4.5105,0.0,0.0,0.0,0.0,0.0,0.0,0.0,0.0,0.0,0.0,0.0,0.0,0.0,0.0,0.0,0.0,0.0,0.0,0.0,3.1656,3.1766,3.2355,3.2398,3.2398,3.2398,3.2767,3.3106,3.3398,3.4183,3.4722,3.5075,3.546,3.5799,3.6045,3.6045,3.6215,3.6492,3.6492,3.6492,0.0,0.0,3.6492,3.6492,3.6492,3.6492,3.6492,3.6492,3.6492,3.6492,3.6492,3.6492,3.6492,3.6492,3.6492,3.6492,3.6492,3.6492,3.6492,3.6492,3.72,3.8031,3.8415,3.9247,4.0028,4.0397,4.0489,4.0413,4.0105,4.0043,3.9967,3.9659,3.9844,4.0043,0.0,0.0,0.0,4.0489,4.1724,4.2602,0.0,4.3771,0.0,4.461,4.461,4.461,4.461,4.461,4.461,4.461,4.461,4.461,4.461,4.461,4.461,4.461,4.5311,4.5877,4.6182,4.6932,4.7456,4.777,4.777,4.777,4.777,4.821,4.837,4.8401,4.8829,4.8514,4.7862,4.8222,4.7706,4.6759,4.7157,4.6819,4.6143,0.0,0.0,0.0,0.0,0.0,0.0,0.0,0.0,0.0,0.0,0.0,0.0,0.0,0.0,0.0,0.0,0.0,0.0,0.0,0.0,3.176,3.2355,3.2398,3.2398,3.2398,3.2398,3.2675,3.3275,3.3367,3.3721,3.4366,3.4459,3.4813,3.5383,3.5475,3.5814,3.6368,3.6445,3.6492,3.6492,3.6492,3.6492,3.6492,0.0,3.6492,3.6492,3.6492,3.6492,3.6492,3.6492,3.6492,3.6492,3.6492,3.6492,3.6492,3.6492,3.6492,3.6492,3.6492,3.7415,3.84,3.8492,3.9428,4.0382,4.0474,4.0428,4.0197,3.9613,3.949,3.9305,3.8754,3.92,3.9613,3.9613,0.0,4.0489,4.0489,4.1724,4.2602,4.2602,4.3771,4.461,4.461,4.461,4.461,4.461,4.461,4.461,4.461,4.461,4.461,4.461,4.461,4.4648,4.4761,4.5494,4.6218,4.6949,4.7688,4.837,4.9001,4.9001,4.9001,4.9001,4.9001,4.9001,4.9001,4.9001,4.9001,4.9001,4.9001,4.8612,4.8041,4.8041,4.7581,4.6853,0.0,0.0,0.0,0.0,0.0,0.0,0.0,0.0,0.0,0.0,2.76,2.7625,0.0,0.0,0.0,0.0,0.0,0.0,0.0,0.0,0.0,3.2367,3.2398,3.2398,3.2398,3.2398,3.2459,3.2567,3.3121,3.3475,3.3598,3.4227,3.4566,3.4705,3.526,3.5568,3.5691,3.6245,3.6492,3.6492,3.6492,3.6492,3.6492,3.6492,0.0,0.0,3.6492,3.6492,3.6492,3.6492,3.6492,3.6492,3.6492,3.6492,3.6492,3.6492,3.6492,3.6492,3.6492,3.7076,3.7815,3.8369,3.9108,3.9797,4.0366,4.0059,0.0,3.9505,3.949,3.9444,3.9336,3.9859,4.032,4.032,4.0413,4.0489,4.0489,4.1724,4.2602,0.0,4.3771,4.461,4.461,4.461,0.0,0.0,4.461,4.461,4.461,4.461,4.461,4.461,4.461,4.4896,4.5494,4.6253,4.6983,4.7721,4.845,4.8861,4.9001,4.9001,4.9001,4.9001,4.9001,4.9001,4.9001,4.9001,4.9001,4.9001,4.9001,4.8934,4.8815,4.8815,4.8342,4.7669,0.0,0.0,0.0,0.0,0.0,0.0,0.0,2.76,2.76,2.76,2.76,2.76,2.76,2.7715,2.7911,0.0,0.0,0.0,0.0,0.0,0.0,0.0,0.0,0.0,3.2398,3.2398,3.2398,3.2398,0.0,3.2875,3.289,3.3229,3.3583,3.3921,3.4245,3.4799,3.5537,3.583,3.6168,3.6492,3.6492,3.6492,3.6492,0.0,0.0,0.0,0.0,3.6492,3.6492,3.6492,3.6492,3.6492,3.6492,3.6492,3.6492,3.6492,3.6492,3.6492,3.6492,3.6984,3.7584,3.7908,3.8492,3.9077,3.9367,0.0,0.0,3.8985,3.8985,3.8985,3.8985,3.9521,3.9967,3.9967,4.0259,4.0489,4.0489,4.1724,4.2602,4.2602,4.3771,4.461,4.461,4.461,4.461,4.461,4.4971,4.4993,4.461,4.461,4.461,4.461,4.4971,4.5348,4.5697,4.6795,4.7556,4.7917,4.8656,4.9001,4.9001,4.9001,4.9001,4.9001,4.9001,4.9001,4.9001,4.9001,4.9001,4.9001,4.9001,4.9001,4.9001,4.9001,4.8781,4.8426,0.0,0.0,0.0,0.0,0.0,0.0,0.0,2.776,2.776,2.776,2.766,2.76,2.76,2.7675,2.7765,0.0,0.0,0.0,0.0,0.0,0.0,0.0,0.0,0.0,0.0,0.0,0.0,3.2398,3.2398,0.0,0.0,0.0,0.0,0.0,3.3336,3.4014,3.506,3.5383,3.5784,0.0,0.0,3.6492,0.0,0.0,0.0,0.0,0.0,0.0,3.6492,3.6492,3.6492,3.6492,3.6492,3.6492,3.6492,3.6492,3.6492,3.6492,3.6492,3.6876,3.7323,3.7461,3.7908,3.8323,3.8477,3.84,3.8338,3.8477,3.8508,3.8554,3.8708,3.9244,3.9705,3.9705,4.0151,4.0489,4.0489,4.1724,4.2602,0.0,4.3771,0.0,4.461,4.4746,0.0,4.4821,4.5531,4.566,4.5104,4.5067,4.5067,4.5067,4.5624,4.6005,4.6182,4.7305,4.7982,4.8129,4.8719,4.9001,4.9001,4.9001,4.9001,4.9001,4.9001,4.9001,4.9001,4.9001,4.9001,4.9001,4.9001,4.9001,4.9001,4.9001,4.9001,4.8917,0.0,0.0,0.0,0.0,0.0,0.0,0.0,2.8231,2.8231,2.8231,2.787,2.76,2.76,2.7625,2.7625,0.0,0.0,0.0,0.0,0.0,0.0,0.0,0.0,0.0,0.0,0.0,0.0,3.2398,3.2398,0.0,0.0,0.0,0.0,0.0,0.0,3.3475,3.3675,3.4953,0.0,0.0,0.0,0.0,0.0,0.0,0.0,0.0,0.0,3.6492,3.6492,3.6492,0.0,3.6492,3.6492,3.6492,3.6492,3.6492,0.0,0.0,3.6492,3.6538,3.6738,3.7353,3.7554,3.7754,3.8369,0.0,3.7769,3.8385,3.8508,3.8708,3.929,3.9951,4.0397,4.0397,4.0459,4.0489,4.0489,4.1724,4.2602,4.2602,0.0,0.0,4.461,4.5216,4.5588,4.5588,4.6288,4.6673,4.6604,4.6604,4.6604,4.6604,4.6673,4.7017,4.7671,4.7819,4.8242,4.8909,4.897,4.9001,4.9001,4.9001,4.9001,4.9001,4.9001,4.9001,4.9001,4.9001,4.9001,4.9001,4.9001,4.9001,4.9001,4.9001,4.9001,4.8984,0.0,0.0,0.0,0.0,0.0,0.0,2.8732,2.8779,2.8779,2.8779,2.8328,2.8027,2.8027,2.7785,2.76,2.76,0.0,0.0,0.0,0.0,0.0,0.0,0.0,0.0,0.0,0.0,3.2398,3.2398,3.2398,0.0,0.0,0.0,0.0,0.0,0.0,3.3013,3.3444,3.3998,0.0,0.0,0.0,0.0,0.0,0.0,0.0,0.0,0.0,0.0,3.6492,3.6492,3.6492,0.0,3.6492,3.6492,0.0,0.0,3.6492,3.6492,3.6492,3.6492,3.6553,3.683,3.6892,3.6969,3.723,0.0,3.7692,3.8369,3.8831,3.929,3.9967,4.032,4.0489,4.0489,4.0836,4.0956,4.0558,4.2047,4.3235,4.3255,4.446,0.0,0.0,0.0,4.6569,4.7001,4.7305,4.7655,4.8113,4.7288,4.6811,4.6811,4.7221,4.7622,4.7885,4.8338,4.8719,4.9001,4.9001,4.9001,4.9001,4.9001,4.9001,4.9001,4.9001,4.9001,4.9001,4.9001,4.9001,4.9001,4.9001,4.9001,4.9001,4.9001,4.9001,4.9001,0.0,0.0,0.0,0.0,0.0,2.9132,2.9289,2.9303,2.9303,2.9303,2.8732,2.8288,2.8288,2.7894,2.766,2.7795,2.7685,0.0,0.0,0.0,0.0,0.0,0.0,0.0,0.0,0.0,3.2198,3.2398,3.2398,3.2398,0.0,0.0,3.2398,3.2398,0.0,0.0,0.0,0.0,0.0,0.0,0.0,0.0,0.0,0.0,0.0,0.0,0.0,0.0,0.0,0.0,0.0,0.0,0.0,0.0,3.6723,0.0,3.6492,3.6492,3.6492,3.6492,3.6492,3.6492,3.6631,3.6723,0.0,0.0,3.79,3.8402,3.9013,3.969,4.0366,4.0646,4.0817,4.0817,4.136,4.1641,4.1142,4.2724,4.3936,4.3988,0.0,4.6218,4.6742,4.6983,4.7422,4.8161,4.8242,4.845,4.897,4.8016,4.7456,4.7456,4.7967,4.8242,4.8242,4.8719,4.9001,4.9001,4.9001,4.9001,4.9001,4.9001,4.9001,4.9001,4.9001,4.9001,4.9001,4.9001,4.9001,4.9001,4.9001,4.9001,4.9001,4.9001,4.9001,4.9001,0.0,0.0,0.0,0.0,0.0,0.0,2.9907,2.9793,2.9793,2.9793,2.8927,2.8288,2.8288,2.7894,2.7795,2.8255,2.787,0.0,0.0,0.0,0.0,0.0,0.0,0.0,0.0,0.0,3.1747,3.2398,3.2398,3.2398,3.2398,3.2398,3.2398,3.2398,0.0,0.0,0.0,0.0,0.0,0.0,0.0,0.0,0.0,0.0,0.0,0.0,0.0,0.0,0.0,0.0,0.0,0.0,0.0,0.0,0.0,0.0,3.6492,3.6492,3.6492,3.6492,3.6492,3.6492,3.6952,3.7238,3.6631,3.7483,3.8403,3.8484,3.9013,3.969,4.0366,4.1057,4.1492,4.1492,4.2046,4.2489,4.2489,4.3767,4.4674,0.0,4.5937,4.6777,4.6811,4.7456,4.8193,4.894,4.9001,4.9001,4.9001,4.9001,4.897,4.897,4.897,4.9001,4.9001,4.9001,4.9001,4.9001,4.9001,4.9001,4.9001,4.9001,4.9001,4.9001,4.9001,4.9001,4.9001,4.9001,4.9001,4.9001,4.9001,4.9001,4.9001,4.9001,4.9001,4.9001,0.0,0.0,0.0,0.0,0.0,0.0,0.0,3.0279,3.0279,3.0279,2.9728,2.9332,2.9332,2.8896,2.8677,2.8842,2.8091,0.0,0.0,0.0,0.0,0.0,0.0,0.0,0.0,0.0,3.1846,3.1732,3.2167,3.2398,3.2398,3.2398,3.2398,3.2425,3.2761,3.2949,0.0,0.0,0.0,0.0,0.0,0.0,0.0,0.0,0.0,0.0,0.0,0.0,0.0,0.0,0.0,0.0,0.0,0.0,0.0,3.778,3.7133,3.6585,3.7013,3.7134,3.7013,3.66,3.7252,3.7854,3.7268,3.815,3.9218,3.9687,3.9999,4.052,4.1674,4.1673,4.1641,4.2109,4.2738,4.3015,0.0,0.0,0.0,4.5449,4.7119,4.8306,0.0,4.8513,4.8767,4.897,4.9001,4.9001,4.9001,4.9001,4.9001,4.9001,4.9001,4.9001,4.9001,4.9001,4.9001,4.9001,4.9001,4.9001,4.9001,4.9001,4.9001,4.9001,4.9001,4.9001,4.9001,4.9001,4.9001,4.9001,4.9001,4.9001,4.9001,4.9001,4.9001,4.9001,0.0,0.0,0.0,0.0,0.0,0.0,0.0,3.0506,3.0506,3.0506,3.0092,2.9793,2.9793,2.9371,2.9166,2.9348,2.863,0.0,0.0,0.0,0.0,0.0,0.0,0.0,0.0,3.1223,3.1918,3.1658,3.2369,3.2695,3.2695,3.2695,3.2803,3.3002,3.3355,3.3495,0.0,0.0,0.0,0.0,0.0,0.0,3.9109,0.0,0.0,0.0,0.0,0.0,0.0,0.0,0.0,0.0,0.0,0.0,0.0,0.0,3.7953,3.7252,3.7621,3.7738,3.765,3.7282,3.7924,0.0,3.8219,3.9163,4.0257,4.0726,4.1056,4.1525,4.2363,4.2426,4.2489,4.2831,4.3512,4.3839,4.335,4.4956,4.641,4.701,4.8256,4.9094,4.9094,4.9094,4.9124,4.9185,4.9124,4.9124,4.9185,4.9185,4.9185,4.9185,4.9063,4.9001,4.9001,4.9001,4.9032,4.9077,4.9032,4.9032,4.9077,4.9032,4.9001,4.9001,4.9001,4.9001,0.0,4.9001,4.9032,4.9094,4.9094,4.9124,4.9185,4.9185,4.9185,4.9185,0.0,0.0,0.0,0.0,0.0,0.0,0.0,3.0539,3.0555,3.0506,3.0113,2.9853,2.9853,2.9461,2.9371,2.9815,0.0,0.0,0.0,0.0,0.0,0.0,0.0,0.0,3.0085,3.13,3.2007,3.2082,3.2835,3.3209,3.3277,3.3224,3.3485,3.4011,3.4036,3.4093,3.4273,3.6265,3.6788,3.6517,3.8414,3.9232,0.0,0.0,0.0,0.0,0.0,0.0,0.0,0.0,0.0,0.0,0.0,0.0,0.0,0.0,0.0,0.0,0.0,3.8407,3.8334,3.8306,3.8794,3.9307,3.943,4.0434,0.0,4.1578,4.2111,4.252,4.2645,4.3273,4.3735,4.3617,4.4259,4.4748,4.4654,4.6011,4.7546,4.9059,4.9229,4.9229,4.9229,4.9229,4.929,4.9488,4.932,4.929,4.9488,4.9518,4.9518,4.9518,4.9216,4.9032,4.9032,4.9032,4.9094,4.9229,4.9094,4.9094,4.9229,4.9094,4.9032,4.9032,4.9032,4.9032,4.9032,4.9032,4.9124,4.9229,4.9229,4.932,4.9518,4.9518,4.9518,4.9518,0.0,0.0,0.0,0.0,0.0,0.0,0.0,0.0,0.0,0.0,3.0405,3.0342,3.0342,3.0236,3.0215,0.0,0.0,0.0,0.0,0.0,0.0,0.0,0.0,0.0,2.9881,3.1563,3.2275,3.1951,3.2803,3.3407,3.3793,3.3407,3.3485,3.4036,3.4431,3.4938,3.5597,3.6605,3.7316,3.7817,3.8815,3.947,0.0,0.0,0.0,0.0,3.9747,3.9679,0.0,0.0,0.0,0.0,0.0,0.0,0.0,0.0,3.9799,3.9679,3.9679,0.0,3.8892,3.8435,3.9092,3.9906,0.0,4.0717,4.1614,4.2718,4.2703,4.2831,4.3902,4.3943,4.3956,4.4435,4.4665,4.4831,4.4913,4.6192,4.7722,4.924,4.9428,4.9428,4.9428,4.9428,4.9458,4.9488,4.9458,4.9458,4.9518,4.9518,4.9518,4.9518,4.9428,4.9398,4.9398,4.9398,4.9398,4.9428,4.9398,4.9398,4.9428,4.9398,4.9398,4.9398,4.9398,4.9398,4.9398,4.9398,4.9398,4.9428,4.9428,4.9458,4.9518,4.9518,4.9518,4.9518,0.0,0.0,0.0,0.0,0.0,0.0,0.0,0.0,0.0,0.0,0.0,0.0,0.0,0.0,0.0,0.0,0.0,0.0,0.0,0.0,0.0,0.0,0.0,3.0858,3.014,3.1983,3.273,3.2223,3.3356,3.4095,3.4358,3.407,3.4219,3.4761,3.5045,3.5619,3.6413,3.7117,3.7861,3.8623,3.9317,0.0,0.0,0.0,0.0,0.0,4.0096,4.0096,0.0,4.0096,4.0096,4.0096,0.0,0.0,0.0,0.0,4.0096,4.0096,4.0096,3.985,3.9523,3.9216,3.9852,4.0729,4.1211,4.1886,4.2723,4.3885,4.3871,4.3852,4.4564,4.4547,4.453,4.4776,4.4896,4.5261,4.6045,4.7085,4.8218,4.947,4.959,4.959,4.959,4.959,4.9637,4.9713,4.9637,4.9637,4.9713,4.9742,4.9742,4.9742,4.9742,4.9654,4.9518,4.9518,4.9547,4.959,4.9547,4.9547,4.959,4.9547,4.9518,4.9518,4.9518,4.9518,4.9518,4.9518,4.9547,4.959,4.959,4.9637,4.9742,4.9742,4.9742,4.9742,0.0,0.0,0.0,0.0,0.0,0.0,0.0,0.0,0.0,0.0,0.0,0.0,0.0,0.0,0.0,0.0,0.0,0.0,0.0,0.0,0.0,0.0,0.0,3.1015,3.0621,3.2425,3.3177,3.273,3.4121,3.4857,3.4927,3.4857,3.5108,3.56,3.5718,3.6231,3.7032,3.7753,3.8481,3.9208,3.9859,0.0,0.0,0.0,0.0,0.0,0.0,0.0,0.0,4.0096,4.0096,4.0096,4.0096,0.0,0.0,0.0,0.0,0.0,4.0113,4.0096,4.0138,4.0113,4.0646,4.1416,4.2285,4.3136,4.3946,4.4824,4.5005,4.4968,4.4858,4.5032,4.514,4.4913,4.5162,4.589,4.7305,4.806,4.8768,4.9622,4.9755,4.9755,4.9755,4.9755,4.9813,4.9982,4.986,4.9813,5.0011,5.0011,5.0011,5.0011,5.0011,4.9877,4.9577,4.9577,4.9637,4.9737,4.9637,4.9637,4.9737,4.9637,4.9577,4.9577,4.9577,4.9577,4.9577,4.9577,4.9637,4.9755,4.9755,4.986,5.0011,5.0011,5.0011,5.0011,0.0,0.0,0.0,0.0,0.0,0.0,0.0,0.0,0.0,0.0,0.0,0.0,0.0,0.0,0.0,0.0,0.0,0.0,0.0,0.0,0.0,3.1095,3.1171,3.1171,3.1095,3.2604,3.3364,3.3284,3.4305,3.5021,3.547,3.5021,3.5108,3.5616,3.6315,3.7026,3.7787,3.8514,3.9242,3.9943,4.0062,0.0,0.0,0.0,0.0,0.0,0.0,0.0,0.0,4.0096,4.0096,4.0096,4.0096,0.0,0.0,0.0,0.0,0.0,4.0121,4.0188,4.0238,4.0138,4.0646,4.1416,4.2285,4.3136,4.3946,4.4824,4.5005,4.4978,4.4978,4.5113,4.5194,4.5167,4.5841,4.6652,4.7374,4.8214,4.9028,4.9849,4.9964,4.9964,4.9964,4.9964,4.9964,5.0011,4.9964,4.9964,5.0011,5.0011,5.0011,5.0011,5.0011,4.9982,4.9906,4.9906,4.9935,4.9964,4.9935,4.9935,4.9964,4.9935,4.9906,4.9906,4.9906,4.9906,4.9906,4.9906,4.9935,4.9964,4.9964,4.9964,5.0011,5.0011,5.0011,5.0011,0.0,0.0,0.0,0.0,0.0,0.0,0.0,0.0,0.0,0.0,0.0,0.0,0.0,0.0,0.0,0.0,0.0,0.0,0.0,0.0,0.0,3.119,3.119,3.1396,3.1802,3.2848,3.3609,3.3981,3.4818,3.5356,3.56,3.5356,3.5597,3.6265,3.6643,3.7438,3.8514,3.8853,3.9436,4.0096,0.0,0.0,0.0,0.0,0.0,0.0,0.0,0.0,0.0,0.0,4.0096,4.0096,4.0096,0.0,0.0,0.0,0.0,0.0,4.0213,4.0313,4.0489,4.0831,4.1401,4.2047,4.2629,4.3655,4.4649,4.5125,4.5238,4.5194,4.5113,4.522,4.53,4.53,4.637,4.7293,4.7554,4.8661,4.9597,4.9959,5.0011,5.0011,5.0011,5.0011,5.0011,5.0011,5.0011,5.0011,5.0011,5.0011,5.0011,5.0011,5.0011,5.0011,5.0011,5.0011,5.0011,5.0011,5.0011,5.0011,5.0011,5.0011,5.0011,5.0011,5.0011,5.0011,5.0011,5.0011,5.0011,5.0011,5.0011,5.0011,5.0011,5.0011,5.0011,5.0011,0.0,0.0,0.0,0.0,0.0,0.0,0.0,0.0,0.0,0.0,0.0,0.0,0.0,0.0,0.0,0.0,0.0,0.0,0.0,0.0,3.119,3.119,3.136,3.1718,3.2293,3.3017,3.3761,3.4489,3.525,3.56,3.56,3.5785,3.6214,3.6829,3.7168,3.7922,3.9005,3.9174,3.9588,4.0096,0.0,0.0,0.0,0.0,0.0,0.0,0.0,0.0,0.0,0.0,0.0,0.0,0.0,0.0,0.0,4.0188,4.0263,4.0355,4.0355,4.0556,4.0952,4.1517,4.2091,4.2679,4.316,4.4276,4.5247,4.5371,4.5397,4.5371,4.5274,4.5327,4.5466,4.5656,4.681,4.7741,4.7913,4.9148,5.0011,5.0011,5.0011,5.0011,5.0011,5.0011,5.0011,5.0011,5.0011,5.0011,5.0011,5.0011,5.0011,5.0011,5.0011,5.0011,5.0011,5.0011,5.0011,5.0011,5.0011,5.0011,5.0011,5.0011,5.0011,5.0011,5.0011,5.0011,5.0011,5.0011,5.0011,5.0011,5.0011,5.0011,5.0011,5.0011,5.0011,5.0011,0.0,0.0,0.0,0.0,0.0,0.0,0.0,0.0,0.0,0.0,0.0,0.0,0.0,0.0,0.0,0.0,0.0,0.0,0.0,0.0,3.119,3.119,3.187,3.2242,3.2293,3.3017,3.3761,3.4489,3.525,3.56,3.5616,3.6349,3.6745,3.6863,3.8227,3.8886,3.9039,3.974,4.0045,4.0096,4.0096,0.0,0.0,0.0,0.0,0.0,0.0,0.0,0.0,0.0,0.0,0.0,0.0,0.0,4.0146,4.0412,4.0485,4.0485,4.0485,4.1079,4.1719,4.1753,4.2236,4.2937,4.3812,4.4637,4.5247,4.5371,4.5397,4.5397,4.5397,4.5397,4.5638,4.6379,4.7172,4.7931,4.862,4.9476,5.0011,5.0011,5.0011,5.0011,5.0011,5.0011,5.0011,5.0011,5.0011,5.0011,5.0011,5.0011,5.0011,5.0011,5.0011,5.0011,5.0011,5.0011,5.0011,5.0011,5.0011,5.0011,5.0011,5.0011,5.0011,5.0011,5.0011,5.0011,5.0011,5.0011,5.0011,5.0011,5.0011,5.0011,5.0011,5.0011,5.0011,5.0011,0.0,0.0,0.0,0.0,0.0,0.0,0.0,0.0,0.0,0.0,0.0,0.0,0.0,0.0,0.0,0.0,0.0,0.0,0.0,3.119,3.119,3.119,3.1921,3.2513,3.2966,3.3711,3.4455,3.5177,3.5447,3.56,3.5616,3.6417,3.7026,3.7533,3.8548,3.9242,3.9706,3.9994,4.0096,4.0096,4.0096,4.0096,0.0,0.0,0.0,0.0,0.0,0.0,0.0,0.0,4.0163,4.0238,4.0263,4.0313,4.0387,4.0485,4.0558,4.071,4.1172,4.1597,4.2142,4.3131,4.3528,4.3795,4.4139,4.4776,4.5344,4.5397,4.5397,4.5397,4.5397,4.5397,4.5656,4.6475,4.7234,4.7948,4.8689,4.9482,5.0011,5.0011,5.0011,5.0011,5.0011,5.0011,5.0011,5.0011,5.0011,5.0011,5.0011,5.0011,5.0011,5.0011,5.0011,5.0011,5.0011,5.0011,5.0011,5.0011,5.0011,5.0011,5.0011,5.0011,5.0011,5.0011,5.0011,5.0011,5.0011,5.0011,5.0011,5.0011,5.0011,5.0011,5.0011,5.0011,5.0011,5.0011,0.0,0.0,0.0,0.0,0.0,0.0,0.0,0.0,0.0,0.0,0.0,0.0,0.0,0.0,0.0,0.0,0.0,0.0,3.1884,3.1884,3.1884,3.1884,3.2594,3.3241,3.3744,3.4472,3.5098,3.56,3.56,3.5718,3.6011,3.6772,3.7533,3.8278,3.9005,3.9639,4.0096,4.0096,4.0096,4.0096,4.0096,4.0096,0.0,0.0,0.0,0.0,0.0,0.0,0.0,0.0,4.0213,4.0313,4.0404,4.0461,4.0534,4.0607,4.0655,4.0817,4.1363,4.1943,4.2637,4.369,4.4311,4.4647,4.4647,4.5044,4.5397,4.5397,4.5397,4.5397,4.5397,4.5604,4.6035,4.6837,4.7551,4.8293,4.9051,4.9666,5.0011,5.0011,5.0011,5.0011,5.0011,5.0011,5.0011,5.0011,5.0011,5.0011,5.0011,5.0011,5.0011,5.0011,5.0011,5.0011,5.0011,5.0011,5.0011,5.0011,5.0011,5.0011,5.0011,5.0011,5.0011,5.0011,5.0011,5.0011,5.0011,5.0011,5.0011,5.0011,5.0011,5.0011,5.0011,5.0011,5.0011,5.0011,0.0,0.0,0.0,0.0,0.0,0.0,0.0,0.0,0.0,0.0,0.0,0.0,0.0,0.0,0.0,0.0,0.0,0.0,3.3406,3.3406,3.3406,3.3406,3.4117,3.4489,3.4489,3.5211,3.56,3.56,3.56,3.6028,3.6829,3.755,3.8311,3.9022,3.9774,4.0096,4.0096,4.0096,4.0096,4.0096,4.0096,4.0096,4.0096,0.0,0.0,0.0,0.0,0.0,0.0,0.0,4.0305,4.0355,4.0624,4.0607,4.0558,4.0823,4.0817,4.0721,4.0881,4.2033,4.3189,4.3224,4.432,4.5397,4.5397,4.5397,4.5397,4.5397,4.5397,4.5397,4.5397,4.6052,4.6855,4.7596,4.831,4.9068,4.989,5.0011,5.0011,5.0011,5.0011,5.0011,5.0011,5.0011,5.0011,5.0011,5.0011,5.0011,5.0011,5.0011,5.0011,5.0011,5.0011,5.0011,5.0011,5.0011,5.0011,5.0011,5.0011,5.0011,5.0011,5.0011,5.0011,5.0011,5.0011,5.0011,5.0011,5.0011,5.0011,5.0011,5.0011,5.0011,5.0011,5.0011,5.0011,5.0011,0.0,0.0,0.0,0.0,0.0,0.0,0.0,0.0,0.0,0.0,0.0,0.0,0.0,0.0,0.0,0.0,0.0,0.0,3.3406,3.3406,3.3406,3.3406,3.4117,3.4489,3.4489,3.5211,3.56,3.56,3.6163,3.6575,3.6829,3.8075,3.8785,3.9022,3.9774,4.0096,4.0096,4.0096,4.0096,4.0096,4.0096,4.0096,4.0096,0.0,0.0,0.0,0.0,0.0,0.0,0.0,0.0,0.0,4.0673,4.0745,4.0799,4.0888,4.0864,4.1088,4.2223,4.2844,4.3448,4.4492,4.507,4.5397,4.5397,4.5397,4.5397,4.5397,4.5397,4.5397,4.5397,4.6052,4.6855,4.7596,4.831,4.9068,4.989,5.0011,5.0011,5.0011,5.0011,5.0011,5.0011,5.0011,5.0011,5.0011,5.0011,5.0011,5.0011,5.0011,5.0011,5.0011,5.0011,5.0011,5.0011,5.0011,5.0011,5.0011,5.0011,5.0011,5.0011,5.0011,5.0011,5.0011,5.0011,5.0011,5.0011,5.0011,5.0011,5.0011,5.0011,5.0011,5.0011,5.0011,5.0011,5.0011,0.0,0.0,0.0,0.0,0.0,0.0,0.0,0.0,0.0,0.0,0.0,0.0,0.0,0.0,0.0,0.0,0.0,0.0,0.0,3.4264,3.4264,3.4264,3.4709,3.4945,3.4945,3.5363,3.5752,3.6079,3.6575,3.71,3.7692,3.8565,3.9157,3.9469,3.991,4.0096,4.0096,4.0096,4.0096,4.0096,4.0096,4.0096,4.0096,0.0,0.0,0.0,0.0,0.0,0.0,0.0,0.0,0.0,4.0769,4.084,4.0912,4.0912,4.0912,4.1101,4.2033,4.2723,4.3414,4.4302,4.4975,4.5397,4.5397,4.5397,4.5397,4.5397,4.5397,4.55,4.5811,4.65,4.7286,4.8,4.8775,4.9459,4.9942,5.0011,5.0011,5.0011,5.0011,5.0011,5.0011,5.0011,5.0011,5.0011,5.0011,5.0011,5.0011,5.0011,5.0011,5.0011,5.0011,5.0011,5.0011,5.0011,5.0011,5.0011,5.0011,5.0011,5.0011,5.0011,5.0011,5.0011,5.0011,5.0011,5.0011,5.0011,5.0011,5.0011,5.0011,5.0011,5.0011,5.0011,5.0011,5.0011,0.0,0.0,0.0,0.0,0.0,0.0,0.0,0.0,0.0,0.0,0.0,0.0,0.0,0.0,0.0,0.0,0.0,0.0,0.0,0.0,3.56,3.56,3.56,3.56,3.56,3.5667,3.6096,3.6897,3.6897,3.7625,3.8988,3.9056,3.9469,4.0096,4.0096,4.0096,4.0096,4.0096,4.0096,4.0096,4.0096,4.0138,4.0138,4.0121,0.0,0.0,0.0,0.0,0.0,0.0,0.0,0.0,4.0864,4.0912,4.0912,4.0912,4.0912,4.0912,4.0981,4.2085,4.3224,4.3276,4.4354,4.5397,4.5397,4.5397,4.5397,4.5397,4.5397,4.5638,4.6458,4.7189,4.7931,4.8672,4.9493,5.0011,5.0011,5.0011,5.0011,5.0011,5.0011,5.0011,5.0011,5.0011,5.0011,5.0011,5.0011,5.0011,5.0011,5.0011,5.0011,5.0011,5.0011,5.0011,5.0011,5.0011,5.0011,5.0011,5.0011,5.0011,5.0011,5.0011,5.0011,5.0011,5.0011,5.0011,5.0011,5.0011,5.0011,5.0011,5.0011,5.0011,5.0011,5.0011,5.0011,5.0011,0.0,0.0,0.0,0.0,0.0,0.0,0.0,0.0,0.0,0.0,0.0,0.0,0.0,0.0,0.0,0.0,0.0,0.0,0.0,0.0,3.56,3.56,3.56,3.56,3.56,3.6214,3.6907,3.7669,3.7669,3.8125,3.9005,3.9605,3.996,4.0096,4.0096,4.0096,4.0096,4.0096,4.0096,4.0113,4.0213,4.0263,4.0263,4.0387,4.0419,0.0,0.0,0.0,0.0,0.0,0.0,0.0,4.0888,4.0912,4.0912,4.0912,4.0912,4.1032,4.1619,4.2465,4.3345,4.3914,4.4734,4.5397,4.5397,4.5397,4.5397,4.5397,4.5397,4.5638,4.6458,4.7189,4.7931,4.8672,4.9493,5.0011,5.0011,5.0011,5.0011,5.0011,5.0011,5.0011,5.0011,5.0011,5.0011,5.0011,5.0011,5.0011,5.0011,5.0011,5.0011,5.0011,5.0011,5.0011,5.0011,5.0011,5.0011,5.0011,5.0011,5.0011,5.0011,5.0011,5.0011,5.0011,5.0011,5.0011,5.0011,5.0011,5.0011,5.0011,5.0011,5.0011,5.0011,5.0011,5.0011,5.0011,0.0,0.0,0.0,0.0,0.0,0.0,0.0,0.0,0.0,0.0,0.0,0.0,0.0,0.0,0.0,0.0,0.0,0.0,0.0,0.0,3.56,3.56,3.56,3.5769,3.6163,3.6592,3.7337,3.843,3.843,3.8802,3.9554,3.9926,4.0096,4.0096,4.0096,4.0096,4.0096,4.0163,4.0188,4.0213,4.0337,4.0387,4.0412,4.0485,4.0534,4.06,4.06,0.0,0.0,0.0,0.0,0.0,0.0,0.0,4.0912,4.0912,4.0912,4.0981,4.1378,4.2327,4.3465,4.4544,4.513,4.5397,4.5397,4.5397,4.5397,4.5397,4.5397,4.5742,4.6896,4.7431,4.8079,4.9172,4.9735,5.0011,5.0011,5.0011,5.0011,5.0011,5.0011,5.0011,5.0011,5.0011,5.0011,5.0011,5.0011,5.0011,5.0011,5.0011,5.0011,5.0011,5.0011,5.0011,5.0011,5.0011,5.0011,5.0011,5.0011,5.0011,5.0011,5.0011,5.0011,5.0011,5.0011,5.0011,5.0011,5.0011,5.0011,5.0011,5.0011,5.0011,5.0011,5.0011,5.0011,5.004,0.0,0.0,0.0,0.0,0.0,0.0,0.0,0.0,0.0,0.0,0.0,0.0,0.0,0.0,0.0,0.0,0.0,0.0,0.0,0.0,0.0,3.56,3.5718,3.6129,3.6795,3.7049,3.7794,3.8988,3.9123,3.9503,4.0096,4.0096,4.0096,4.0096,4.0096,4.0096,4.0138,4.0238,4.0313,4.0355,4.0485,4.0534,4.0534,4.0558,4.0631,4.0721,4.0721,4.0817,4.0912,4.0912,0.0,0.0,0.0,0.0,4.0912,4.0912,4.0912,4.0929,4.1067,4.2223,4.3724,4.5052,4.5397,4.5397,4.5397,4.5397,4.5397,4.5397,4.5397,4.5828,4.7241,4.7603,4.8165,4.9579,4.9907,5.0011,5.0011,5.0011,5.0011,5.0011,5.0011,5.0011,5.0011,5.0011,5.0011,5.0011,5.0011,5.0011,5.0011,5.0011,5.0011,5.0011,5.0011,5.0011,5.0011,5.008,5.008,5.0011,5.0011,5.0011,5.0011,5.0011,5.0011,5.0011,5.0011,5.0011,5.0011,5.0011,5.0011,5.0011,5.0011,5.0051,5.0138,5.0138,5.0206,5.0331,0.0,0.0,0.0,0.0,0.0,0.0,0.0,0.0,0.0,0.0,0.0,0.0,0.0,0.0,0.0,0.0,0.0,0.0,3.56,0.0,0.0,3.56,3.6265,3.6694,3.6795,3.8065,3.8785,3.8988,3.9656,4.0011,4.0096,4.0096,4.0096,4.0096,4.0096,4.0163,4.0263,4.0288,4.0379,4.0485,4.0624,4.0673,4.0697,4.0799,4.0864,4.0871,4.0871,4.0871,4.0912,4.0912,4.0912,0.0,0.0,0.0,4.0912,4.0912,4.0912,4.105,4.1688,4.2982,4.4363,4.5173,4.5397,4.5397,4.5397,4.5397,4.5397,4.5397,4.5397,4.5673,4.6569,4.7286,4.7965,4.881,4.9562,5.0011,5.0011,5.0011,5.0011,5.0011,5.0011,5.0011,5.0011,5.0011,5.0011,5.0011,5.0011,5.0011,5.0011,5.0011,5.0011,5.0011,5.0011,5.0011,5.0011,5.0453,5.0453,5.0011,5.0011,5.0011,5.0011,5.0011,5.0011,5.0011,5.0011,5.0011,5.0011,5.0011,5.0011,5.0011,5.0011,5.0274,5.0684,5.0684,5.0991,5.1391,0.0,0.0,0.0,0.0,0.0,0.0,0.0,0.0,0.0,0.0,0.0,0.0,0.0,0.0,0.0,3.56,3.56,3.56,3.56,3.56,3.5785,3.6248,3.6626,3.7202,3.8007,3.8667,3.9191,3.9622,3.9943,4.0096,4.0096,4.0096,4.0096,4.0096,4.0188,4.0238,4.0305,4.0453,4.0551,4.0607,4.0769,4.0817,4.0817,4.0888,4.0912,4.0912,4.0912,4.0912,4.0912,4.0912,4.0912,4.0912,4.0912,0.0,0.0,0.0,4.0912,4.1067,4.1809,4.2827,4.3862,0.0,4.5087,4.5397,4.5397,4.5397,4.5397,4.5397,4.5397,4.5638,4.6458,4.6872,4.7448,4.8603,4.9085,4.9493,4.9942,5.0011,5.0011,5.0011,5.0011,5.0011,5.0011,5.0011,5.0011,5.0011,5.0011,5.0011,5.0011,5.0011,5.0011,5.0011,5.0011,5.012,5.0471,5.0684,5.083,5.091,5.091,5.091,5.0884,5.0592,5.0274,5.0011,5.0011,5.0011,5.0011,5.0011,5.0011,5.0022,5.0331,5.0575,5.083,5.1131,5.1391,5.1626,0.0,0.0,0.0,0.0,0.0,0.0,0.0,0.0,0.0,0.0,0.0,0.0,0.0,0.0,0.0,0.0,3.56,3.56,3.56,3.5785,3.618,3.6778,3.7168,3.7879,3.8971,3.9174,3.9554,4.0096,4.0096,4.0096,4.0096,4.0121,4.0163,4.0163,4.0255,4.0355,4.0429,4.0624,4.0721,4.0769,4.0864,4.0912,4.0912,4.0912,4.0912,4.0912,4.0912,4.0912,4.0912,4.0912,4.0912,4.0912,4.0912,4.0912,0.0,0.0,0.0,4.1309,4.1861,0.0,4.3603,4.4173,4.4854,4.5397,0.0,4.5397,4.5397,4.5397,4.5397,4.5569,4.6173,4.6475,4.6975,4.8051,4.8396,4.8792,4.9597,4.9717,4.9786,4.9993,5.0011,5.0011,5.0011,5.0011,5.0011,5.0011,5.0011,5.0011,5.0011,5.0011,5.0011,5.0011,5.0011,5.0263,5.0776,5.0937,5.127,5.1831,5.1683,5.1633,5.1658,5.1252,5.0822,5.0408,5.012,5.008,5.0206,5.0206,5.0274,5.0471,5.0857,5.1096,5.1262,5.1658,5.1904,5.209,0.0,0.0,0.0,0.0,0.0,0.0,0.0,0.0,0.0,0.0,0.0,0.0,3.56,3.56,3.56,3.56,3.56,3.56,3.56,3.6315,3.6761,3.6795,3.8149,0.0,3.8988,3.969,4.0062,4.0096,4.0096,4.0096,4.0096,4.0238,4.0305,4.0305,4.0305,4.0453,4.0673,4.0697,0.0,0.0,0.0,4.0912,4.0912,4.0912,4.0912,4.0912,4.0912,4.0912,4.0912,4.0912,4.0912,4.0912,4.0912,4.0912,4.0912,0.0,0.0,0.0,4.1999,4.3103,0.0,4.4294,4.4854,4.5397,0.0,4.5397,4.5397,4.5397,4.5397,4.5414,4.5449,4.6069,4.6631,4.6717,4.732,4.8,4.8758,4.8844,4.9137,4.9907,5.0011,5.0011,5.0011,5.0011,5.0011,5.0011,5.0011,5.0011,5.0011,5.0011,5.0011,5.0011,5.0011,5.0263,5.0776,5.1314,5.1855,5.2431,5.1946,5.1759,5.1886,5.1856,5.1759,5.1537,5.0474,5.0274,5.0766,5.0766,5.1052,5.1518,5.1569,5.1866,5.2338,5.2422,5.2758,5.3238,0.0,0.0,0.0,0.0,0.0,0.0,0.0,0.0,0.0,0.0,0.0,0.0,0.0,3.56,3.56,3.56,3.56,3.5802,3.6332,3.6643,3.7218,3.8159,3.8717,3.9208,3.9706,3.996,4.0096,4.0096,4.0096,4.0096,4.0096,4.0238,4.0355,4.0436,4.0527,4.06,4.0697,4.0793,0.0,4.0912,4.0912,4.0912,4.0912,4.0912,4.0912,4.0912,4.0912,4.0912,4.0912,4.0912,4.0912,4.0912,4.0912,4.0912,4.0912,4.0912,4.1101,4.1291,0.0,0.0,0.0,4.3465,4.4156,4.482,4.5276,4.5397,4.5397,4.5397,4.5397,4.5397,4.5397,4.5638,4.5983,4.6527,4.6837,4.7241,4.7982,4.8086,4.8189,4.8493,4.8528,4.8528,4.8528,4.8959,4.9252,4.9252,4.9717,5.0011,5.0011,5.0011,5.0051,5.012,5.0418,5.1034,5.2012,5.2558,5.2926,5.3138,5.295,5.2867,5.2929,5.2567,5.2391,5.2299,5.1555,5.126,5.1296,5.1296,5.1442,5.1626,5.1988,5.2226,5.2431,5.2809,5.3109,5.3318,0.0,0.0,0.0,0.0,0.0,0.0,0.0,0.0,0.0,3.552,0.0,0.0,0.0,0.0,3.56,3.56,3.5859,3.6231,3.6778,3.7269,3.798,3.8954,3.9225,3.9605,4.0096,4.0096,4.0096,4.0096,4.0096,4.0138,4.0163,4.0313,4.0436,4.0558,4.0721,4.0769,0.0,4.0864,4.0912,4.0912,4.0912,4.0912,4.0912,4.0912,4.0912,4.0912,4.0912,4.0912,4.0912,4.0912,4.0912,4.0912,4.0912,4.0912,4.0912,4.0912,4.0912,4.0912,4.0912,0.0,0.0,0.0,4.3552,4.4432,4.4923,4.5207,4.5397,4.5397,4.5397,4.5397,4.5397,4.5397,4.5569,4.6104,4.619,4.6448,4.7234,4.731,4.7414,4.7655,4.7689,4.7689,4.7689,4.8137,4.843,4.843,4.8941,4.9235,4.9235,4.9235,4.9359,4.9652,5.0283,5.1042,5.1836,5.241,5.2836,5.3134,5.3134,5.3302,5.3599,5.3242,5.3057,5.3033,5.2674,5.2271,5.1904,5.1904,5.1994,5.2155,5.254,5.2672,5.2717,5.3127,5.3316,5.338,0.0,0.0,0.0,0.0,0.0,0.0,0.0,0.0,3.552,3.5577,0.0,0.0,0.0,0.0,0.0,3.5633,3.6366,3.6846,3.6863,3.8217,3.9005,3.9022,3.9723,4.0096,4.0096,4.0096,4.0096,4.0096,4.0096,4.0163,4.0305,4.0436,4.0558,4.0697,4.084,4.0912,4.0894,4.0912,4.0912,4.0912,4.0912,4.0912,4.0912,4.0912,4.0912,4.0912,4.0912,4.0912,4.0912,4.0912,4.0912,4.0912,4.0912,4.0912,4.0912,4.0912,4.0912,0.0,0.0,0.0,0.0,0.0,0.0,0.0,4.4294,0.0,4.5363,4.5397,4.5397,4.5397,4.5397,4.5397,4.5397,4.5397,4.5397,4.5673,4.6458,4.6562,4.6837,4.7534,4.762,4.762,4.762,4.7638,4.7655,4.7655,4.77,4.7689,4.7689,4.7717,4.7993,4.863,4.9585,5.014,5.0213,5.081,5.1526,5.2361,5.2361,5.2844,5.3738,5.3738,5.3718,5.3676,5.3676,5.3222,5.254,5.254,5.2795,5.3185,5.3185,5.3185,5.3227,5.3418,5.3499,5.3539,0.0,0.0,0.0,0.0,0.0,0.0,3.5549,3.5571,3.5594,0.0,0.0,0.0,3.56,3.6129,3.6451,3.6451,3.7161,3.7821,3.8345,3.8768,3.9225,3.9774,3.9994,4.0096,4.0096,4.0096,4.0096,4.0096,4.0188,4.0213,4.0163,4.0485,4.0576,0.0,4.0752,4.084,4.0769,4.0864,4.0912,4.0912,4.0912,4.0912,4.0912,4.0912,4.0912,4.0912,4.0912,4.0912,4.0912,4.0912,4.0912,4.0912,4.0912,4.0912,4.0912,4.0912,4.0912,0.0,4.0912,0.0,0.0,0.0,0.0,0.0,4.4052,0.0,4.4751,4.5276,4.5397,4.5397,4.5397,4.5397,4.5397,4.5397,4.5397,4.5483,4.569,4.5725,4.5811,4.6,4.6035,4.6035,4.6035,4.6552,4.6879,4.6879,4.7396,4.7689,4.7689,4.811,4.862,4.9234,4.997,5.0613,5.1063,5.1232,5.1436,5.1677,5.1677,5.1807,5.2067,5.2067,5.2364,5.2883,5.2883,5.3024,5.3219,5.3136,5.313,5.3185,5.3185,5.3185,5.3206,5.3316,5.342,5.3519,0.0,0.0,0.0,0.0,0.0,3.5446,3.5526,3.5577,3.56,0.0,0.0,0.0,3.6062,3.6789,3.7246,3.7246,3.7922,3.8531,3.8954,3.9276,3.9656,4.0079,4.0096,4.0096,4.0096,4.0096,4.0096,4.0096,4.0188,4.0213,4.0188,4.0412,4.0502,4.0478,0.0,0.0,0.0,0.0,4.0912,4.0912,4.0912,4.0912,4.0912,4.0912,4.0912,4.0912,4.0912,4.0912,4.0912,4.0912,4.0912,4.0912,4.0912,0.0,0.0,4.0912,0.0,0.0,0.0,0.0,0.0,0.0,0.0,0.0,4.3552,4.4087,4.4518,4.5242,4.5397,4.5397,4.5397,4.5397,4.5397,4.5397,4.5397,4.5397,4.5397,4.5397,4.5397,4.5397,4.5397,4.5397,4.5397,4.5811,4.6086,4.6086,4.65,4.6751,4.6805,4.7586,4.8193,4.8609,4.9387,4.9971,5.0358,5.0358,5.0525,5.0859,5.0859,5.1045,5.1398,5.1398,5.1658,5.2104,5.2104,5.2251,5.252,5.2773,5.3001,5.3185,5.3185,5.3185,5.3206,5.3295,5.338,5.3519,0.0,0.0,3.4994,3.5128,3.5245,3.536,3.5492,3.5571,3.5633,0.0,3.5802,3.6146,3.6846,3.7584,3.8024,3.8024,3.87,3.9106,3.9106,3.974,4.0096,4.0096,4.0096,4.0096,4.0096,4.0096,4.0096,4.0096,4.0096,4.0188,4.028,4.033,4.0453,4.0648,0.0,0.0,0.0,0.0,4.0912,4.0912,4.0912,4.0912,4.0912,4.0912,4.0912,4.0912,4.0912,4.0912,4.0912,4.0912,4.0912,4.0912,4.0912,4.0912,0.0,0.0,4.0912,0.0,0.0,0.0,0.0,0.0,4.1395,0.0,4.2896,4.3569,4.4294,4.5104,4.5276,4.5294,4.538,4.5397,4.5397,4.5397,4.5397,4.5397,4.5397,4.5397,4.5397,4.5397,4.5397,4.5397,4.5397,4.5397,4.5397,4.5397,4.5423,4.5502,4.5667,4.6648,4.7281,4.747,4.8326,4.884,4.8909,4.8909,4.9262,4.9986,4.9986,5.0376,5.1119,5.1119,5.1175,5.1268,5.1268,5.1195,5.1154,5.1874,5.253,5.3096,5.3167,5.3185,5.3206,5.3295,5.338,5.3519,0.0,0.0,3.5268,3.54,3.5481,3.5554,3.5594,3.5577,3.5819,3.6468,3.7077,3.7516,3.7669,3.8345,3.8785,3.8785,3.9469,3.9893,3.9893,4.0028,4.0096,4.0096,4.0096,4.0096,4.0096,4.0096,4.0096,4.0096,4.0213,4.0213,4.0163,4.0478,4.0527,4.0404,0.0,0.0,0.0,0.0,4.0912,4.0912,4.0912,4.0912,4.0912,4.0912,4.0912,4.0912,4.0912,4.0912,4.0912,4.0912,4.0912,4.0912,4.0912,4.0912,0.0,4.0912,0.0,0.0,0.0,0.0,0.0,0.0,4.1015,0.0,4.2068,4.2361,4.2844,4.4242,4.4492,4.4699,4.5276,4.5397,4.5397,4.5397,4.5397,4.5397,4.5397,4.5397,4.5397,4.5397,4.5397,4.5397,4.5397,4.5397,4.5397,4.5397,4.5502,4.5752,4.6133,4.6814,4.7431,4.7957,4.8513,4.884,4.8909,4.8909,4.8983,4.9132,4.9132,4.9224,4.9392,4.9392,4.9745,5.0358,5.0358,5.0639,5.1117,5.1265,5.1701,5.2289,5.2949,5.3185,5.3206,5.3295,5.338,5.3519,0.0,3.5291,3.5314,3.54,3.5475,3.5684,3.6038,3.6151,3.6485,3.7246,3.799,3.8447,3.8447,3.9106,3.9554,3.9554,3.9893,4.0096,4.0096,4.0096,4.0096,4.0096,4.0096,4.0096,4.0096,4.0096,4.0096,4.0096,4.0163,4.0188,4.0213,4.0404,4.0502,4.0502,0.0,0.0,0.0,0.0,4.0912,4.0912,4.0912,4.0912,4.0912,4.0912,4.0912,4.0912,4.0912,4.0912,4.0912,4.0912,4.0912,4.0912,4.0912,4.0912,4.0912,0.0,4.0912,4.0912,0.0,0.0,0.0,4.0912,4.0912,0.0,0.0,4.2016,4.2344,4.3517,4.3741,4.3983,4.4716,4.4854,4.4975,4.5328,4.5397,4.5397,4.5397,4.5397,4.5397,4.5397,4.5397,4.5397,4.5397,4.5397,4.5423,4.5502,4.5615,4.5938,4.6454,4.708,4.7635,4.8173,4.8624,4.8856,4.8909,4.8909,4.8909,4.8909,4.8909,4.8909,4.8909,4.8909,4.9132,4.9503,4.9503,4.9638,4.988,5.0286,5.0595,5.0932,5.2123,5.2601,5.2637,5.3104,5.3357,5.3519,3.544,0.0,3.5555,3.5555,3.5782,3.6161,3.675,3.6945,3.7263,3.8024,3.8751,3.9208,3.9208,3.9757,4.0096,4.0096,4.0096,4.0096,4.0096,4.0096,4.0096,4.0096,4.0096,4.0096,4.0096,4.0096,4.0096,4.0096,4.0096,4.0163,4.0305,4.033,4.0436,4.0673,0.0,0.0,0.0,0.0,0.0,4.0912,4.0912,4.0912,4.0912,4.0912,4.0942,4.1035,4.1035,4.0965,4.0894,4.0989,4.0965,4.0894,4.0989,4.0965,0.0,0.0,0.0,0.0,0.0,0.0,0.0,4.0912,4.0912,4.1067,0.0,0.0,0.0,4.281,4.2965,4.3207,4.3949,4.4207,4.4466,4.4906,4.5207,4.5345,4.5207,4.5311,4.5397,4.5397,4.5397,4.5397,4.5397,4.5423,4.5476,4.5607,4.5744,4.6137,4.6799,4.7317,4.7856,4.8401,4.8732,4.8909,4.8909,4.8909,4.8909,4.8909,4.8909,4.8909,4.8909,4.8909,4.8909,4.8909,4.8909,4.8803,4.8697,4.9307,4.949,4.9556,5.1153,5.1756,5.1867,5.2674,5.3074,5.3258,3.5471,3.5927,3.6451,3.6451,3.7101,3.7662,3.7746,3.7763,3.8041,3.8768,3.9537,3.9977,3.9977,4.0045,4.0096,0.0,4.0096,4.0096,4.0096,4.0096,4.0096,4.0096,4.0096,4.0096,4.0096,4.0096,4.0096,4.0096,4.0096,4.0163,4.0288,4.0412,4.0485,0.0,4.0648,0.0,0.0,0.0,4.0793,4.0912,4.0912,4.0912,4.0912,4.0912,4.1117,4.1423,4.1423,4.1192,4.0965,4.1305,4.1192,4.0965,4.1328,4.1186,4.0912,4.0912,0.0,0.0,0.0,0.0,4.0912,4.0912,4.0912,4.0929,4.1015,0.0,4.124,4.1999,0.0,4.2378,4.3172,0.0,0.0,4.3552,4.4561,4.5156,4.4535,4.4992,4.5397,4.5397,4.5397,4.5397,4.5397,4.5502,4.5563,4.5607,4.5821,4.6363,4.7277,4.7488,4.7979,4.8803,4.8891,4.8909,4.8909,4.8909,4.8909,4.8909,4.8909,4.8909,4.8909,4.8909,4.8909,4.8909,4.8909,4.8856,4.8769,4.8734,4.8698,4.877,5.0346,5.0949,5.1041,5.183,5.2187,5.2383,3.6312,3.6814,0.0,3.7344,3.7655,3.8041,3.8464,3.8903,3.9276,3.9605,3.991,4.0096,4.0096,4.0096,4.0096,0.0,4.0096,4.0096,4.0096,4.0096,0.0,4.0096,4.0096,4.0096,4.0096,4.0096,4.0096,4.0096,4.0096,4.0163,4.0305,4.0362,4.0436,0.0,4.0558,0.0,4.0971,0.0,4.0894,4.118,4.0989,4.0912,4.0912,4.0912,4.0995,4.114,4.114,4.1041,4.0918,4.1071,4.1041,4.0918,4.1111,4.1041,4.0912,4.0912,0.0,0.0,0.0,4.0912,4.0912,4.0912,4.0912,4.0912,4.0912,4.0912,4.0998,4.1309,0.0,0.0,0.0,0.0,0.0,0.0,4.3724,4.4147,4.4276,4.4561,4.4923,4.5345,4.5397,4.5397,4.5397,4.5528,4.5632,4.5693,4.5897,4.6332,4.7071,4.7421,4.7879,4.8532,4.8767,4.8909,4.8909,4.8909,4.8909,4.8909,4.8909,4.8909,4.8909,4.8909,4.8909,4.8909,4.8909,4.8856,4.8787,4.8732,4.8642,4.8549,4.921,4.9741,5.0196,5.1004,5.1636,5.216,3.7499,0.0,0.0,0.0,3.8379,3.8684,3.9208,3.9757,4.0096,4.0096,4.0096,4.0096,4.0096,4.0096,4.0096,0.0,4.0096,4.0096,4.0096,4.0096,4.0096,4.0096,4.0096,4.0096,4.0096,4.0096,4.0096,4.0096,4.0096,4.0163,4.0305,4.0305,4.0337,0.0,0.0,4.0741,4.1123,0.0,4.0924,4.1323,4.0989,4.0864,4.0894,4.1018,4.1012,4.0894,4.1018,4.0995,4.0942,4.118,4.1088,4.0965,4.1323,4.1203,4.0918,0.0,0.0,0.0,4.0912,4.0912,4.0912,4.0912,4.0912,4.0912,4.0959,4.0935,4.0935,4.0965,4.0942,0.0,0.0,0.0,0.0,0.0,0.0,4.331,4.3638,4.3862,4.4363,4.5276,4.5397,4.5423,4.545,4.5581,4.5693,4.5846,4.6105,4.6483,4.7049,4.7527,4.7997,4.8458,4.875,4.8909,4.8909,4.8909,4.8909,4.8909,4.8909,4.8909,4.8909,4.8909,4.8909,4.8909,4.8909,4.8874,4.8822,4.8804,4.8715,4.8587,4.8531,4.8843,4.941,5.0437,5.1211,5.1825,3.892,3.8937,0.0,0.0,3.9571,4.0045,4.0062,4.0079,4.0096,4.0096,4.0096,4.0096,4.0096,4.0096,4.0096,4.0096,4.0096,4.0096,4.0096,4.0096,4.0096,4.0096,4.0096,4.0096,4.0096,4.0096,4.0096,4.0096,4.0096,4.0163,4.0305,4.0305,4.0305,0.0,4.0436,4.0693,4.099,4.0645,4.0782,4.1186,4.0847,4.0793,4.0942,4.1333,4.1237,4.0942,4.1333,4.1214,4.1035,4.1864,4.16,4.1134,4.2436,4.1945,4.0989,4.1356,4.1209,4.0912,4.0912,4.0912,4.0912,4.0912,4.0912,4.0935,4.107,4.0982,4.0965,4.114,4.1041,4.0935,4.1105,0.0,0.0,0.0,0.0,0.0,0.0,4.2741,4.3776,4.5225,4.5397,4.545,4.5581,4.5718,4.5846,4.5972,4.6531,4.7071,4.7548,4.8015,4.8476,4.8874,4.8891,4.8909,4.8909,4.8909,4.8909,4.8909,4.8909,4.8909,4.8909,4.8909,4.8909,4.8909,4.8909,4.8909,4.8891,4.884,4.8787,4.8769,4.8587,4.8494,4.8733,5.0254,5.082,5.1099,0.0,0.0,0.0,0.0,0.0,4.0096,4.0096,4.0096,4.0096,4.0096,4.0096,4.0096,4.0096,4.0096,4.0096,4.0096,4.0096,4.0096,4.0096,4.0096,4.0096,4.0096,4.0096,4.0096,4.0096,4.0096,4.0096,4.0096,4.0096,4.0138,4.0163,0.0,0.0,0.0,0.0,4.1013,0.0,0.0,0.0,0.0,4.0924,4.0793,4.0894,4.1041,4.1018,4.0935,4.1065,4.1035,4.0942,4.1232,4.1328,4.1396,4.1821,4.1881,4.1796,4.1927,4.1666,4.1305,4.1305,4.1094,4.0912,4.0912,4.0912,4.0935,4.107,4.107,4.1053,4.1163,4.1105,4.1047,4.1093,0.0,0.0,0.0,0.0,0.0,0.0,4.2861,4.3544,4.3963,4.4482,4.5009,4.5555,4.5795,4.5947,4.5998,4.6554,4.6976,4.7115,4.7875,4.8363,4.8495,4.875,4.8909,4.8909,4.8909,4.8909,4.8909,4.8909,4.8909,4.8909,4.8909,4.8909,4.8909,4.8909,4.8909,4.8909,4.8874,4.884,4.8787,4.8715,4.8938,4.9341,4.9814,5.0343,5.1042,4.0096,0.0,0.0,0.0,4.0096,4.0096,4.0096,4.0096,4.0096,4.0096,4.0096,4.0096,4.0096,4.0096,4.0096,4.0096,4.0096,4.0096,4.0096,4.0096,4.0096,4.0096,4.0096,4.0096,4.0096,4.0096,4.0096,4.0096,4.0096,4.0196,0.0,0.0,0.0,0.0,0.0,4.1007,4.1778,4.0866,4.0884,0.0,0.0,4.0793,4.0912,4.0912,4.0912,4.0912,4.0912,4.0912,4.0942,4.1255,4.1423,4.1561,4.1885,4.2095,4.2198,4.2198,4.1864,4.1539,4.1713,4.1423,4.1117,4.1117,4.114,4.118,4.1129,4.1146,4.1175,4.1318,4.1226,4.1146,4.1192,0.0,0.0,0.0,0.0,0.0,0.0,4.2321,4.2762,4.2968,4.368,4.4443,4.5199,4.5628,4.5978,4.6242,4.6959,4.7396,4.7396,4.8114,4.8513,4.8513,4.8767,4.8909,4.8909,4.8909,4.8909,4.8909,4.8909,4.8909,4.8909,4.8909,4.8909,4.8909,4.8909,4.8909,4.8909,4.8909,4.8874,4.884,4.8804,4.9178,4.9766,4.9983,5.0772,5.1936,4.0096,4.0096,4.0096,4.0096,4.0096,4.0096,4.0096,4.0096,4.0096,4.0096,4.0096,4.0096,4.0096,4.0096,4.0096,4.0096,4.0096,4.0096,4.0096,4.0096,4.0096,4.0096,4.0096,4.0096,4.0096,4.0096,4.0096,0.0,0.0,0.0,0.0,0.0,0.0,0.0,4.0597,0.0,4.0873,4.0597,4.0693,4.0966,4.0776,4.0793,4.0894,4.0918,4.0935,4.0912,4.0912,4.0912,4.1035,4.186,4.1842,4.1648,4.2595,4.2575,4.2257,4.2259,4.1927,4.167,4.2115,4.1885,4.1516,4.1516,4.1626,4.1644,4.1305,4.1214,4.13,4.156,4.1386,4.1255,4.138,4.1295,0.0,0.0,0.0,0.0,0.0,0.0,4.151,4.23,4.3014,4.3757,4.4592,4.527,4.5939,4.6646,4.7695,4.8306,4.8306,4.8678,4.8909,4.8909,4.8909,4.8909,4.8909,4.8909,4.8909,4.8909,4.8909,4.8909,4.8909,4.8909,4.8909,4.8909,4.8909,4.8909,4.8909,4.8909,4.8909,4.8891,4.8859,4.9288,5.0008,5.0705,5.2034,5.3499,4.0096,4.0096,4.0096,4.0096,4.0096,4.0096,4.0096,4.0096,4.0096,4.0096,4.0096,4.0096,4.0096,4.0096,4.0096,4.0096,4.0096,4.0096,4.0096,4.0096,4.0096,4.0096,4.0096,4.0096,4.0096,4.0096,4.0096,4.0096,0.0,0.0,4.0279,0.0,0.0,0.0,0.0,4.1088,4.2,4.0943,4.0607,4.0776,4.0721,4.0793,4.0918,4.1214,4.1163,4.0912,4.0912,4.0912,4.0918,4.1157,4.1351,4.1604,4.2198,4.2555,4.2769,4.3069,4.2883,4.2575,4.2692,4.2378,4.2011,4.2011,4.2053,4.2011,4.1774,4.1709,4.1705,4.1626,4.1471,4.1318,4.1255,4.1232,4.1163,0.0,0.0,0.0,0.0,0.0,4.1657,4.2039,4.2312,4.2984,4.4286,4.5483,4.6257,4.6455,4.7627,4.8306,4.8306,4.8678,4.8909,4.8909,4.8909,4.8909,4.8909,4.8909,4.8909,4.8909,4.8909,4.8909,4.8909,4.8909,4.8909,4.8909,4.8909,4.8909,4.8909,4.8909,4.8874,4.8878,4.9472,5.0434,5.1534,5.1673,5.2471,5.3499,4.0096,4.0096,4.0096,4.0096,4.0096,4.0096,4.0096,4.0096,4.0096,4.0096,4.0096,4.0231,4.057,4.0578,4.0696,4.1044,4.1077,4.1077,4.1077,4.1077,4.0925,4.0578,4.0578,4.0434,4.0113,4.0096,4.0096,4.0096,0.0,0.0,4.0385,0.0,0.0,0.0,0.0,4.0919,4.1703,4.1082,4.0884,4.0995,4.0864,4.084,0.0,4.1351,4.1356,4.1163,4.1163,4.1041,4.0918,4.1094,4.1305,4.1583,4.2053,4.2518,4.2939,4.316,4.3087,4.2939,4.3105,4.2845,4.2498,4.2498,4.2537,4.2478,4.2175,4.2195,4.2216,4.211,4.2029,4.199,4.1909,4.1909,4.1888,0.0,0.0,0.0,0.0,0.0,4.1966,4.2322,4.2539,4.2999,4.3844,4.5222,4.6088,4.605,4.7609,4.8421,4.8071,4.8582,4.8909,4.8909,4.8909,4.8909,4.8909,4.8909,4.8909,4.8909,4.8909,4.8909,4.8909,4.8909,4.8909,4.8909,4.8909,4.8909,4.8909,4.8909,4.9097,4.9507,5.0602,5.1525,5.2258,5.2467,5.2952,5.3519,4.0096,4.0096,4.0096,4.0096,4.0096,4.0096,4.0096,4.0096,4.013,4.0231,4.0248,4.051,4.1271,4.1339,4.1593,4.2236,4.2286,4.2286,4.2286,4.2286,4.1999,4.1373,4.1339,4.1001,4.0265,4.0248,4.0197,0.0,0.0,0.0,0.0,0.0,0.0,0.0,0.0,0.0,0.0,4.1123,4.1277,4.13,4.1012,4.0993,4.1174,4.1585,4.1816,4.1903,4.1969,4.1571,4.1018,4.1328,4.1423,4.1512,4.2032,4.2438,4.275,4.292,4.2939,4.2976,4.3392,4.325,4.2976,4.2976,4.3032,4.2958,4.2575,4.2596,4.2731,4.2711,4.2752,4.2791,4.2791,4.2773,4.2773,0.0,0.0,0.0,4.2753,4.2501,0.0,0.0,4.3177,0.0,4.3474,4.48,4.5608,4.5572,4.7533,4.8444,4.7738,4.8463,4.8909,4.8909,4.8909,4.8909,4.8909,4.8909,4.8909,4.8909,4.8909,4.8909,4.8909,4.8909,4.8909,4.8909,4.8909,4.8909,4.8909,4.902,4.9616,5.0619,5.1841,5.2413,5.258,5.3162,5.342,5.3519,4.0096,4.0096,0.0,4.0096,4.0096,4.0096,4.0096,4.0096,4.0333,4.0933,4.1018,4.1288,4.2016,4.21,4.2151,4.2286,4.2286,4.2286,4.2286,4.2286,4.2236,4.21,4.21,4.1762,4.1018,4.1018,4.0696,4.0096,4.0096,4.0146,0.0,0.0,0.0,0.0,0.0,0.0,4.1146,4.1356,4.126,4.0989,4.0918,4.1499,4.2442,4.2888,4.3469,4.4103,4.4497,4.3241,4.1356,4.1071,4.1012,4.114,4.1966,4.199,4.1969,4.3069,4.316,4.2976,4.3392,4.3444,4.3392,4.3392,4.3392,4.3322,4.2976,4.292,4.2902,4.2713,4.2713,4.2694,4.2658,4.264,4.2659,4.2773,4.2753,4.2734,4.2791,4.2753,0.0,0.0,4.332,4.3477,4.386,4.48,4.5358,4.5358,4.6945,4.785,4.7701,4.8463,4.8909,4.8909,4.8909,4.8909,4.8909,4.8909,4.8909,4.8909,4.8909,4.8909,4.8909,4.8909,4.8909,4.8909,4.8909,4.8909,4.8964,4.967,5.0786,5.2028,5.2287,5.2689,5.3197,5.3564,5.362,5.3519,4.0096,0.0,0.0,4.0096,4.0096,4.0231,4.0595,4.0663,4.0798,4.1153,4.1525,4.2049,4.2794,4.2878,4.3047,4.3481,4.3498,4.3498,4.3498,4.3498,4.3301,4.2895,4.2878,4.254,4.1779,4.1762,4.1407,4.0663,4.0663,4.051,4.0213,4.0213,0.0,0.0,0.0,4.1076,0.0,4.1373,4.1346,4.1215,4.165,4.2183,4.2828,4.3948,4.4631,4.4993,4.5214,4.4507,4.3369,4.2677,4.2291,4.2237,4.3133,4.2806,4.2396,4.3724,4.3543,4.2976,4.3392,4.3515,4.3515,4.3515,4.3515,4.3444,4.3304,4.3286,4.3286,4.3178,4.3249,4.332,4.3318,4.3335,4.3353,4.3423,4.3248,4.3177,4.3388,4.3248,4.3248,0.0,0.0,0.0,4.3989,4.4376,4.4804,4.5268,4.6791,4.7701,4.7701,4.8463,4.8909,4.8909,4.8909,4.8909,4.8909,4.8909,4.8909,4.8909,4.8909,4.8909,4.8909,4.8909,4.8909,4.8909,4.8909,4.915,4.9633,5.0915,5.1862,5.253,5.2918,5.3267,5.358,5.3716,5.3716,5.3659,4.0096,4.0096,4.0146,4.0316,4.0333,4.0561,4.1322,4.1576,4.1677,4.1677,4.2168,4.2811,4.3589,4.3673,4.391,4.4547,4.4615,4.4615,4.4615,4.4615,4.4316,4.369,4.3673,4.3301,4.254,4.2594,4.2211,4.1441,4.145,4.1155,4.0526,4.0526,0.0,0.0,4.0954,4.114,4.1272,4.1452,4.159,4.1738,4.2605,4.319,4.3651,4.5034,4.5716,4.5939,4.5939,4.5862,4.5662,4.4943,4.4156,4.3609,4.4299,4.3868,4.3319,4.4467,4.4143,4.3503,4.3905,4.401,4.401,4.401,4.3864,4.3754,4.3754,4.3659,4.3582,4.3599,4.3767,4.3913,4.3989,4.4005,4.4005,4.4005,4.3726,4.3644,4.3974,4.3728,4.3644,0.0,0.0,0.0,4.4005,4.4005,4.4358,4.5231,4.6624,4.7441,4.7441,4.837,4.8909,4.8909,4.8909,4.8909,4.8909,4.8909,4.8909,4.8909,4.8909,4.8909,4.8909,4.8909,4.8909,4.8909,4.9076,4.9726,5.0729,5.2067,5.2698,5.2902,5.3494,5.3735,5.3774,5.3734,5.3735,5.3793,4.0096,4.0096,4.0316,4.0984,4.1102,4.1356,4.2066,4.276,4.3189,4.3189,4.324,4.3606,4.4412,4.4496,4.453,4.4598,4.4615,4.4615,4.4615,4.4615,4.4581,4.4496,4.4496,4.4096,4.3291,4.3488,4.3114,4.2185,4.23,4.2005,4.1291,4.1291,4.1241,4.1117,4.0871,4.0971,4.1403,4.1793,4.2195,4.2645,4.3458,4.4725,4.6173,4.6345,4.7077,4.8028,4.8028,4.7756,4.7373,4.7271,4.6018,4.447,4.4478,4.4464,4.4532,4.5007,4.5111,4.5155,4.5572,4.5681,4.5681,4.5681,4.5131,4.4599,4.4599,4.403,4.3532,4.3582,4.3767,4.3913,4.3989,4.4005,4.4005,4.4005,4.3974,4.3974,4.3986,4.3974,4.3974,4.4005,0.0,0.0,4.4005,4.4005,4.4358,4.5231,4.6122,4.6605,4.6605,4.8073,4.8909,4.8909,4.8909,4.8909,4.8909,4.8909,4.8909,4.8909,4.8909,4.8909,4.8909,4.8909,4.8909,4.8946,4.967,5.0896,5.2382,5.2549,5.3032,5.3701,5.3756,5.3754,5.3715,5.3774,5.3754,5.3773,4.0096,4.0468,4.0849,4.1153,4.1576,4.2117,4.2861,4.3189,4.3561,4.4062,4.4113,4.4231,4.4564,4.4615,4.4615,4.4615,4.4615,4.4615,4.4615,4.4615,4.4615,4.4615,4.4615,4.449,4.4251,4.4306,4.4004,4.3248,4.3221,4.2926,4.2347,4.2253,4.226,4.2403,4.225,4.2458,4.291,4.3063,4.3423,4.3948,4.5015,4.5876,4.6567,4.7299,4.7877,4.8306,4.8306,4.8172,4.8015,4.8015,4.7111,4.6012,4.6277,4.5846,4.5405,4.6121,4.5851,4.5391,4.5792,4.5902,4.5902,4.5902,4.5663,4.5424,4.5424,4.5168,4.4818,4.434,4.4034,4.3883,4.3974,4.4005,4.4005,4.4005,4.4005,4.4005,4.4005,4.4005,4.4005,4.4005,0.0,4.4005,4.4005,4.4005,4.4358,4.5231,4.6048,4.6717,4.7181,4.8296,4.8909,4.8909,4.8909,4.8909,4.8909,4.8909,4.8909,4.8909,4.8909,4.8909,4.8909,4.8909,4.9169,4.9689,5.1026,5.1992,5.2642,5.3125,5.3515,5.3813,5.3813,5.3907,5.4072,5.4089,5.4212,5.4382,4.0409,4.1018,4.1593,4.1813,4.2286,4.2878,4.3639,4.3758,4.3961,4.453,4.4615,4.4615,4.4615,4.4615,4.4615,4.4615,4.4615,4.4615,4.4615,4.4615,4.4615,4.4615,4.4615,4.4654,4.482,4.4831,4.4657,4.4236,4.4156,4.386,4.3331,4.2997,4.2971,4.3189,4.3189,4.3451,4.3915,4.4144,4.4582,4.5264,4.6388,4.6916,4.7112,4.799,4.8306,4.8306,4.8306,4.8306,4.8306,4.8306,4.7875,4.7353,4.7548,4.7087,4.6573,4.7097,4.6753,4.6239,4.6525,4.6617,4.6617,4.6617,4.6434,4.625,4.625,4.6067,4.5755,4.5222,4.4793,4.4482,4.435,4.4361,4.4302,4.4042,4.4005,4.4005,4.4005,4.4005,4.4005,4.4005,4.4005,4.4098,4.4358,4.4376,4.4729,4.5584,4.6401,4.7107,4.7664,4.8463,4.8909,4.8909,4.8909,4.8909,4.8909,4.8909,4.8909,4.8909,4.8909,4.8909,4.8909,4.9169,4.9856,5.0915,5.2085,5.2735,5.2995,5.3571,5.3813,5.3813,5.3813,5.3999,5.4315,5.4315,5.4511,5.4806,4.1187,4.1779,4.2523,4.3267,4.3375,4.3673,4.4479,4.4598,4.4598,4.4615,4.4615,4.4615,4.4615,4.4615,4.4615,4.4615,4.4615,4.4615,4.4615,4.4615,4.4615,4.4615,4.4615,4.4654,4.482,4.494,4.5005,4.5005,4.5123,4.4825,4.407,4.3459,4.3207,4.3189,4.3189,4.3451,4.395,4.4682,4.5543,4.6547,4.7285,4.7858,4.8268,4.8306,4.8306,4.8306,4.8306,4.8306,4.8306,4.8306,4.8287,4.8191,4.7736,4.7917,4.8173,4.7736,4.7899,4.825,4.8269,4.8269,4.8269,4.8269,4.7663,4.7094,4.7094,4.6471,4.5938,4.6065,4.6134,4.5962,4.5214,4.5201,4.4989,4.4135,4.4005,4.4005,4.4005,4.4005,4.4005,4.4005,4.4005,4.4339,4.5194,4.5268,4.5621,4.642,4.7237,4.7683,4.7701,4.8463,4.8909,4.8909,4.8909,4.8909,4.8909,4.8909,4.8909,4.8909,4.8909,4.8909,4.8927,4.9782,5.1063,5.2568,5.2587,5.3051,5.3794,5.3813,5.3813,5.3813,5.3813,5.3999,5.4315,5.4315,5.4511,5.4851,4.1847,4.254,4.3132,4.3341,4.3859,4.4282,4.4564,4.4615,4.4615,4.4615,4.4615,4.4615,4.4615,4.4615,4.4615,4.4615,4.4615,4.4615,4.4615,4.4615,4.4615,4.4615,4.4682,4.4803,4.4923,4.5059,4.5194,4.5264,4.522,4.5083,4.486,4.4768,4.4716,4.4716,4.4716,4.5155,4.595,4.6198,4.6848,4.7747,4.7983,4.8172,4.8306,4.8306,4.8306,4.8306,4.8306,4.8306,4.8306,4.8306,4.8306,4.8267,4.8114,4.8172,4.8267,4.8132,4.8172,4.8306,4.8306,4.8306,4.8306,4.8306,4.8122,4.7921,4.7921,4.7296,4.6765,4.6946,4.6575,4.6164,4.6075,4.6087,4.603,4.5751,4.5695,4.5695,4.5695,4.5695,4.5695,4.5695,4.5695,4.5807,4.6085,4.6122,4.6438,4.7256,4.7553,4.7701,4.7701,4.8463,4.8909,4.8909,4.8909,4.8909,4.8909,4.8909,4.8909,4.8909,4.8909,4.9187,4.9763,5.0618,5.1602,5.2624,5.3181,5.3571,5.3813,5.3813,5.3926,5.4124,5.4124,5.4495,5.4981,5.4981,5.5159,5.543,4.2625,4.3335,4.3859,4.3859,4.4265,4.4615,4.4615,4.4615,4.4615,4.4615,4.4615,4.4615,4.4615,4.4615,4.4615,4.4615,4.4615,4.4615,4.4615,4.4615,4.4626,4.4682,4.4765,4.4886,4.5059,4.5167,4.5274,4.5397,4.5318,4.5274,4.5274,4.5371,4.5397,4.5397,4.5397,4.5963,4.6908,4.6908,4.7421,4.8306,4.8306,4.8306,4.8306,4.8306,4.8306,4.8306,4.8306,4.8306,4.8306,4.8306,4.8306,4.8306,4.8306,4.8306,4.8306,4.8306,4.8306,4.8306,4.8306,4.8306,4.8306,4.8306,4.8306,4.8306,4.8306,4.7901,4.7591,4.7703,4.7388,4.7052,4.6877,4.689,4.6847,4.655,4.6494,4.6494,4.6494,4.6494,4.6494,4.6494,4.6494,4.6624,4.6921,4.694,4.7274,4.8091,4.8147,4.8147,4.8147,4.863,4.8909,4.8909,4.8909,4.8909,4.8909,4.8909,4.8909,4.8909,4.8909,4.9485,5.0618,5.1156,5.1992,5.3088,5.359,5.3813,5.3794,5.3926,5.4107,5.4296,5.443,5.4821,5.5301,5.5301,5.5461,5.5703,4.346,4.4079,4.4615,4.4615,4.4615,4.4615,4.4615,4.4615,4.4615,4.4615,4.4615,4.4615,4.4615,4.4615,4.4615,4.4615,4.4615,4.4615,4.4615,4.4598,4.4682,4.4776,4.4831,4.4923,4.5177,4.522,4.5274,4.5397,4.5397,4.5397,4.5397,4.5397,4.5397,4.5397,4.5397,4.5963,4.6908,4.6908,4.7421,4.8306,4.8306,4.8306,4.8306,4.8306,4.8306,4.8306,4.8306,4.8306,4.8306,4.8306,4.8306,4.8306,4.8306,4.8306,4.8306,4.8306,4.8306,4.8306,4.8306,4.8306,4.8306,4.8306,4.8306,4.8306,4.8306,4.8306,4.8306,4.8325,4.8458,4.8384,4.7626,4.7673,4.7534,4.6791,4.6661,4.6661,4.6661,4.6661,4.6661,4.6661,4.6661,4.6958,4.7701,4.7776,4.8091,4.8834,4.8909,4.8909,4.8909,4.8909,4.8909,4.8909,4.8909,4.8909,4.8909,4.8909,4.8909,4.8909,4.8909,4.9782,5.1398,5.1398,5.2289,5.3832,5.3832,5.3851,5.3889,5.4212,5.4347,5.4397,5.4716,5.5042,5.5326,5.5326,5.5492,5.5703,4.4198,4.4479,4.4615,4.4615,4.4615,4.4615,4.4615,4.4615,4.4615,4.4615,4.4615,4.4615,4.4615,4.4615,4.4615,4.4615,4.4615,4.4615,4.4615,4.4709,4.4765,4.4803,4.5005,4.514,4.5203,4.53,4.5371,4.5397,4.5397,4.5397,4.5397,4.5397,4.5397,4.5397,4.5397,4.5963,4.6908,4.6908,4.7421,4.8306,4.8306,4.8306,4.8306,4.8306,4.8306,4.8306,4.8306,4.8306,4.8306,4.8306,4.8306,4.8306,4.8306,4.8306,4.8306,4.8306,4.8306,4.8306,4.8306,4.8306,4.8306,4.8306,4.8306,4.8306,4.8306,4.8306,4.8344,4.8495,4.8569,4.8586,4.8562,4.8577,4.8556,4.837,4.8333,4.8333,4.8333,4.8333,4.8333,4.8333,4.8333,4.8407,4.8612,4.863,4.8686,4.889,4.8909,4.8909,4.8909,4.8909,4.8909,4.8909,4.8909,4.8909,4.8909,4.8909,4.8909,4.8909,4.8909,4.9782,5.1398,5.1398,5.2416,5.4177,5.4177,5.4332,5.4576,5.4654,5.4836,5.5064,5.5151,5.5364,5.5607,5.5607,5.564,5.5703,4.4513,4.4615,4.4615,4.4615,4.4615,4.4615,4.4615,4.4615,4.4615,4.4615,4.4615,4.4615,4.4615,4.4654,4.4682,4.4682,4.4682,4.4682,4.4682,4.4803,4.4913,4.4978,4.5113,4.5247,4.53,4.5371,4.5397,4.5397,4.5397,4.5397,4.5397,4.5397,4.5397,4.5397,4.5397,4.5837,4.6584,4.6817,4.7331,4.7995,4.821,4.8306,4.8306,4.8306,4.8306,4.8306,4.8306,4.8306,4.8306,4.8306,4.8306,4.8306,4.8306,4.8306,4.8306,4.8306,4.8306,4.8306,4.8306,4.8306,4.8306,4.8306,4.8306,4.8306,4.8306,4.8343,4.842,4.8532,4.8642,4.8714,4.8821,4.8874,4.8909,4.8909,4.8909,4.8909,4.8909,4.8909,4.8909,4.8909,4.8909,4.8909,4.8909,4.8909,4.8909,4.8909,4.8909,4.8909,4.8909,4.8909,4.8909,4.8909,4.8909,4.8909,4.8909,4.8909,4.8909,4.8909,4.928,5.0135,5.1416,5.1949,5.2945,5.4315,5.4463,5.4639,5.4806,5.4971,5.5138,5.5314,5.5425,5.5573,5.5703,5.5703,5.5703,5.5703,4.4615,4.4615,4.4615,4.4615,4.4615,4.4615,4.4615,4.4615,4.4615,4.4615,4.4615,4.4615,4.4615,4.4737,4.4803,4.4803,4.4831,4.4858,4.4831,4.4968,4.5086,4.5194,4.522,4.5274,4.5397,4.5397,4.5397,4.5397,4.5397,4.5397,4.5397,4.5397,4.5397,4.5397,4.5397,4.5727,4.6315,4.6724,4.7204,4.7736,4.8132,4.8306,4.8306,4.8306,4.8306,4.8306,4.8306,4.8306,4.8306,4.8306,4.8306,4.8306,4.8306,4.8306,4.8306,4.8306,4.8306,4.8306,4.8306,4.8306,4.8306,4.8306,4.8306,4.8306,4.8306,4.8401,4.8513,4.8513,4.8661,4.8804,4.8804,4.8856,4.8909,4.8909,4.8909,4.8909,4.8909,4.8909,4.8909,4.8909,4.8909,4.8909,4.8909,4.8909,4.8909,4.8909,4.8909,4.8909,4.8909,4.8909,4.8909,4.8909,4.8909,4.8909,4.8909,4.8909,4.8964,4.9094,4.9782,5.0618,5.162,5.2643,5.3579,5.4397,5.4731,5.4895,5.4966,5.5243,5.5364,5.5376,5.5607,5.5703,5.5703,5.5703,5.5703,5.5703,4.4615,4.4615,4.4615,4.4615,4.4615,4.4615,4.4615,4.4615,4.4615,4.4615,4.4615,4.4615,4.4615,4.4737,4.4803,4.4803,4.5005,4.5086,4.4995,4.5086,4.5177,4.5203,4.53,4.5371,4.5397,4.5397,4.5397,4.5397,4.5397,4.5397,4.5397,4.5397,4.5397,4.5397,4.5397,4.5912,4.6794,4.6863,4.7417,4.8191,4.8267,4.8306,4.8306,4.8306,4.8306,4.8306,4.8306,4.8306,4.8306,4.8306,4.8306,4.8306,4.8306,4.8306,4.8306,4.8306,4.8306,4.8306,4.8306,4.8306,4.8306,4.8306,4.8306,4.8306,4.8306,4.8401,4.8513,4.8569,4.8697,4.8822,4.8874,4.8891,4.8909,4.8909,4.8909,4.8909,4.8909,4.8909,4.8909,4.8909,4.8909,4.8909,4.8909,4.8909,4.8909,4.8909,4.8909,4.8909,4.8909,4.8909,4.8909,4.8909,4.8909,4.8909,4.8909,4.8909,4.9243,4.993,5.0042,5.0915,5.2438,5.2905,5.3691,5.4746,5.5083,5.5345,5.5566,5.5618,5.564,5.564,5.5673,5.5703,5.5703,5.5703,5.5703,5.5703,4.4615,4.4615,4.4615,4.4615,4.4615,4.4615,4.4615,4.4615,4.4643,4.4709,4.4709,4.4737,4.4803,4.494,4.5005,4.5005,4.5194,4.5274,4.522,4.5274,4.53,4.53,4.5371,4.5397,4.5397,4.5397,4.5397,4.5397,4.5397,4.5397,4.5397,4.5397,4.5397,4.5397,4.5397,4.5829,4.6554,4.6794,4.7309,4.7955,4.8191,4.8306,4.8306,4.8306,4.8306,4.8306,4.8306,4.8306,4.8306,4.8306,4.8306,4.8306,4.8306,4.8306,4.8306,4.8306,4.8306,4.8306,4.8306,4.8306,4.8306,4.8306,4.8306,4.8306,4.8382,4.8476,4.8587,4.8697,4.8786,4.8856,4.8891,4.8909,4.8909,4.8909,4.8909,4.8909,4.8909,4.8909,4.8909,4.8909,4.8909,4.8909,4.8909,4.8909,4.8909,4.8909,4.8909,4.8909,4.8909,4.8909,4.8909,4.8909,4.8909,4.9132,4.9596,4.9559,4.9968,5.0822,5.1249,5.1953,5.2893,5.3677,5.4402,5.5097,5.5389,5.5585,5.5703,5.5703,5.5703,5.5703,5.5703,5.5703,5.5703,5.5703,5.5703,5.5703,4.4615,4.4615,4.4615,4.4615,4.4615,4.4615,4.4615,4.4615,4.4654,4.4776,4.4803,4.4858,4.4978,4.5113,4.5203,4.5203,4.53,4.5397,4.5397,4.5397,4.5397,4.5397,4.5397,4.5397,4.5397,4.5397,4.5397,4.5397,4.5397,4.5397,4.5397,4.5397,4.5397,4.5397,4.5537,4.5879,4.6387,4.6863,4.7335,4.7795,4.8152,4.8306,4.8306,4.8306,4.8306,4.8306,4.8306,4.8306,4.8306,4.8306,4.8306,4.8306,4.8306,4.8306,4.8306,4.8306,4.8306,4.8306,4.8306,4.8306,4.8306,4.8306,4.8306,4.8343,4.8457,4.855,4.8642,4.8769,4.8839,4.8909,4.8909,4.8909,4.8909,4.8909,4.8909,4.8909,4.8909,4.8909,4.8909,4.8909,4.8909,4.8909,4.8909,4.8909,4.8909,4.8909,4.8909,4.8909,4.8909,4.8909,4.9002,4.9169,4.9187,4.9503,5.0172,5.0339,5.0841,5.1695,5.2308,5.2862,5.3412,5.4371,5.4981,5.5314,5.5585,5.5703,5.5703,5.5703,5.5703,5.5703,5.5703,5.5703,5.5703,5.5703,5.5703,5.5703,4.4615,4.4615,4.4615,4.4615,4.4615,4.4615,4.4615,4.4615,4.4654,4.4776,4.4803,4.4858,4.4978,4.5113,4.5203,4.5203,4.53,4.5397,4.5397,4.5397,4.5397,4.5397,4.5397,4.5397,4.5397,4.5397,4.5397,4.5397,4.5397,4.5397,4.5397,4.5397,4.5397,4.5423,4.593,4.6411,4.6886,4.7356,4.7816,4.8267,4.8287,4.8306,4.8306,4.8306,4.8306,4.8306,4.8306,4.8306,4.8306,4.8306,4.8306,4.8306,4.8306,4.8306,4.8306,4.8306,4.8306,4.8306,4.8306,4.8306,4.8306,4.8306,4.8306,4.8343,4.8457,4.855,4.8642,4.8769,4.8839,4.8909,4.8909,4.8909,4.8909,4.8909,4.8909,4.8909,4.8909,4.8909,4.8909,4.8909,4.8909,4.8909,4.8909,4.8909,4.8909,4.8909,4.8909,4.8909,4.8909,4.8909,4.9243,4.9986,5.0023,5.0042,5.0116,5.0896,5.1714,5.2512,5.2568,5.3161,5.4221,5.4616,5.4981,5.5314,5.5585,5.5703,5.5703,5.5703,5.5703,5.5703,5.5703,5.5703,5.5703,5.5703,5.5703,5.5703,4.4615,4.4615,4.4615,4.4615,4.4615,4.4615,4.4615,4.4682,4.4776,4.4913,4.5005,4.5086,4.522,4.5274,4.5327,4.5327,4.5371,4.5397,4.5397,4.5397,4.5397,4.5397,4.5397,4.5397,4.5397,4.5397,4.5397,4.5397,4.5397,4.5397,4.5397,4.5397,4.5397,4.5423,4.5955,4.6459,4.6931,4.7399,4.7877,4.8306,4.8306,4.8306,4.8306,4.8306,4.8306,4.8306,4.8306,4.8306,4.8306,4.8306,4.8306,4.8306,4.8306,4.8306,4.8306,4.8306,4.8306,4.8306,4.8306,4.8306,4.8306,4.8306,4.8363,4.8457,4.855,4.866,4.875,4.8839,4.8891,4.8909,4.8909,4.8909,4.8909,4.8909,4.8909,4.8909,4.8909,4.8909,4.8909,4.8909,4.8909,4.8909,4.8909,4.8909,4.8909,4.8909,4.8909,4.8909,4.8909,4.9373,4.9782,5.0098,5.1119,5.1658,5.1658,5.1992,5.2549,5.3348,5.3551,5.3998,5.4623,5.4952,5.5269,5.5543,5.5671,5.5703,5.5703,5.5703,5.5703,5.5703,5.5703,5.5703,5.5703,5.5703,5.5703,5.5703,4.4615,4.4615,4.4615,4.4615,4.4615,4.4615,4.4615,4.4709,4.4858,4.4978,4.5113,4.5247,4.5397,4.5397,4.5397,4.5397,4.5397,4.5397,4.5397,4.5397,4.5397,4.5397,4.5397,4.5397,4.5397,4.5397,4.5397,4.5397,4.5397,4.5397,4.5397,4.5397,4.5502,4.5667,4.6186,4.6678,4.7138,4.7611,4.8015,4.8306,4.8306,4.8306,4.8306,4.8306,4.8306,4.8306,4.8306,4.8306,4.8306,4.8306,4.8306,4.8306,4.8306,4.8306,4.8306,4.8306,4.8306,4.8306,4.8306,4.8306,4.8306,4.8363,4.8438,4.8532,4.8642,4.8732,4.8822,4.8891,4.8909,4.8909,4.8909,4.8909,4.8909,4.8909,4.8909,4.8909,4.8909,4.8909,4.8909,4.8909,4.8909,4.8909,4.8909,4.8909,4.8909,4.8909,4.8909,4.902,4.9262,4.9819,5.0358,5.0878,5.2011,5.2717,5.2977,5.2977,5.3255,5.3794,5.4143,5.4479,5.4806,5.5151,5.5437,5.5703,5.5703,5.5703,5.5703,5.5703,5.5703,5.5703,5.5703,5.5703,5.5703,5.5703,5.5703,5.5703,4.4615,4.4615,4.4615,4.4615,4.4615,4.4615,4.4615,4.4709,4.4858,4.4978,4.5113,4.5247,4.5397,4.5397,4.5397,4.5397,4.5397,4.5397,4.5397,4.5397,4.5397,4.5397,4.5397,4.5397,4.5397,4.5397,4.5397,4.5397,4.5397,4.5397,4.5397,4.5397,4.5675,4.6211,4.6701,4.716,4.7632,4.8113,4.8306,4.8306,4.8306,4.8306,4.8306,4.8306,4.8306,4.8306,4.8306,4.8306,4.8306,4.8306,4.8306,4.8306,4.8306,4.8306,4.8306,4.8306,4.8306,4.8306,4.8306,4.8306,4.8325,4.8457,4.8513,4.855,4.8751,4.8787,4.8822,4.8891,4.8909,4.8909,4.8909,4.8909,4.8909,4.8909,4.8909,4.8909,4.8909,4.8909,4.8909,4.8909,4.8909,4.8909,4.8909,4.8909,4.8909,4.8909,4.8909,4.9262,5.006,5.0172,5.0952,5.2549,5.2605,5.2995,5.3794,5.3794,5.3794,5.3813,5.4161,5.4479,5.4806,5.5151,5.5437,5.5703,5.5703,5.5703,5.5703,5.5703,5.5703,5.5703,5.5703,5.5703,5.5703,5.5703,5.5703,5.5703,4.4615,4.4615,4.4615,4.4615,4.4615,4.4615,4.4615,4.4709,4.4858,4.4978,4.5113,4.5247,4.5397,4.5397,4.5397,4.5397,4.5397,4.5397,4.5397,4.5397,4.5397,4.5397,4.5397,4.5397,4.5397,4.5397,4.5397,4.5397,4.5397,4.5397,4.5397,4.5778,4.6055,4.6235,4.7049,4.7464,4.7632,4.8113,4.8306,4.8306,4.8306,4.8306,4.8306,4.8306,4.8306,4.8306,4.8306,4.8306,4.8306,4.8306,4.8306,4.8306,4.8306,4.8306,4.8306,4.8306,4.8306,4.8306,4.8401,4.8438,4.8457,4.8494,4.855,4.8605,4.8769,4.884,4.8874,4.8891,4.8909,4.8909,4.8909,4.8909,4.8909,4.8909,4.8909,4.8909,4.8909,4.8909,4.8909,4.8909,4.8909,4.8909,4.8909,4.8909,4.8909,4.8909,4.9429,4.9856,5.0098,5.1231,5.2104,5.2587,5.3364,5.3917,5.4142,5.4142,5.4142,5.4161,5.4727,5.505,5.5164,5.5449,5.5618,5.5703,5.5703,5.5703,5.5703,5.5703,5.5703,5.5703,5.5703,5.5703,5.5703,5.5703,5.5703,5.5703,4.4615,4.4615,4.4615,4.4615,4.4615,4.4626,4.4682,4.4776,4.494,4.5059,4.5194,4.53,4.5397,4.5397,4.5397,4.5397,4.5397,4.5397,4.5397,4.5397,4.5397,4.5397,4.5397,4.5397,4.5397,4.5397,4.5397,4.5397,4.5615,4.5718,4.5727,4.6242,4.656,4.6776,4.7356,4.7695,4.7897,4.8172,4.8306,4.8306,4.8306,4.8306,4.8306,4.8306,4.8306,4.8306,4.8306,4.8306,4.8306,4.8306,4.8306,4.8306,4.8306,4.8306,4.8306,4.8306,4.8343,4.84,4.8476,4.8513,4.855,4.8606,4.8642,4.8715,4.8822,4.8874,4.8909,4.8909,4.8909,4.8909,4.8909,4.8909,4.8909,4.8909,4.8909,4.8909,4.8909,4.8909,4.8909,4.8909,4.8909,4.8909,4.8909,4.8909,4.9039,4.9355,5.0153,5.0748,5.1082,5.2048,5.2754,5.307,5.3881,5.4315,5.4315,5.4557,5.4639,5.4511,5.5037,5.5301,5.5314,5.5585,5.5703,5.5703,5.5703,5.5703,5.5703,5.5703,5.5703,5.5703,5.5703,5.5703,5.5703,5.5703,5.5703,5.5703,4.4615,4.4615,4.4615,4.4615,4.4598,4.4654,4.4776,4.4896,4.5059,4.5177,4.53,4.5397,4.5397,4.5397,4.5397,4.5397,4.5397,4.5397,4.5397,4.5397,4.5397,4.5397,4.5397,4.5397,4.5397,4.5397,4.5397,4.5397,4.5955,4.6211,4.6211,4.6724,4.7182,4.7611,4.7632,4.7897,4.8306,4.8306,4.8306,4.8306,4.8306,4.8306,4.8306,4.8306,4.8306,4.8306,4.8306,4.8306,4.8306,4.8306,4.8306,4.8306,4.8306,4.8306,4.8306,4.8306,4.8401,4.8513,4.8531,4.8569,4.866,4.8787,4.8804,4.8822,4.8891,4.8909,4.8909,4.8909,4.8909,4.8909,4.8909,4.8909,4.8909,4.8909,4.8909,4.8909,4.8909,4.8909,4.8909,4.8909,4.8909,4.8909,4.8909,4.8964,4.9355,5.0172,5.1026,5.1825,5.2568,5.2679,5.307,5.3813,5.4159,5.4347,5.438,5.5023,5.5164,5.4851,5.5178,5.5339,5.5339,5.5596,5.5703,5.5703,5.5703,5.5703,5.5703,5.5703,5.5703,5.5703,5.5703,5.5703,5.5703,5.5703,5.5703,5.5703,4.4615,4.4615,4.4615,4.4615,4.4682,4.4765,4.482,4.4896,4.5059,4.5177,4.5247,4.5274,4.5397,4.5397,4.5397,4.5397,4.5397,4.5397,4.5397,4.5397,4.5397,4.5397,4.5397,4.5397,4.5397,4.5397,4.5397,4.5397,4.5955,4.6211,4.6211,4.7071,4.7506,4.7611,4.7995,4.8191,4.8306,4.8306,4.8306,4.8306,4.8306,4.8306,4.8306,4.8306,4.8306,4.8306,4.8306,4.8306,4.8306,4.8306,4.8306,4.8306,4.8306,4.8306,4.8306,4.8438,4.8494,4.8513,4.8679,4.8751,4.8787,4.8856,4.8874,4.8891,4.8909,4.8909,4.8909,4.8909,4.8909,4.8909,4.8909,4.8909,4.8909,4.8909,4.8909,4.8909,4.8909,4.8909,4.8909,4.8909,4.8909,4.8909,4.8909,4.9466,5.0209,5.1045,5.1881,5.2419,5.2587,5.32,5.374,5.4177,5.4511,5.4821,5.5064,5.5449,5.5473,5.521,5.5473,5.5618,5.5618,5.5662,5.5703,5.5703,5.5703,5.5703,5.5703,5.5703,5.5703,5.5703,5.5703,5.5703,5.5703,5.5703,5.5703,5.5703,4.4709,4.4765,4.4776,4.4776,4.4858,4.4913,4.4978,4.5059,4.514,4.5274,4.53,4.53,4.5397,4.5397,4.5397,4.5397,4.5397,4.5397,4.5397,4.5397,4.5397,4.5397,4.5397,4.5528,4.5778,4.5778,4.5778,4.5778,4.6495,4.6868,4.689,4.7591,4.7917,4.7937,4.8191,4.8306,4.8306,4.8306,4.8306,4.8306,4.8306,4.8306,4.8306,4.8306,4.8306,4.8306,4.8306,4.8306,4.8306,4.8306,4.8306,4.8306,4.8306,4.8325,4.8401,4.8476,4.8569,4.8679,4.8769,4.8822,4.8875,4.8891,4.8909,4.8909,4.8909,4.8909,4.8909,4.8909,4.8909,4.8909,4.8909,4.8909,4.8909,4.8909,4.8909,4.8909,4.8909,4.8909,4.8909,4.8909,4.9243,4.9652,5.006,5.0822,5.1491,5.1936,5.2717,5.3181,5.3181,5.3721,5.4125,5.4279,5.4791,5.5124,5.5301,5.5573,5.5629,5.5485,5.5629,5.5703,5.5703,5.5703,5.5703,5.5703,5.5703,5.5703,5.5703,5.5703,5.5703,5.5703,5.5703,5.5703,5.5703,5.5703,5.5703,5.5703,4.4803,4.4913,4.5005,4.5005,4.5005,4.5059,4.5177,4.522,4.5274,4.5397,4.5397,4.5397,4.5397,4.5397,4.5397,4.5397,4.5397,4.5397,4.5397,4.5502,4.5537,4.5537,4.5598,4.5862,4.6308,4.6387,4.6411,4.6332,4.7182,4.7611,4.7611,4.8075,4.8306,4.8306,4.8306,4.8306,4.8306,4.8306,4.8306,4.8306,4.8306,4.8306,4.8306,4.8306,4.8306,4.8306,4.8306,4.8306,4.8306,4.8306,4.8306,4.8325,4.8325,4.842,4.8513,4.8532,4.8661,4.8804,4.8822,4.8856,4.8909,4.8909,4.8909,4.8909,4.8909,4.8909,4.8909,4.8909,4.8909,4.8909,4.8909,4.8909,4.8909,4.8909,4.8909,4.8946,4.9094,4.9113,4.9169,4.9317,4.993,5.0655,5.1528,5.2215,5.2661,5.2791,5.3423,5.3813,5.3813,5.4125,5.4332,5.438,5.4981,5.5326,5.5364,5.5596,5.5703,5.5703,5.5703,5.5703,5.5703,5.5703,5.5703,5.5703,5.5703,5.5703,5.5703,5.5703,5.5703,5.5703,5.5703,5.5703,5.5703,5.5703,5.5703,5.5703,4.4803,4.4913,4.5005,4.5005,4.5113,4.5177,4.5194,4.53,4.5371,4.5397,4.5397,4.5397,4.5397,4.5397,4.5397,4.5397,4.5397,4.5397,4.5397,4.5829,4.6087,4.6087,4.6465,4.6724,4.6794,4.7204,4.7226,4.6794,4.7335,4.7611,4.7611,4.8075,4.8306,4.8306,4.8306,4.8306,4.8306,4.8306,4.8306,4.8306,4.8306,4.8306,4.8306,4.8306,4.8306,4.8306,4.8306,4.8306,4.8306,4.8306,4.8382,4.8476,4.8476,4.8532,4.8605,4.8733,4.8769,4.8804,4.8874,4.8891,4.8909,4.8909,4.8909,4.8909,4.8909,4.8909,4.8909,4.8909,4.8909,4.8909,4.8909,4.8909,4.8909,4.8909,4.8909,4.915,4.9837,4.9949,5.0228,5.0971,5.1156,5.1546,5.2364,5.2549,5.2902,5.359,5.3738,5.3813,5.3813,5.4125,5.443,5.4731,5.5111,5.5413,5.564,5.5673,5.5703,5.5703,5.5703,5.5703,5.5703,5.5703,5.5703,5.5703,5.5703,5.5703,5.5703,5.5703,5.5703,5.5703,5.5703,5.5703,5.5703,5.5703,5.5703,5.5714,4.4913,4.5076,4.522,4.522,4.5274,4.53,4.53,4.5371,4.5397,4.5397,4.5397,4.5397,4.5397,4.5397,4.5397,4.5397,4.5397,4.5528,4.5829,4.6062,4.6332,4.656,4.6794,4.7004,4.7291,4.7485,4.7632,4.7671,4.7877,4.7995,4.7995,4.8191,4.8306,4.8306,4.8306,4.8306,4.8306,4.8306,4.8306,4.8306,4.8306,4.8306,4.8306,4.8306,4.8306,4.8306,4.8306,4.8306,4.8306,4.8382,4.8457,4.8513,4.855,4.8624,4.8715,4.8787,4.884,4.8856,4.8891,4.8909,4.8909,4.8909,4.8909,4.8909,4.8909,4.8909,4.8909,4.8909,4.8909,4.8909,4.8909,4.8909,4.9057,4.9503,4.9577,4.9875,5.0711,5.0822,5.1138,5.1974,5.2067,5.2401,5.32,5.3274,5.3423,5.3775,5.3813,5.3813,5.3813,5.4298,5.4654,5.4791,5.5282,5.5585,5.5703,5.5703,5.5703,5.5703,5.5703,5.5703,5.5703,5.5703,5.5703,5.5703,5.5703,5.5703,5.5703,5.5703,5.5703,5.5703,5.5703,5.5724,5.5756,5.5756,5.5776,5.5816]}]]